<?xml version="1.0" encoding="UTF-8" standalone="no" ?>
<gpx xmlns="http://www.topografix.com/GPX/1/1" xmlns:xsi="http://www.w3.org/2001/XMLSchema-instance" xsi:schemaLocation="http://www.topografix.com/GPX/1/1 http://www.topografix.com/GPX/1/1/gpx.xsd" version="1.1" creator="VisuGPX - https://www.visugpx.com">
  <metadata>
    <name>Vélo bleu - Circuit 17</name>
    <desc><![CDATA[Petit patrimoine sur ce circuit :
- Lavoirs de Buxières-les-Froncles, Froncles, Villiers-sur-marne, Gudmont, Provenchères-sur-Marne, Vignory, Vouécourt.
- Châteaux de Buxières-les-Froncles, de Gudmont et de Vignory
- Chapelle Saint-Hilaire de Soncourt-sur-Marne
- Abbaye de La Genevroye à Soncourt-sur-Marne.]]></desc>
  </metadata>
  <trk>
    <name><![CDATA[VIEVILLE]]></name>
    <trkseg>
      <trkpt lat="48.23959" lon="5.13523">
        <ele>235.45</ele>
        <time>2024-12-30T12:39:28.000Z</time>
      </trkpt>
      <trkpt lat="48.23959" lon="5.13523">
        <ele>235.31</ele>
        <time>2024-12-30T12:39:28.000Z</time>
      </trkpt>
      <trkpt lat="48.23936" lon="5.13521">
        <ele>235.15</ele>
        <time>2024-12-30T12:39:28.004Z</time>
      </trkpt>
      <trkpt lat="48.23934" lon="5.13504">
        <ele>235.03</ele>
        <time>2024-12-30T12:39:28.010Z</time>
      </trkpt>
      <trkpt lat="48.23926" lon="5.13468">
        <ele>234.97</ele>
        <time>2024-12-30T12:39:28.020Z</time>
      </trkpt>
      <trkpt lat="48.23918" lon="5.13433">
        <ele>234.86</ele>
        <time>2024-12-30T12:39:28.034Z</time>
      </trkpt>
      <trkpt lat="48.2391" lon="5.13398">
        <ele>234.67</ele>
        <time>2024-12-30T12:39:28.052Z</time>
      </trkpt>
      <trkpt lat="48.2391" lon="5.13398">
        <ele>234.44</ele>
        <time>2024-12-30T12:39:28.070Z</time>
      </trkpt>
      <trkpt lat="48.23899" lon="5.13359">
        <ele>234.04</ele>
        <time>2024-12-30T12:39:28.092Z</time>
      </trkpt>
      <trkpt lat="48.23889" lon="5.13319">
        <ele>233.59</ele>
        <time>2024-12-30T12:39:28.119Z</time>
      </trkpt>
      <trkpt lat="48.23886" lon="5.13295">
        <ele>233.14</ele>
        <time>2024-12-30T12:39:28.148Z</time>
      </trkpt>
      <trkpt lat="48.23888" lon="5.13255">
        <ele>232.77</ele>
        <time>2024-12-30T12:39:28.182Z</time>
      </trkpt>
      <trkpt lat="48.2389" lon="5.13215">
        <ele>232.25</ele>
        <time>2024-12-30T12:39:28.220Z</time>
      </trkpt>
      <trkpt lat="48.23891" lon="5.13174">
        <ele>231.64</ele>
        <time>2024-12-30T12:39:28.262Z</time>
      </trkpt>
      <trkpt lat="48.23893" lon="5.13134">
        <ele>231.04</ele>
        <time>2024-12-30T12:39:28.308Z</time>
      </trkpt>
      <trkpt lat="48.23917" lon="5.13142">
        <ele>230.5</ele>
        <time>2024-12-30T12:39:28.359Z</time>
      </trkpt>
      <trkpt lat="48.23942" lon="5.13149">
        <ele>229.93</ele>
        <time>2024-12-30T12:39:28.414Z</time>
      </trkpt>
      <trkpt lat="48.23969" lon="5.13163">
        <ele>229.37</ele>
        <time>2024-12-30T12:39:28.473Z</time>
      </trkpt>
      <trkpt lat="48.23996" lon="5.13177">
        <ele>228.79</ele>
        <time>2024-12-30T12:39:28.537Z</time>
      </trkpt>
      <trkpt lat="48.23996" lon="5.13177">
        <ele>228.37</ele>
        <time>2024-12-30T12:39:28.601Z</time>
      </trkpt>
      <trkpt lat="48.2402" lon="5.13188">
        <ele>228.02</ele>
        <time>2024-12-30T12:39:28.669Z</time>
      </trkpt>
      <trkpt lat="48.24045" lon="5.13199">
        <ele>227.95</ele>
        <time>2024-12-30T12:39:28.741Z</time>
      </trkpt>
      <trkpt lat="48.24069" lon="5.13209">
        <ele>227.89</ele>
        <time>2024-12-30T12:39:28.817Z</time>
      </trkpt>
      <trkpt lat="48.24092" lon="5.13219">
        <ele>227.82</ele>
        <time>2024-12-30T12:39:28.897Z</time>
      </trkpt>
      <trkpt lat="48.24116" lon="5.13229">
        <ele>227.71</ele>
        <time>2024-12-30T12:39:28.981Z</time>
      </trkpt>
      <trkpt lat="48.2414" lon="5.1324">
        <ele>227.6</ele>
        <time>2024-12-30T12:39:29.069Z</time>
      </trkpt>
      <trkpt lat="48.2417" lon="5.13242">
        <ele>227.56</ele>
        <time>2024-12-30T12:39:29.162Z</time>
      </trkpt>
      <trkpt lat="48.24201" lon="5.13244">
        <ele>227.63</ele>
        <time>2024-12-30T12:39:29.259Z</time>
      </trkpt>
      <trkpt lat="48.24232" lon="5.13246">
        <ele>227.8</ele>
        <time>2024-12-30T12:39:29.361Z</time>
      </trkpt>
      <trkpt lat="48.24261" lon="5.13247">
        <ele>228.07</ele>
        <time>2024-12-30T12:39:29.468Z</time>
      </trkpt>
      <trkpt lat="48.2429" lon="5.13248">
        <ele>228.37</ele>
        <time>2024-12-30T12:39:29.580Z</time>
      </trkpt>
      <trkpt lat="48.24319" lon="5.13248">
        <ele>228.68</ele>
        <time>2024-12-30T12:39:29.696Z</time>
      </trkpt>
      <trkpt lat="48.24348" lon="5.13249">
        <ele>229.06</ele>
        <time>2024-12-30T12:39:29.817Z</time>
      </trkpt>
      <trkpt lat="48.24377" lon="5.1325">
        <ele>229.43</ele>
        <time>2024-12-30T12:39:29.943Z</time>
      </trkpt>
      <trkpt lat="48.24406" lon="5.13251">
        <ele>229.72</ele>
        <time>2024-12-30T12:39:30.073Z</time>
      </trkpt>
      <trkpt lat="48.24435" lon="5.13252">
        <ele>230.03</ele>
        <time>2024-12-30T12:39:30.208Z</time>
      </trkpt>
      <trkpt lat="48.24464" lon="5.13252">
        <ele>230.38</ele>
        <time>2024-12-30T12:39:30.348Z</time>
      </trkpt>
      <trkpt lat="48.24493" lon="5.13253">
        <ele>230.81</ele>
        <time>2024-12-30T12:39:30.492Z</time>
      </trkpt>
      <trkpt lat="48.24522" lon="5.13254">
        <ele>231.3</ele>
        <time>2024-12-30T12:39:30.641Z</time>
      </trkpt>
      <trkpt lat="48.24552" lon="5.13255">
        <ele>231.88</ele>
        <time>2024-12-30T12:39:30.795Z</time>
      </trkpt>
      <trkpt lat="48.24579" lon="5.13248">
        <ele>232.48</ele>
        <time>2024-12-30T12:39:30.953Z</time>
      </trkpt>
      <trkpt lat="48.24606" lon="5.13242">
        <ele>233.05</ele>
        <time>2024-12-30T12:39:31.115Z</time>
      </trkpt>
      <trkpt lat="48.24632" lon="5.13235">
        <ele>233.62</ele>
        <time>2024-12-30T12:39:31.282Z</time>
      </trkpt>
      <trkpt lat="48.24659" lon="5.13229">
        <ele>234.32</ele>
        <time>2024-12-30T12:39:31.453Z</time>
      </trkpt>
      <trkpt lat="48.24686" lon="5.13222">
        <ele>234.92</ele>
        <time>2024-12-30T12:39:31.628Z</time>
      </trkpt>
      <trkpt lat="48.24713" lon="5.13216">
        <ele>235.5</ele>
        <time>2024-12-30T12:39:31.808Z</time>
      </trkpt>
      <trkpt lat="48.2474" lon="5.1321">
        <ele>236.03</ele>
        <time>2024-12-30T12:39:31.992Z</time>
      </trkpt>
      <trkpt lat="48.2477" lon="5.13206">
        <ele>236.43</ele>
        <time>2024-12-30T12:39:32.181Z</time>
      </trkpt>
      <trkpt lat="48.248" lon="5.13203">
        <ele>236.92</ele>
        <time>2024-12-30T12:39:32.375Z</time>
      </trkpt>
      <trkpt lat="48.24829" lon="5.132">
        <ele>237.4</ele>
        <time>2024-12-30T12:39:32.573Z</time>
      </trkpt>
      <trkpt lat="48.24859" lon="5.13197">
        <ele>237.89</ele>
        <time>2024-12-30T12:39:32.776Z</time>
      </trkpt>
      <trkpt lat="48.24889" lon="5.13193">
        <ele>238.04</ele>
        <time>2024-12-30T12:39:32.984Z</time>
      </trkpt>
      <trkpt lat="48.24919" lon="5.1319">
        <ele>237.96</ele>
        <time>2024-12-30T12:39:33.197Z</time>
      </trkpt>
      <trkpt lat="48.24936" lon="5.1319">
        <ele>237.85</ele>
        <time>2024-12-30T12:39:33.413Z</time>
      </trkpt>
      <trkpt lat="48.24953" lon="5.1319">
        <ele>237.64</ele>
        <time>2024-12-30T12:39:33.631Z</time>
      </trkpt>
      <trkpt lat="48.24974" lon="5.13201">
        <ele>237.42</ele>
        <time>2024-12-30T12:39:33.853Z</time>
      </trkpt>
      <trkpt lat="48.24996" lon="5.13212">
        <ele>237.2</ele>
        <time>2024-12-30T12:39:34.079Z</time>
      </trkpt>
      <trkpt lat="48.25022" lon="5.13231">
        <ele>236.88</ele>
        <time>2024-12-30T12:39:34.309Z</time>
      </trkpt>
      <trkpt lat="48.25048" lon="5.13251">
        <ele>236.52</ele>
        <time>2024-12-30T12:39:34.544Z</time>
      </trkpt>
      <trkpt lat="48.25075" lon="5.1327">
        <ele>236.1</ele>
        <time>2024-12-30T12:39:34.784Z</time>
      </trkpt>
      <trkpt lat="48.25101" lon="5.1329">
        <ele>235.72</ele>
        <time>2024-12-30T12:39:35.028Z</time>
      </trkpt>
      <trkpt lat="48.25127" lon="5.13309">
        <ele>235.46</ele>
        <time>2024-12-30T12:39:35.277Z</time>
      </trkpt>
      <trkpt lat="48.25154" lon="5.13329">
        <ele>235.19</ele>
        <time>2024-12-30T12:39:35.531Z</time>
      </trkpt>
      <trkpt lat="48.2518" lon="5.13348">
        <ele>234.93</ele>
        <time>2024-12-30T12:39:35.789Z</time>
      </trkpt>
      <trkpt lat="48.25206" lon="5.13368">
        <ele>234.61</ele>
        <time>2024-12-30T12:39:36.052Z</time>
      </trkpt>
      <trkpt lat="48.25232" lon="5.13387">
        <ele>234.28</ele>
        <time>2024-12-30T12:39:36.320Z</time>
      </trkpt>
      <trkpt lat="48.25259" lon="5.13407">
        <ele>234.02</ele>
        <time>2024-12-30T12:39:36.593Z</time>
      </trkpt>
      <trkpt lat="48.25285" lon="5.13426">
        <ele>233.86</ele>
        <time>2024-12-30T12:39:36.870Z</time>
      </trkpt>
      <trkpt lat="48.25311" lon="5.13446">
        <ele>233.76</ele>
        <time>2024-12-30T12:39:37.152Z</time>
      </trkpt>
      <trkpt lat="48.25331" lon="5.13462">
        <ele>233.69</ele>
        <time>2024-12-30T12:39:37.437Z</time>
      </trkpt>
      <trkpt lat="48.2535" lon="5.13478">
        <ele>233.62</ele>
        <time>2024-12-30T12:39:37.726Z</time>
      </trkpt>
      <trkpt lat="48.25369" lon="5.13499">
        <ele>233.46</ele>
        <time>2024-12-30T12:39:38.019Z</time>
      </trkpt>
      <trkpt lat="48.25378" lon="5.13516">
        <ele>233.31</ele>
        <time>2024-12-30T12:39:38.314Z</time>
      </trkpt>
      <trkpt lat="48.25392" lon="5.13555">
        <ele>233.26</ele>
        <time>2024-12-30T12:39:38.614Z</time>
      </trkpt>
      <trkpt lat="48.25406" lon="5.13594">
        <ele>233.31</ele>
        <time>2024-12-30T12:39:38.919Z</time>
      </trkpt>
      <trkpt lat="48.2542" lon="5.13633">
        <ele>233.31</ele>
        <time>2024-12-30T12:39:39.228Z</time>
      </trkpt>
      <trkpt lat="48.25434" lon="5.13671">
        <ele>233.17</ele>
        <time>2024-12-30T12:39:39.542Z</time>
      </trkpt>
      <trkpt lat="48.25446" lon="5.13703">
        <ele>232.96</ele>
        <time>2024-12-30T12:39:39.860Z</time>
      </trkpt>
      <trkpt lat="48.25466" lon="5.13727">
        <ele>232.76</ele>
        <time>2024-12-30T12:39:40.182Z</time>
      </trkpt>
      <trkpt lat="48.25484" lon="5.13748">
        <ele>232.62</ele>
        <time>2024-12-30T12:39:40.508Z</time>
      </trkpt>
      <trkpt lat="48.25503" lon="5.1377">
        <ele>232.54</ele>
        <time>2024-12-30T12:39:40.837Z</time>
      </trkpt>
      <trkpt lat="48.25521" lon="5.13791">
        <ele>232.5</ele>
        <time>2024-12-30T12:39:41.170Z</time>
      </trkpt>
      <trkpt lat="48.25538" lon="5.13821">
        <ele>232.68</ele>
        <time>2024-12-30T12:39:41.507Z</time>
      </trkpt>
      <trkpt lat="48.25554" lon="5.13851">
        <ele>232.95</ele>
        <time>2024-12-30T12:39:41.849Z</time>
      </trkpt>
      <trkpt lat="48.25571" lon="5.13881">
        <ele>233.08</ele>
        <time>2024-12-30T12:39:42.195Z</time>
      </trkpt>
      <trkpt lat="48.25592" lon="5.13916">
        <ele>233.21</ele>
        <time>2024-12-30T12:39:42.546Z</time>
      </trkpt>
      <trkpt lat="48.25614" lon="5.1395">
        <ele>233.37</ele>
        <time>2024-12-30T12:39:42.902Z</time>
      </trkpt>
      <trkpt lat="48.25635" lon="5.13984">
        <ele>233.48</ele>
        <time>2024-12-30T12:39:43.263Z</time>
      </trkpt>
      <trkpt lat="48.25653" lon="5.14009">
        <ele>233.72</ele>
        <time>2024-12-30T12:39:43.628Z</time>
      </trkpt>
      <trkpt lat="48.25672" lon="5.14034">
        <ele>233.96</ele>
        <time>2024-12-30T12:39:43.997Z</time>
      </trkpt>
      <trkpt lat="48.25699" lon="5.14054">
        <ele>234.17</ele>
        <time>2024-12-30T12:39:44.371Z</time>
      </trkpt>
      <trkpt lat="48.25727" lon="5.14074">
        <ele>234.49</ele>
        <time>2024-12-30T12:39:44.749Z</time>
      </trkpt>
      <trkpt lat="48.25754" lon="5.14094">
        <ele>234.75</ele>
        <time>2024-12-30T12:39:45.132Z</time>
      </trkpt>
      <trkpt lat="48.25782" lon="5.14114">
        <ele>234.9</ele>
        <time>2024-12-30T12:39:45.520Z</time>
      </trkpt>
      <trkpt lat="48.25809" lon="5.14134">
        <ele>235.17</ele>
        <time>2024-12-30T12:39:45.913Z</time>
      </trkpt>
      <trkpt lat="48.25837" lon="5.14154">
        <ele>235.55</ele>
        <time>2024-12-30T12:39:46.311Z</time>
      </trkpt>
      <trkpt lat="48.25867" lon="5.14167">
        <ele>235.79</ele>
        <time>2024-12-30T12:39:46.714Z</time>
      </trkpt>
      <trkpt lat="48.25897" lon="5.14181">
        <ele>236.1</ele>
        <time>2024-12-30T12:39:47.122Z</time>
      </trkpt>
      <trkpt lat="48.25927" lon="5.14194">
        <ele>236.41</ele>
        <time>2024-12-30T12:39:47.535Z</time>
      </trkpt>
      <trkpt lat="48.25957" lon="5.14208">
        <ele>236.72</ele>
        <time>2024-12-30T12:39:47.953Z</time>
      </trkpt>
      <trkpt lat="48.25987" lon="5.14221">
        <ele>237.14</ele>
        <time>2024-12-30T12:39:48.376Z</time>
      </trkpt>
      <trkpt lat="48.26017" lon="5.14235">
        <ele>237.46</ele>
        <time>2024-12-30T12:39:48.804Z</time>
      </trkpt>
      <trkpt lat="48.26047" lon="5.14248">
        <ele>237.83</ele>
        <time>2024-12-30T12:39:49.237Z</time>
      </trkpt>
      <trkpt lat="48.26068" lon="5.14253">
        <ele>238.21</ele>
        <time>2024-12-30T12:39:49.673Z</time>
      </trkpt>
      <trkpt lat="48.26088" lon="5.14259">
        <ele>238.71</ele>
        <time>2024-12-30T12:39:50.113Z</time>
      </trkpt>
      <trkpt lat="48.26088" lon="5.14259">
        <ele>239.14</ele>
        <time>2024-12-30T12:39:50.553Z</time>
      </trkpt>
      <trkpt lat="48.26114" lon="5.14251">
        <ele>239.65</ele>
        <time>2024-12-30T12:39:50.997Z</time>
      </trkpt>
      <trkpt lat="48.2614" lon="5.14244">
        <ele>240.25</ele>
        <time>2024-12-30T12:39:51.445Z</time>
      </trkpt>
      <trkpt lat="48.26166" lon="5.14236">
        <ele>240.8</ele>
        <time>2024-12-30T12:39:51.898Z</time>
      </trkpt>
      <trkpt lat="48.26192" lon="5.14229">
        <ele>241.22</ele>
        <time>2024-12-30T12:39:52.355Z</time>
      </trkpt>
      <trkpt lat="48.26218" lon="5.14221">
        <ele>241.6</ele>
        <time>2024-12-30T12:39:52.816Z</time>
      </trkpt>
      <trkpt lat="48.26245" lon="5.14214">
        <ele>241.8</ele>
        <time>2024-12-30T12:39:53.281Z</time>
      </trkpt>
      <trkpt lat="48.26275" lon="5.14208">
        <ele>242.11</ele>
        <time>2024-12-30T12:39:53.751Z</time>
      </trkpt>
      <trkpt lat="48.26305" lon="5.14202">
        <ele>242.28</ele>
        <time>2024-12-30T12:39:54.226Z</time>
      </trkpt>
      <trkpt lat="48.26335" lon="5.14195">
        <ele>242.58</ele>
        <time>2024-12-30T12:39:54.706Z</time>
      </trkpt>
      <trkpt lat="48.26365" lon="5.14189">
        <ele>242.8</ele>
        <time>2024-12-30T12:39:55.191Z</time>
      </trkpt>
      <trkpt lat="48.26395" lon="5.14183">
        <ele>243.05</ele>
        <time>2024-12-30T12:39:55.681Z</time>
      </trkpt>
      <trkpt lat="48.26425" lon="5.14177">
        <ele>243.17</ele>
        <time>2024-12-30T12:39:56.175Z</time>
      </trkpt>
      <trkpt lat="48.26455" lon="5.14171">
        <ele>243.14</ele>
        <time>2024-12-30T12:39:56.674Z</time>
      </trkpt>
      <trkpt lat="48.26484" lon="5.14162">
        <ele>242.88</ele>
        <time>2024-12-30T12:39:57.178Z</time>
      </trkpt>
      <trkpt lat="48.26513" lon="5.14153">
        <ele>242.65</ele>
        <time>2024-12-30T12:39:57.687Z</time>
      </trkpt>
      <trkpt lat="48.26542" lon="5.14144">
        <ele>242.45</ele>
        <time>2024-12-30T12:39:58.201Z</time>
      </trkpt>
      <trkpt lat="48.26571" lon="5.14134">
        <ele>242.24</ele>
        <time>2024-12-30T12:39:58.719Z</time>
      </trkpt>
      <trkpt lat="48.26592" lon="5.14121">
        <ele>241.8</ele>
        <time>2024-12-30T12:39:59.241Z</time>
      </trkpt>
      <trkpt lat="48.26614" lon="5.14107">
        <ele>241.3</ele>
        <time>2024-12-30T12:39:59.767Z</time>
      </trkpt>
      <trkpt lat="48.26635" lon="5.14094">
        <ele>240.74</ele>
        <time>2024-12-30T12:40:00.296Z</time>
      </trkpt>
      <trkpt lat="48.26657" lon="5.14083">
        <ele>240.14</ele>
        <time>2024-12-30T12:40:00.829Z</time>
      </trkpt>
      <trkpt lat="48.26682" lon="5.14079">
        <ele>239.58</ele>
        <time>2024-12-30T12:40:01.366Z</time>
      </trkpt>
      <trkpt lat="48.26708" lon="5.14074">
        <ele>238.98</ele>
        <time>2024-12-30T12:40:01.907Z</time>
      </trkpt>
      <trkpt lat="48.26727" lon="5.14068">
        <ele>238.31</ele>
        <time>2024-12-30T12:40:02.452Z</time>
      </trkpt>
      <trkpt lat="48.26738" lon="5.14057">
        <ele>237.58</ele>
        <time>2024-12-30T12:40:02.999Z</time>
      </trkpt>
      <trkpt lat="48.2674" lon="5.14053">
        <ele>236.84</ele>
        <time>2024-12-30T12:40:03.546Z</time>
      </trkpt>
      <trkpt lat="48.26749" lon="5.14036">
        <ele>236.04</ele>
        <time>2024-12-30T12:40:04.095Z</time>
      </trkpt>
      <trkpt lat="48.26757" lon="5.14014">
        <ele>235.24</ele>
        <time>2024-12-30T12:40:04.647Z</time>
      </trkpt>
      <trkpt lat="48.26766" lon="5.13993">
        <ele>234.4</ele>
        <time>2024-12-30T12:40:05.202Z</time>
      </trkpt>
      <trkpt lat="48.26772" lon="5.13967">
        <ele>233.55</ele>
        <time>2024-12-30T12:40:05.760Z</time>
      </trkpt>
      <trkpt lat="48.26779" lon="5.13941">
        <ele>232.73</ele>
        <time>2024-12-30T12:40:06.321Z</time>
      </trkpt>
      <trkpt lat="48.26792" lon="5.13913">
        <ele>231.89</ele>
        <time>2024-12-30T12:40:06.885Z</time>
      </trkpt>
      <trkpt lat="48.26792" lon="5.1387">
        <ele>231.07</ele>
        <time>2024-12-30T12:40:07.454Z</time>
      </trkpt>
      <trkpt lat="48.26807" lon="5.13863">
        <ele>230.38</ele>
        <time>2024-12-30T12:40:08.025Z</time>
      </trkpt>
      <trkpt lat="48.26822" lon="5.13855">
        <ele>229.73</ele>
        <time>2024-12-30T12:40:08.599Z</time>
      </trkpt>
      <trkpt lat="48.2685" lon="5.13838">
        <ele>229.15</ele>
        <time>2024-12-30T12:40:09.178Z</time>
      </trkpt>
      <trkpt lat="48.26878" lon="5.13821">
        <ele>228.67</ele>
        <time>2024-12-30T12:40:09.762Z</time>
      </trkpt>
      <trkpt lat="48.26905" lon="5.13804">
        <ele>228.26</ele>
        <time>2024-12-30T12:40:10.350Z</time>
      </trkpt>
      <trkpt lat="48.26933" lon="5.13785">
        <ele>227.93</ele>
        <time>2024-12-30T12:40:10.943Z</time>
      </trkpt>
      <trkpt lat="48.26961" lon="5.13765">
        <ele>227.53</ele>
        <time>2024-12-30T12:40:11.541Z</time>
      </trkpt>
      <trkpt lat="48.26986" lon="5.13745">
        <ele>227.14</ele>
        <time>2024-12-30T12:40:12.144Z</time>
      </trkpt>
      <trkpt lat="48.27011" lon="5.13725">
        <ele>227</ele>
        <time>2024-12-30T12:40:12.751Z</time>
      </trkpt>
      <trkpt lat="48.27024" lon="5.13707">
        <ele>226.8</ele>
        <time>2024-12-30T12:40:13.361Z</time>
      </trkpt>
      <trkpt lat="48.27036" lon="5.1369">
        <ele>226.73</ele>
        <time>2024-12-30T12:40:13.974Z</time>
      </trkpt>
      <trkpt lat="48.27055" lon="5.13657">
        <ele>226.68</ele>
        <time>2024-12-30T12:40:14.592Z</time>
      </trkpt>
      <trkpt lat="48.27074" lon="5.13625">
        <ele>226.71</ele>
        <time>2024-12-30T12:40:15.214Z</time>
      </trkpt>
      <trkpt lat="48.27093" lon="5.13592">
        <ele>226.75</ele>
        <time>2024-12-30T12:40:15.841Z</time>
      </trkpt>
      <trkpt lat="48.27113" lon="5.13559">
        <ele>226.78</ele>
        <time>2024-12-30T12:40:16.472Z</time>
      </trkpt>
      <trkpt lat="48.27132" lon="5.13526">
        <ele>226.87</ele>
        <time>2024-12-30T12:40:17.108Z</time>
      </trkpt>
      <trkpt lat="48.27151" lon="5.13493">
        <ele>227.05</ele>
        <time>2024-12-30T12:40:17.749Z</time>
      </trkpt>
      <trkpt lat="48.27169" lon="5.13461">
        <ele>227.3</ele>
        <time>2024-12-30T12:40:18.394Z</time>
      </trkpt>
      <trkpt lat="48.27184" lon="5.13431">
        <ele>227.51</ele>
        <time>2024-12-30T12:40:19.043Z</time>
      </trkpt>
      <trkpt lat="48.272" lon="5.13402">
        <ele>227.75</ele>
        <time>2024-12-30T12:40:19.696Z</time>
      </trkpt>
      <trkpt lat="48.27214" lon="5.13373">
        <ele>228.02</ele>
        <time>2024-12-30T12:40:20.353Z</time>
      </trkpt>
      <trkpt lat="48.27227" lon="5.13341">
        <ele>228.29</ele>
        <time>2024-12-30T12:40:21.014Z</time>
      </trkpt>
      <trkpt lat="48.2724" lon="5.13309">
        <ele>228.57</ele>
        <time>2024-12-30T12:40:21.679Z</time>
      </trkpt>
      <trkpt lat="48.27253" lon="5.13278">
        <ele>228.88</ele>
        <time>2024-12-30T12:40:22.348Z</time>
      </trkpt>
      <trkpt lat="48.27266" lon="5.13246">
        <ele>229.17</ele>
        <time>2024-12-30T12:40:23.021Z</time>
      </trkpt>
      <trkpt lat="48.27285" lon="5.13211">
        <ele>229.64</ele>
        <time>2024-12-30T12:40:23.699Z</time>
      </trkpt>
      <trkpt lat="48.27305" lon="5.13175">
        <ele>230.1</ele>
        <time>2024-12-30T12:40:24.382Z</time>
      </trkpt>
      <trkpt lat="48.27324" lon="5.1314">
        <ele>230.52</ele>
        <time>2024-12-30T12:40:25.070Z</time>
      </trkpt>
      <trkpt lat="48.27343" lon="5.13104">
        <ele>231.16</ele>
        <time>2024-12-30T12:40:25.763Z</time>
      </trkpt>
      <trkpt lat="48.27352" lon="5.1307">
        <ele>231.52</ele>
        <time>2024-12-30T12:40:26.460Z</time>
      </trkpt>
      <trkpt lat="48.2736" lon="5.13036">
        <ele>231.74</ele>
        <time>2024-12-30T12:40:27.160Z</time>
      </trkpt>
      <trkpt lat="48.27363" lon="5.12999">
        <ele>231.95</ele>
        <time>2024-12-30T12:40:27.864Z</time>
      </trkpt>
      <trkpt lat="48.27367" lon="5.1298">
        <ele>232.36</ele>
        <time>2024-12-30T12:40:28.571Z</time>
      </trkpt>
      <trkpt lat="48.27378" lon="5.12948">
        <ele>232.8</ele>
        <time>2024-12-30T12:40:29.281Z</time>
      </trkpt>
      <trkpt lat="48.27395" lon="5.12913">
        <ele>233.26</ele>
        <time>2024-12-30T12:40:29.996Z</time>
      </trkpt>
      <trkpt lat="48.27411" lon="5.1289">
        <ele>233.69</ele>
        <time>2024-12-30T12:40:30.715Z</time>
      </trkpt>
      <trkpt lat="48.27427" lon="5.12866">
        <ele>234.26</ele>
        <time>2024-12-30T12:40:31.437Z</time>
      </trkpt>
      <trkpt lat="48.27446" lon="5.12845">
        <ele>234.76</ele>
        <time>2024-12-30T12:40:32.163Z</time>
      </trkpt>
      <trkpt lat="48.27466" lon="5.12823">
        <ele>235.28</ele>
        <time>2024-12-30T12:40:32.893Z</time>
      </trkpt>
      <trkpt lat="48.27482" lon="5.12815">
        <ele>235.88</ele>
        <time>2024-12-30T12:40:33.626Z</time>
      </trkpt>
      <trkpt lat="48.27498" lon="5.12806">
        <ele>236.44</ele>
        <time>2024-12-30T12:40:34.361Z</time>
      </trkpt>
      <trkpt lat="48.27517" lon="5.12808">
        <ele>237.02</ele>
        <time>2024-12-30T12:40:35.099Z</time>
      </trkpt>
      <trkpt lat="48.27532" lon="5.12817">
        <ele>237.62</ele>
        <time>2024-12-30T12:40:35.840Z</time>
      </trkpt>
      <trkpt lat="48.27556" lon="5.12847">
        <ele>238.37</ele>
        <time>2024-12-30T12:40:36.586Z</time>
      </trkpt>
      <trkpt lat="48.27578" lon="5.1288">
        <ele>239.27</ele>
        <time>2024-12-30T12:40:37.337Z</time>
      </trkpt>
      <trkpt lat="48.27601" lon="5.12913">
        <ele>239.95</ele>
        <time>2024-12-30T12:40:38.093Z</time>
      </trkpt>
      <trkpt lat="48.27623" lon="5.12946">
        <ele>240.47</ele>
        <time>2024-12-30T12:40:38.854Z</time>
      </trkpt>
      <trkpt lat="48.27646" lon="5.12979">
        <ele>240.9</ele>
        <time>2024-12-30T12:40:39.620Z</time>
      </trkpt>
      <trkpt lat="48.27668" lon="5.13012">
        <ele>241.34</ele>
        <time>2024-12-30T12:40:40.391Z</time>
      </trkpt>
      <trkpt lat="48.27691" lon="5.13044">
        <ele>241.7</ele>
        <time>2024-12-30T12:40:41.167Z</time>
      </trkpt>
      <trkpt lat="48.27707" lon="5.13077">
        <ele>241.91</ele>
        <time>2024-12-30T12:40:41.948Z</time>
      </trkpt>
      <trkpt lat="48.27724" lon="5.13109">
        <ele>242.03</ele>
        <time>2024-12-30T12:40:42.733Z</time>
      </trkpt>
      <trkpt lat="48.27741" lon="5.13142">
        <ele>242.06</ele>
        <time>2024-12-30T12:40:43.522Z</time>
      </trkpt>
      <trkpt lat="48.27757" lon="5.13175">
        <ele>241.98</ele>
        <time>2024-12-30T12:40:44.316Z</time>
      </trkpt>
      <trkpt lat="48.27774" lon="5.13207">
        <ele>241.8</ele>
        <time>2024-12-30T12:40:45.114Z</time>
      </trkpt>
      <trkpt lat="48.2779" lon="5.1324">
        <ele>241.47</ele>
        <time>2024-12-30T12:40:45.916Z</time>
      </trkpt>
      <trkpt lat="48.27807" lon="5.13272">
        <ele>241.05</ele>
        <time>2024-12-30T12:40:46.723Z</time>
      </trkpt>
      <trkpt lat="48.27822" lon="5.1331">
        <ele>240.73</ele>
        <time>2024-12-30T12:40:47.535Z</time>
      </trkpt>
      <trkpt lat="48.27838" lon="5.13348">
        <ele>240.15</ele>
        <time>2024-12-30T12:40:48.351Z</time>
      </trkpt>
      <trkpt lat="48.27853" lon="5.13386">
        <ele>239.44</ele>
        <time>2024-12-30T12:40:49.172Z</time>
      </trkpt>
      <trkpt lat="48.27869" lon="5.13424">
        <ele>238.61</ele>
        <time>2024-12-30T12:40:49.998Z</time>
      </trkpt>
      <trkpt lat="48.27882" lon="5.13461">
        <ele>237.77</ele>
        <time>2024-12-30T12:40:50.828Z</time>
      </trkpt>
      <trkpt lat="48.27895" lon="5.13498">
        <ele>236.94</ele>
        <time>2024-12-30T12:40:51.663Z</time>
      </trkpt>
      <trkpt lat="48.27908" lon="5.13535">
        <ele>236.03</ele>
        <time>2024-12-30T12:40:52.502Z</time>
      </trkpt>
      <trkpt lat="48.2792" lon="5.13572">
        <ele>234.98</ele>
        <time>2024-12-30T12:40:53.346Z</time>
      </trkpt>
      <trkpt lat="48.27929" lon="5.13616">
        <ele>234.01</ele>
        <time>2024-12-30T12:40:54.195Z</time>
      </trkpt>
      <trkpt lat="48.27938" lon="5.1366">
        <ele>232.8</ele>
        <time>2024-12-30T12:40:55.049Z</time>
      </trkpt>
      <trkpt lat="48.27933" lon="5.13692">
        <ele>231.65</ele>
        <time>2024-12-30T12:40:55.906Z</time>
      </trkpt>
      <trkpt lat="48.27929" lon="5.13723">
        <ele>230.51</ele>
        <time>2024-12-30T12:40:56.766Z</time>
      </trkpt>
      <trkpt lat="48.27925" lon="5.13755">
        <ele>229.47</ele>
        <time>2024-12-30T12:40:57.630Z</time>
      </trkpt>
      <trkpt lat="48.27924" lon="5.13783">
        <ele>228.5</ele>
        <time>2024-12-30T12:40:58.497Z</time>
      </trkpt>
      <trkpt lat="48.27923" lon="5.1381">
        <ele>227.57</ele>
        <time>2024-12-30T12:40:59.367Z</time>
      </trkpt>
      <trkpt lat="48.27925" lon="5.13836">
        <ele>226.7</ele>
        <time>2024-12-30T12:41:00.240Z</time>
      </trkpt>
      <trkpt lat="48.27931" lon="5.13875">
        <ele>225.91</ele>
        <time>2024-12-30T12:41:01.117Z</time>
      </trkpt>
      <trkpt lat="48.27948" lon="5.13911">
        <ele>225.23</ele>
        <time>2024-12-30T12:41:01.999Z</time>
      </trkpt>
      <trkpt lat="48.27966" lon="5.13948">
        <ele>224.73</ele>
        <time>2024-12-30T12:41:02.885Z</time>
      </trkpt>
      <trkpt lat="48.27986" lon="5.13979">
        <ele>224.24</ele>
        <time>2024-12-30T12:41:03.776Z</time>
      </trkpt>
      <trkpt lat="48.28007" lon="5.1401">
        <ele>223.75</ele>
        <time>2024-12-30T12:41:04.672Z</time>
      </trkpt>
      <trkpt lat="48.28028" lon="5.14041">
        <ele>223.37</ele>
        <time>2024-12-30T12:41:05.573Z</time>
      </trkpt>
      <trkpt lat="48.28049" lon="5.14072">
        <ele>223.14</ele>
        <time>2024-12-30T12:41:06.478Z</time>
      </trkpt>
      <trkpt lat="48.28066" lon="5.14102">
        <ele>222.99</ele>
        <time>2024-12-30T12:41:07.387Z</time>
      </trkpt>
      <trkpt lat="48.28081" lon="5.14141">
        <ele>222.88</ele>
        <time>2024-12-30T12:41:08.301Z</time>
      </trkpt>
      <trkpt lat="48.2809" lon="5.14174">
        <ele>222.83</ele>
        <time>2024-12-30T12:41:09.219Z</time>
      </trkpt>
      <trkpt lat="48.28099" lon="5.14207">
        <ele>222.9</ele>
        <time>2024-12-30T12:41:10.141Z</time>
      </trkpt>
      <trkpt lat="48.28115" lon="5.14243">
        <ele>223.06</ele>
        <time>2024-12-30T12:41:11.068Z</time>
      </trkpt>
      <trkpt lat="48.28132" lon="5.14278">
        <ele>223.27</ele>
        <time>2024-12-30T12:41:11.999Z</time>
      </trkpt>
      <trkpt lat="48.28149" lon="5.14313">
        <ele>223.59</ele>
        <time>2024-12-30T12:41:12.935Z</time>
      </trkpt>
      <trkpt lat="48.28166" lon="5.14348">
        <ele>223.96</ele>
        <time>2024-12-30T12:41:13.875Z</time>
      </trkpt>
      <trkpt lat="48.28183" lon="5.14383">
        <ele>224.37</ele>
        <time>2024-12-30T12:41:14.820Z</time>
      </trkpt>
      <trkpt lat="48.282" lon="5.14419">
        <ele>224.76</ele>
        <time>2024-12-30T12:41:15.770Z</time>
      </trkpt>
      <trkpt lat="48.28217" lon="5.14454">
        <ele>225.19</ele>
        <time>2024-12-30T12:41:16.724Z</time>
      </trkpt>
      <trkpt lat="48.28234" lon="5.14488">
        <ele>225.63</ele>
        <time>2024-12-30T12:41:17.683Z</time>
      </trkpt>
      <trkpt lat="48.28245" lon="5.14524">
        <ele>226.19</ele>
        <time>2024-12-30T12:41:18.646Z</time>
      </trkpt>
      <trkpt lat="48.28257" lon="5.14559">
        <ele>226.91</ele>
        <time>2024-12-30T12:41:19.613Z</time>
      </trkpt>
      <trkpt lat="48.28268" lon="5.14594">
        <ele>227.75</ele>
        <time>2024-12-30T12:41:20.584Z</time>
      </trkpt>
      <trkpt lat="48.28277" lon="5.14602">
        <ele>228.42</ele>
        <time>2024-12-30T12:41:21.557Z</time>
      </trkpt>
      <trkpt lat="48.28277" lon="5.14602">
        <ele>229.15</ele>
        <time>2024-12-30T12:41:22.530Z</time>
      </trkpt>
      <trkpt lat="48.28294" lon="5.14641">
        <ele>229.96</ele>
        <time>2024-12-30T12:41:23.508Z</time>
      </trkpt>
      <trkpt lat="48.28311" lon="5.1468">
        <ele>230.75</ele>
        <time>2024-12-30T12:41:24.491Z</time>
      </trkpt>
      <trkpt lat="48.28328" lon="5.1472">
        <ele>231.57</ele>
        <time>2024-12-30T12:41:25.479Z</time>
      </trkpt>
      <trkpt lat="48.28345" lon="5.14759">
        <ele>232.49</ele>
        <time>2024-12-30T12:41:26.472Z</time>
      </trkpt>
      <trkpt lat="48.28362" lon="5.14797">
        <ele>233.33</ele>
        <time>2024-12-30T12:41:27.470Z</time>
      </trkpt>
      <trkpt lat="48.28381" lon="5.14833">
        <ele>234</ele>
        <time>2024-12-30T12:41:28.473Z</time>
      </trkpt>
      <trkpt lat="48.28399" lon="5.14868">
        <ele>234.69</ele>
        <time>2024-12-30T12:41:29.481Z</time>
      </trkpt>
      <trkpt lat="48.28417" lon="5.14903">
        <ele>235.34</ele>
        <time>2024-12-30T12:41:30.493Z</time>
      </trkpt>
      <trkpt lat="48.28435" lon="5.14939">
        <ele>236.05</ele>
        <time>2024-12-30T12:41:31.510Z</time>
      </trkpt>
      <trkpt lat="48.28453" lon="5.14974">
        <ele>236.73</ele>
        <time>2024-12-30T12:41:32.532Z</time>
      </trkpt>
      <trkpt lat="48.28471" lon="5.15009">
        <ele>237.43</ele>
        <time>2024-12-30T12:41:33.559Z</time>
      </trkpt>
      <trkpt lat="48.28489" lon="5.15044">
        <ele>238.22</ele>
        <time>2024-12-30T12:41:34.590Z</time>
      </trkpt>
      <trkpt lat="48.28505" lon="5.15071">
        <ele>238.86</ele>
        <time>2024-12-30T12:41:35.625Z</time>
      </trkpt>
      <trkpt lat="48.28521" lon="5.15097">
        <ele>239.49</ele>
        <time>2024-12-30T12:41:36.664Z</time>
      </trkpt>
      <trkpt lat="48.28536" lon="5.15124">
        <ele>239.91</ele>
        <time>2024-12-30T12:41:37.707Z</time>
      </trkpt>
      <trkpt lat="48.28556" lon="5.15149">
        <ele>240.12</ele>
        <time>2024-12-30T12:41:38.754Z</time>
      </trkpt>
      <trkpt lat="48.28576" lon="5.15175">
        <ele>240.22</ele>
        <time>2024-12-30T12:41:39.805Z</time>
      </trkpt>
      <trkpt lat="48.28596" lon="5.15201">
        <ele>240.22</ele>
        <time>2024-12-30T12:41:40.860Z</time>
      </trkpt>
      <trkpt lat="48.28618" lon="5.15226">
        <ele>240.31</ele>
        <time>2024-12-30T12:41:41.920Z</time>
      </trkpt>
      <trkpt lat="48.2864" lon="5.15251">
        <ele>240.42</ele>
        <time>2024-12-30T12:41:42.984Z</time>
      </trkpt>
      <trkpt lat="48.28662" lon="5.15277">
        <ele>240.43</ele>
        <time>2024-12-30T12:41:44.053Z</time>
      </trkpt>
      <trkpt lat="48.28684" lon="5.15302">
        <ele>240.45</ele>
        <time>2024-12-30T12:41:45.126Z</time>
      </trkpt>
      <trkpt lat="48.28687" lon="5.15304">
        <ele>240.34</ele>
        <time>2024-12-30T12:41:46.200Z</time>
      </trkpt>
      <trkpt lat="48.28711" lon="5.15325">
        <ele>239.9</ele>
        <time>2024-12-30T12:41:47.278Z</time>
      </trkpt>
      <trkpt lat="48.28735" lon="5.15345">
        <ele>239.5</ele>
        <time>2024-12-30T12:41:48.360Z</time>
      </trkpt>
      <trkpt lat="48.28759" lon="5.15366">
        <ele>239.17</ele>
        <time>2024-12-30T12:41:49.447Z</time>
      </trkpt>
      <trkpt lat="48.28783" lon="5.15386">
        <ele>238.92</ele>
        <time>2024-12-30T12:41:50.538Z</time>
      </trkpt>
      <trkpt lat="48.28807" lon="5.15407">
        <ele>238.69</ele>
        <time>2024-12-30T12:41:51.634Z</time>
      </trkpt>
      <trkpt lat="48.28831" lon="5.15421">
        <ele>238.21</ele>
        <time>2024-12-30T12:41:52.734Z</time>
      </trkpt>
      <trkpt lat="48.28855" lon="5.15434">
        <ele>237.62</ele>
        <time>2024-12-30T12:41:53.838Z</time>
      </trkpt>
      <trkpt lat="48.28879" lon="5.15448">
        <ele>237.09</ele>
        <time>2024-12-30T12:41:54.946Z</time>
      </trkpt>
      <trkpt lat="48.28903" lon="5.15462">
        <ele>236.4</ele>
        <time>2024-12-30T12:41:56.058Z</time>
      </trkpt>
      <trkpt lat="48.28927" lon="5.15476">
        <ele>235.77</ele>
        <time>2024-12-30T12:41:57.174Z</time>
      </trkpt>
      <trkpt lat="48.28952" lon="5.15482">
        <ele>235.07</ele>
        <time>2024-12-30T12:41:58.294Z</time>
      </trkpt>
      <trkpt lat="48.28977" lon="5.15488">
        <ele>234.38</ele>
        <time>2024-12-30T12:41:59.418Z</time>
      </trkpt>
      <trkpt lat="48.29002" lon="5.15495">
        <ele>233.56</ele>
        <time>2024-12-30T12:42:00.547Z</time>
      </trkpt>
      <trkpt lat="48.29028" lon="5.15501">
        <ele>232.67</ele>
        <time>2024-12-30T12:42:01.680Z</time>
      </trkpt>
      <trkpt lat="48.29053" lon="5.15505">
        <ele>231.78</ele>
        <time>2024-12-30T12:42:02.817Z</time>
      </trkpt>
      <trkpt lat="48.29079" lon="5.15509">
        <ele>230.88</ele>
        <time>2024-12-30T12:42:03.958Z</time>
      </trkpt>
      <trkpt lat="48.29105" lon="5.15513">
        <ele>230.06</ele>
        <time>2024-12-30T12:42:05.103Z</time>
      </trkpt>
      <trkpt lat="48.29131" lon="5.15516">
        <ele>229.29</ele>
        <time>2024-12-30T12:42:06.252Z</time>
      </trkpt>
      <trkpt lat="48.29159" lon="5.15519">
        <ele>228.47</ele>
        <time>2024-12-30T12:42:07.406Z</time>
      </trkpt>
      <trkpt lat="48.29188" lon="5.15521">
        <ele>227.76</ele>
        <time>2024-12-30T12:42:08.564Z</time>
      </trkpt>
      <trkpt lat="48.29217" lon="5.15524">
        <ele>227.02</ele>
        <time>2024-12-30T12:42:09.727Z</time>
      </trkpt>
      <trkpt lat="48.29246" lon="5.15527">
        <ele>226.29</ele>
        <time>2024-12-30T12:42:10.895Z</time>
      </trkpt>
      <trkpt lat="48.29274" lon="5.15529">
        <ele>225.65</ele>
        <time>2024-12-30T12:42:12.067Z</time>
      </trkpt>
      <trkpt lat="48.29283" lon="5.15527">
        <ele>225.05</ele>
        <time>2024-12-30T12:42:13.241Z</time>
      </trkpt>
      <trkpt lat="48.29292" lon="5.15518">
        <ele>224.47</ele>
        <time>2024-12-30T12:42:14.416Z</time>
      </trkpt>
      <trkpt lat="48.29294" lon="5.15512">
        <ele>223.97</ele>
        <time>2024-12-30T12:42:15.592Z</time>
      </trkpt>
      <trkpt lat="48.29294" lon="5.15488">
        <ele>223.46</ele>
        <time>2024-12-30T12:42:16.771Z</time>
      </trkpt>
      <trkpt lat="48.29281" lon="5.15448">
        <ele>223.08</ele>
        <time>2024-12-30T12:42:17.954Z</time>
      </trkpt>
      <trkpt lat="48.29279" lon="5.15435">
        <ele>222.84</ele>
        <time>2024-12-30T12:42:19.139Z</time>
      </trkpt>
      <trkpt lat="48.29272" lon="5.15405">
        <ele>222.71</ele>
        <time>2024-12-30T12:42:20.327Z</time>
      </trkpt>
      <trkpt lat="48.2927" lon="5.15398">
        <ele>222.62</ele>
        <time>2024-12-30T12:42:21.516Z</time>
      </trkpt>
      <trkpt lat="48.2927" lon="5.15394">
        <ele>222.6</ele>
        <time>2024-12-30T12:42:22.705Z</time>
      </trkpt>
      <trkpt lat="48.29264" lon="5.1536">
        <ele>222.64</ele>
        <time>2024-12-30T12:42:23.898Z</time>
      </trkpt>
      <trkpt lat="48.29257" lon="5.15325">
        <ele>222.77</ele>
        <time>2024-12-30T12:42:25.095Z</time>
      </trkpt>
      <trkpt lat="48.29251" lon="5.15297">
        <ele>222.99</ele>
        <time>2024-12-30T12:42:26.295Z</time>
      </trkpt>
      <trkpt lat="48.29244" lon="5.1527">
        <ele>223.3</ele>
        <time>2024-12-30T12:42:27.498Z</time>
      </trkpt>
      <trkpt lat="48.2924" lon="5.15246">
        <ele>223.66</ele>
        <time>2024-12-30T12:42:28.704Z</time>
      </trkpt>
      <trkpt lat="48.2924" lon="5.15218">
        <ele>224.12</ele>
        <time>2024-12-30T12:42:29.913Z</time>
      </trkpt>
      <trkpt lat="48.2924" lon="5.15205">
        <ele>224.56</ele>
        <time>2024-12-30T12:42:31.123Z</time>
      </trkpt>
      <trkpt lat="48.29243" lon="5.15178">
        <ele>225.07</ele>
        <time>2024-12-30T12:42:32.336Z</time>
      </trkpt>
      <trkpt lat="48.29247" lon="5.15152">
        <ele>225.65</ele>
        <time>2024-12-30T12:42:33.552Z</time>
      </trkpt>
      <trkpt lat="48.29251" lon="5.15147">
        <ele>226.15</ele>
        <time>2024-12-30T12:42:34.769Z</time>
      </trkpt>
      <trkpt lat="48.29229" lon="5.15138">
        <ele>226.7</ele>
        <time>2024-12-30T12:42:35.990Z</time>
      </trkpt>
      <trkpt lat="48.29208" lon="5.15128">
        <ele>227.25</ele>
        <time>2024-12-30T12:42:37.214Z</time>
      </trkpt>
      <trkpt lat="48.29206" lon="5.15111">
        <ele>227.82</ele>
        <time>2024-12-30T12:42:38.440Z</time>
      </trkpt>
      <trkpt lat="48.29195" lon="5.151">
        <ele>228.34</ele>
        <time>2024-12-30T12:42:39.668Z</time>
      </trkpt>
      <trkpt lat="48.29186" lon="5.15085">
        <ele>228.88</ele>
        <time>2024-12-30T12:42:40.898Z</time>
      </trkpt>
      <trkpt lat="48.29186" lon="5.15085">
        <ele>229.32</ele>
        <time>2024-12-30T12:42:42.128Z</time>
      </trkpt>
      <trkpt lat="48.29195" lon="5.151">
        <ele>228.34</ele>
        <time>2024-12-30T12:42:43.360Z</time>
      </trkpt>
      <trkpt lat="48.29206" lon="5.15111">
        <ele>227.82</ele>
        <time>2024-12-30T12:42:44.594Z</time>
      </trkpt>
      <trkpt lat="48.29208" lon="5.15128">
        <ele>227.25</ele>
        <time>2024-12-30T12:42:45.830Z</time>
      </trkpt>
      <trkpt lat="48.29229" lon="5.15138">
        <ele>230.54</ele>
        <time>2024-12-30T12:42:47.070Z</time>
      </trkpt>
      <trkpt lat="48.29251" lon="5.15147">
        <ele>230.79</ele>
        <time>2024-12-30T12:42:48.313Z</time>
      </trkpt>
      <trkpt lat="48.29282" lon="5.15149">
        <ele>231.05</ele>
        <time>2024-12-30T12:42:49.561Z</time>
      </trkpt>
      <trkpt lat="48.29313" lon="5.15152">
        <ele>231.31</ele>
        <time>2024-12-30T12:42:50.814Z</time>
      </trkpt>
      <trkpt lat="48.29344" lon="5.15148">
        <ele>231.61</ele>
        <time>2024-12-30T12:42:52.072Z</time>
      </trkpt>
      <trkpt lat="48.29375" lon="5.15144">
        <ele>231.81</ele>
        <time>2024-12-30T12:42:53.335Z</time>
      </trkpt>
      <trkpt lat="48.29405" lon="5.15141">
        <ele>231.92</ele>
        <time>2024-12-30T12:42:54.603Z</time>
      </trkpt>
      <trkpt lat="48.29434" lon="5.15139">
        <ele>232.02</ele>
        <time>2024-12-30T12:42:55.876Z</time>
      </trkpt>
      <trkpt lat="48.29463" lon="5.15136">
        <ele>232.09</ele>
        <time>2024-12-30T12:42:57.153Z</time>
      </trkpt>
      <trkpt lat="48.29491" lon="5.15134">
        <ele>232.18</ele>
        <time>2024-12-30T12:42:58.435Z</time>
      </trkpt>
      <trkpt lat="48.29504" lon="5.1513">
        <ele>232.26</ele>
        <time>2024-12-30T12:42:59.719Z</time>
      </trkpt>
      <trkpt lat="48.29517" lon="5.15117">
        <ele>232.34</ele>
        <time>2024-12-30T12:43:01.006Z</time>
      </trkpt>
      <trkpt lat="48.29528" lon="5.15096">
        <ele>232.39</ele>
        <time>2024-12-30T12:43:02.295Z</time>
      </trkpt>
      <trkpt lat="48.2953" lon="5.15076">
        <ele>232.36</ele>
        <time>2024-12-30T12:43:03.587Z</time>
      </trkpt>
      <trkpt lat="48.2953" lon="5.15049">
        <ele>232.31</ele>
        <time>2024-12-30T12:43:04.882Z</time>
      </trkpt>
      <trkpt lat="48.29523" lon="5.15016">
        <ele>232.28</ele>
        <time>2024-12-30T12:43:06.180Z</time>
      </trkpt>
      <trkpt lat="48.29519" lon="5.14987">
        <ele>232.21</ele>
        <time>2024-12-30T12:43:07.481Z</time>
      </trkpt>
      <trkpt lat="48.29515" lon="5.14958">
        <ele>232.06</ele>
        <time>2024-12-30T12:43:08.785Z</time>
      </trkpt>
      <trkpt lat="48.2951" lon="5.14929">
        <ele>231.88</ele>
        <time>2024-12-30T12:43:10.093Z</time>
      </trkpt>
      <trkpt lat="48.29506" lon="5.149">
        <ele>231.65</ele>
        <time>2024-12-30T12:43:11.404Z</time>
      </trkpt>
      <trkpt lat="48.29508" lon="5.14881">
        <ele>231.4</ele>
        <time>2024-12-30T12:43:12.717Z</time>
      </trkpt>
      <trkpt lat="48.29517" lon="5.14858">
        <ele>231.1</ele>
        <time>2024-12-30T12:43:14.033Z</time>
      </trkpt>
      <trkpt lat="48.29538" lon="5.1483">
        <ele>230.72</ele>
        <time>2024-12-30T12:43:15.353Z</time>
      </trkpt>
      <trkpt lat="48.2956" lon="5.14802">
        <ele>230.27</ele>
        <time>2024-12-30T12:43:16.678Z</time>
      </trkpt>
      <trkpt lat="48.29575" lon="5.14794">
        <ele>229.83</ele>
        <time>2024-12-30T12:43:18.005Z</time>
      </trkpt>
      <trkpt lat="48.2959" lon="5.14787">
        <ele>229.39</ele>
        <time>2024-12-30T12:43:19.335Z</time>
      </trkpt>
      <trkpt lat="48.29601" lon="5.14782">
        <ele>228.93</ele>
        <time>2024-12-30T12:43:20.667Z</time>
      </trkpt>
      <trkpt lat="48.29631" lon="5.14778">
        <ele>228.4</ele>
        <time>2024-12-30T12:43:22.004Z</time>
      </trkpt>
      <trkpt lat="48.29662" lon="5.14774">
        <ele>227.85</ele>
        <time>2024-12-30T12:43:23.346Z</time>
      </trkpt>
      <trkpt lat="48.29692" lon="5.1477">
        <ele>227.28</ele>
        <time>2024-12-30T12:43:24.692Z</time>
      </trkpt>
      <trkpt lat="48.29723" lon="5.14765">
        <ele>226.68</ele>
        <time>2024-12-30T12:43:26.043Z</time>
      </trkpt>
      <trkpt lat="48.2974" lon="5.14767">
        <ele>226.16</ele>
        <time>2024-12-30T12:43:27.397Z</time>
      </trkpt>
      <trkpt lat="48.29765" lon="5.14779">
        <ele>225.66</ele>
        <time>2024-12-30T12:43:28.755Z</time>
      </trkpt>
      <trkpt lat="48.2979" lon="5.1479">
        <ele>225.13</ele>
        <time>2024-12-30T12:43:30.118Z</time>
      </trkpt>
      <trkpt lat="48.29815" lon="5.14802">
        <ele>224.6</ele>
        <time>2024-12-30T12:43:31.485Z</time>
      </trkpt>
      <trkpt lat="48.29831" lon="5.14811">
        <ele>224.08</ele>
        <time>2024-12-30T12:43:32.854Z</time>
      </trkpt>
      <trkpt lat="48.29847" lon="5.14821">
        <ele>223.61</ele>
        <time>2024-12-30T12:43:34.226Z</time>
      </trkpt>
      <trkpt lat="48.29867" lon="5.14853">
        <ele>223.14</ele>
        <time>2024-12-30T12:43:35.603Z</time>
      </trkpt>
      <trkpt lat="48.29892" lon="5.14879">
        <ele>222.66</ele>
        <time>2024-12-30T12:43:36.985Z</time>
      </trkpt>
      <trkpt lat="48.29879" lon="5.14907">
        <ele>222.24</ele>
        <time>2024-12-30T12:43:38.370Z</time>
      </trkpt>
      <trkpt lat="48.29867" lon="5.14935">
        <ele>221.84</ele>
        <time>2024-12-30T12:43:39.759Z</time>
      </trkpt>
      <trkpt lat="48.29867" lon="5.14952">
        <ele>221.43</ele>
        <time>2024-12-30T12:43:41.150Z</time>
      </trkpt>
      <trkpt lat="48.29874" lon="5.14984">
        <ele>221.04</ele>
        <time>2024-12-30T12:43:42.545Z</time>
      </trkpt>
      <trkpt lat="48.29882" lon="5.15016">
        <ele>220.7</ele>
        <time>2024-12-30T12:43:43.943Z</time>
      </trkpt>
      <trkpt lat="48.29883" lon="5.15023">
        <ele>220.47</ele>
        <time>2024-12-30T12:43:45.342Z</time>
      </trkpt>
      <trkpt lat="48.29883" lon="5.15023">
        <ele>220.28</ele>
        <time>2024-12-30T12:43:46.741Z</time>
      </trkpt>
      <trkpt lat="48.29882" lon="5.15016">
        <ele>220.7</ele>
        <time>2024-12-30T12:43:48.141Z</time>
      </trkpt>
      <trkpt lat="48.29874" lon="5.14984">
        <ele>220.09</ele>
        <time>2024-12-30T12:43:49.544Z</time>
      </trkpt>
      <trkpt lat="48.29867" lon="5.14952">
        <ele>221.43</ele>
        <time>2024-12-30T12:43:50.951Z</time>
      </trkpt>
      <trkpt lat="48.29867" lon="5.14935">
        <ele>221.84</ele>
        <time>2024-12-30T12:43:52.360Z</time>
      </trkpt>
      <trkpt lat="48.2988" lon="5.14907">
        <ele>220.11</ele>
        <time>2024-12-30T12:43:53.772Z</time>
      </trkpt>
      <trkpt lat="48.29892" lon="5.14879">
        <ele>222.66</ele>
        <time>2024-12-30T12:43:55.188Z</time>
      </trkpt>
      <trkpt lat="48.29904" lon="5.14861">
        <ele>220.11</ele>
        <time>2024-12-30T12:43:56.607Z</time>
      </trkpt>
      <trkpt lat="48.29916" lon="5.14843">
        <ele>220.13</ele>
        <time>2024-12-30T12:43:58.028Z</time>
      </trkpt>
      <trkpt lat="48.29931" lon="5.14814">
        <ele>220.13</ele>
        <time>2024-12-30T12:43:59.453Z</time>
      </trkpt>
      <trkpt lat="48.29946" lon="5.14785">
        <ele>220.13</ele>
        <time>2024-12-30T12:44:00.882Z</time>
      </trkpt>
      <trkpt lat="48.29961" lon="5.14757">
        <ele>220.14</ele>
        <time>2024-12-30T12:44:02.315Z</time>
      </trkpt>
      <trkpt lat="48.29957" lon="5.14744">
        <ele>220.2</ele>
        <time>2024-12-30T12:44:03.750Z</time>
      </trkpt>
      <trkpt lat="48.29954" lon="5.14718">
        <ele>220.25</ele>
        <time>2024-12-30T12:44:05.187Z</time>
      </trkpt>
      <trkpt lat="48.2995" lon="5.14692">
        <ele>220.33</ele>
        <time>2024-12-30T12:44:06.627Z</time>
      </trkpt>
      <trkpt lat="48.29954" lon="5.14651">
        <ele>220.41</ele>
        <time>2024-12-30T12:44:08.072Z</time>
      </trkpt>
      <trkpt lat="48.29957" lon="5.14611">
        <ele>220.43</ele>
        <time>2024-12-30T12:44:09.521Z</time>
      </trkpt>
      <trkpt lat="48.29952" lon="5.1457">
        <ele>220.46</ele>
        <time>2024-12-30T12:44:10.974Z</time>
      </trkpt>
      <trkpt lat="48.29946" lon="5.14544">
        <ele>220.5</ele>
        <time>2024-12-30T12:44:12.430Z</time>
      </trkpt>
      <trkpt lat="48.29946" lon="5.14544">
        <ele>220.49</ele>
        <time>2024-12-30T12:44:13.886Z</time>
      </trkpt>
      <trkpt lat="48.29935" lon="5.14501">
        <ele>220.41</ele>
        <time>2024-12-30T12:44:15.347Z</time>
      </trkpt>
      <trkpt lat="48.2993" lon="5.1447">
        <ele>220.34</ele>
        <time>2024-12-30T12:44:16.812Z</time>
      </trkpt>
      <trkpt lat="48.2993" lon="5.1447">
        <ele>220.29</ele>
        <time>2024-12-30T12:44:18.277Z</time>
      </trkpt>
      <trkpt lat="48.2993" lon="5.1447">
        <ele>220.21</ele>
        <time>2024-12-30T12:44:19.742Z</time>
      </trkpt>
      <trkpt lat="48.29929" lon="5.14461">
        <ele>220.12</ele>
        <time>2024-12-30T12:44:21.208Z</time>
      </trkpt>
      <trkpt lat="48.29959" lon="5.14462">
        <ele>220.01</ele>
        <time>2024-12-30T12:44:22.679Z</time>
      </trkpt>
      <trkpt lat="48.29989" lon="5.14463">
        <ele>219.9</ele>
        <time>2024-12-30T12:44:24.154Z</time>
      </trkpt>
      <trkpt lat="48.30019" lon="5.14465">
        <ele>219.74</ele>
        <time>2024-12-30T12:44:25.634Z</time>
      </trkpt>
      <trkpt lat="48.30039" lon="5.14463">
        <ele>219.57</ele>
        <time>2024-12-30T12:44:27.117Z</time>
      </trkpt>
      <trkpt lat="48.3006" lon="5.14461">
        <ele>219.39</ele>
        <time>2024-12-30T12:44:28.604Z</time>
      </trkpt>
      <trkpt lat="48.30081" lon="5.14446">
        <ele>219.21</ele>
        <time>2024-12-30T12:44:30.095Z</time>
      </trkpt>
      <trkpt lat="48.30084" lon="5.14457">
        <ele>219.06</ele>
        <time>2024-12-30T12:44:31.587Z</time>
      </trkpt>
      <trkpt lat="48.30084" lon="5.14457">
        <ele>218.91</ele>
        <time>2024-12-30T12:44:33.079Z</time>
      </trkpt>
      <trkpt lat="48.30086" lon="5.14465">
        <ele>218.77</ele>
        <time>2024-12-30T12:44:34.572Z</time>
      </trkpt>
      <trkpt lat="48.30081" lon="5.14499">
        <ele>218.63</ele>
        <time>2024-12-30T12:44:36.068Z</time>
      </trkpt>
      <trkpt lat="48.30081" lon="5.14499">
        <ele>218.49</ele>
        <time>2024-12-30T12:44:37.564Z</time>
      </trkpt>
      <trkpt lat="48.30073" lon="5.14534">
        <ele>218.39</ele>
        <time>2024-12-30T12:44:39.064Z</time>
      </trkpt>
      <trkpt lat="48.30065" lon="5.14568">
        <ele>218.23</ele>
        <time>2024-12-30T12:44:40.568Z</time>
      </trkpt>
      <trkpt lat="48.30057" lon="5.14602">
        <ele>218.09</ele>
        <time>2024-12-30T12:44:42.076Z</time>
      </trkpt>
      <trkpt lat="48.30049" lon="5.14637">
        <ele>217.88</ele>
        <time>2024-12-30T12:44:43.588Z</time>
      </trkpt>
      <trkpt lat="48.30036" lon="5.14676">
        <ele>217.79</ele>
        <time>2024-12-30T12:44:45.105Z</time>
      </trkpt>
      <trkpt lat="48.30023" lon="5.14716">
        <ele>217.71</ele>
        <time>2024-12-30T12:44:46.626Z</time>
      </trkpt>
      <trkpt lat="48.30008" lon="5.1475">
        <ele>217.68</ele>
        <time>2024-12-30T12:44:48.152Z</time>
      </trkpt>
      <trkpt lat="48.30023" lon="5.14765">
        <ele>217.57</ele>
        <time>2024-12-30T12:44:49.681Z</time>
      </trkpt>
      <trkpt lat="48.3003" lon="5.14767">
        <ele>217.48</ele>
        <time>2024-12-30T12:44:51.211Z</time>
      </trkpt>
      <trkpt lat="48.30038" lon="5.1477">
        <ele>217.4</ele>
        <time>2024-12-30T12:44:52.742Z</time>
      </trkpt>
      <trkpt lat="48.30047" lon="5.14772">
        <ele>217.32</ele>
        <time>2024-12-30T12:44:54.275Z</time>
      </trkpt>
      <trkpt lat="48.30073" lon="5.14777">
        <ele>217.21</ele>
        <time>2024-12-30T12:44:55.812Z</time>
      </trkpt>
      <trkpt lat="48.30098" lon="5.14782">
        <ele>217.15</ele>
        <time>2024-12-30T12:44:57.353Z</time>
      </trkpt>
      <trkpt lat="48.30107" lon="5.14782">
        <ele>217.11</ele>
        <time>2024-12-30T12:44:58.895Z</time>
      </trkpt>
      <trkpt lat="48.30129" lon="5.1478">
        <ele>217.11</ele>
        <time>2024-12-30T12:45:00.441Z</time>
      </trkpt>
      <trkpt lat="48.30151" lon="5.14777">
        <ele>217.1</ele>
        <time>2024-12-30T12:45:01.990Z</time>
      </trkpt>
      <trkpt lat="48.30174" lon="5.14774">
        <ele>217.08</ele>
        <time>2024-12-30T12:45:03.543Z</time>
      </trkpt>
      <trkpt lat="48.30182" lon="5.14772">
        <ele>217.04</ele>
        <time>2024-12-30T12:45:05.097Z</time>
      </trkpt>
      <trkpt lat="48.30201" lon="5.14774">
        <ele>217.13</ele>
        <time>2024-12-30T12:45:06.654Z</time>
      </trkpt>
      <trkpt lat="48.30211" lon="5.14742">
        <ele>217.02</ele>
        <time>2024-12-30T12:45:08.215Z</time>
      </trkpt>
      <trkpt lat="48.30221" lon="5.14709">
        <ele>216.98</ele>
        <time>2024-12-30T12:45:09.780Z</time>
      </trkpt>
      <trkpt lat="48.30221" lon="5.14709">
        <ele>216.95</ele>
        <time>2024-12-30T12:45:11.345Z</time>
      </trkpt>
      <trkpt lat="48.30235" lon="5.14679">
        <ele>216.94</ele>
        <time>2024-12-30T12:45:12.914Z</time>
      </trkpt>
      <trkpt lat="48.30249" lon="5.14649">
        <ele>216.93</ele>
        <time>2024-12-30T12:45:14.487Z</time>
      </trkpt>
      <trkpt lat="48.30264" lon="5.14619">
        <ele>216.9</ele>
        <time>2024-12-30T12:45:16.064Z</time>
      </trkpt>
      <trkpt lat="48.3028" lon="5.14597">
        <ele>216.88</ele>
        <time>2024-12-30T12:45:17.644Z</time>
      </trkpt>
      <trkpt lat="48.30297" lon="5.14575">
        <ele>216.82</ele>
        <time>2024-12-30T12:45:19.228Z</time>
      </trkpt>
      <trkpt lat="48.30313" lon="5.14553">
        <ele>216.79</ele>
        <time>2024-12-30T12:45:20.815Z</time>
      </trkpt>
      <trkpt lat="48.30336" lon="5.14533">
        <ele>216.7</ele>
        <time>2024-12-30T12:45:22.407Z</time>
      </trkpt>
      <trkpt lat="48.30359" lon="5.14513">
        <ele>216.59</ele>
        <time>2024-12-30T12:45:24.003Z</time>
      </trkpt>
      <trkpt lat="48.30382" lon="5.14493">
        <ele>216.5</ele>
        <time>2024-12-30T12:45:25.603Z</time>
      </trkpt>
      <trkpt lat="48.30397" lon="5.14485">
        <ele>216.47</ele>
        <time>2024-12-30T12:45:27.206Z</time>
      </trkpt>
      <trkpt lat="48.30412" lon="5.14478">
        <ele>216.46</ele>
        <time>2024-12-30T12:45:28.811Z</time>
      </trkpt>
      <trkpt lat="48.3044" lon="5.14468">
        <ele>216.5</ele>
        <time>2024-12-30T12:45:30.421Z</time>
      </trkpt>
      <trkpt lat="48.30469" lon="5.14458">
        <ele>216.52</ele>
        <time>2024-12-30T12:45:32.036Z</time>
      </trkpt>
      <trkpt lat="48.30498" lon="5.14448">
        <ele>216.45</ele>
        <time>2024-12-30T12:45:33.655Z</time>
      </trkpt>
      <trkpt lat="48.30527" lon="5.1444">
        <ele>216.44</ele>
        <time>2024-12-30T12:45:35.279Z</time>
      </trkpt>
      <trkpt lat="48.30556" lon="5.14432">
        <ele>216.44</ele>
        <time>2024-12-30T12:45:36.908Z</time>
      </trkpt>
      <trkpt lat="48.30585" lon="5.14424">
        <ele>216.47</ele>
        <time>2024-12-30T12:45:38.542Z</time>
      </trkpt>
      <trkpt lat="48.30615" lon="5.14416">
        <ele>216.45</ele>
        <time>2024-12-30T12:45:40.180Z</time>
      </trkpt>
      <trkpt lat="48.30644" lon="5.14408">
        <ele>216.4</ele>
        <time>2024-12-30T12:45:41.823Z</time>
      </trkpt>
      <trkpt lat="48.30673" lon="5.144">
        <ele>216.41</ele>
        <time>2024-12-30T12:45:43.471Z</time>
      </trkpt>
      <trkpt lat="48.30703" lon="5.14393">
        <ele>216.46</ele>
        <time>2024-12-30T12:45:45.124Z</time>
      </trkpt>
      <trkpt lat="48.30732" lon="5.14385">
        <ele>216.5</ele>
        <time>2024-12-30T12:45:46.782Z</time>
      </trkpt>
      <trkpt lat="48.30761" lon="5.14377">
        <ele>216.5</ele>
        <time>2024-12-30T12:45:48.444Z</time>
      </trkpt>
      <trkpt lat="48.30761" lon="5.14377">
        <ele>216.55</ele>
        <time>2024-12-30T12:45:50.106Z</time>
      </trkpt>
      <trkpt lat="48.30791" lon="5.14369">
        <ele>216.58</ele>
        <time>2024-12-30T12:45:51.773Z</time>
      </trkpt>
      <trkpt lat="48.30821" lon="5.14361">
        <ele>216.69</ele>
        <time>2024-12-30T12:45:53.445Z</time>
      </trkpt>
      <trkpt lat="48.30851" lon="5.14352">
        <ele>216.78</ele>
        <time>2024-12-30T12:45:55.122Z</time>
      </trkpt>
      <trkpt lat="48.30881" lon="5.14344">
        <ele>216.88</ele>
        <time>2024-12-30T12:45:56.804Z</time>
      </trkpt>
      <trkpt lat="48.30911" lon="5.14336">
        <ele>217</ele>
        <time>2024-12-30T12:45:58.491Z</time>
      </trkpt>
      <trkpt lat="48.3094" lon="5.14328">
        <ele>217.09</ele>
        <time>2024-12-30T12:46:00.182Z</time>
      </trkpt>
      <trkpt lat="48.3097" lon="5.1432">
        <ele>217.27</ele>
        <time>2024-12-30T12:46:01.878Z</time>
      </trkpt>
      <trkpt lat="48.31" lon="5.14312">
        <ele>217.43</ele>
        <time>2024-12-30T12:46:03.579Z</time>
      </trkpt>
      <trkpt lat="48.3103" lon="5.14304">
        <ele>217.57</ele>
        <time>2024-12-30T12:46:05.285Z</time>
      </trkpt>
      <trkpt lat="48.3106" lon="5.14295">
        <ele>217.75</ele>
        <time>2024-12-30T12:46:06.996Z</time>
      </trkpt>
      <trkpt lat="48.31087" lon="5.14279">
        <ele>217.95</ele>
        <time>2024-12-30T12:46:08.711Z</time>
      </trkpt>
      <trkpt lat="48.31113" lon="5.14263">
        <ele>218.24</ele>
        <time>2024-12-30T12:46:10.431Z</time>
      </trkpt>
      <trkpt lat="48.31138" lon="5.14241">
        <ele>218.49</ele>
        <time>2024-12-30T12:46:12.156Z</time>
      </trkpt>
      <trkpt lat="48.31162" lon="5.14219">
        <ele>218.76</ele>
        <time>2024-12-30T12:46:13.885Z</time>
      </trkpt>
      <trkpt lat="48.31186" lon="5.14197">
        <ele>218.91</ele>
        <time>2024-12-30T12:46:15.619Z</time>
      </trkpt>
      <trkpt lat="48.31202" lon="5.14174">
        <ele>218.97</ele>
        <time>2024-12-30T12:46:17.356Z</time>
      </trkpt>
      <trkpt lat="48.31218" lon="5.14151">
        <ele>219.07</ele>
        <time>2024-12-30T12:46:19.097Z</time>
      </trkpt>
      <trkpt lat="48.31234" lon="5.14128">
        <ele>219.25</ele>
        <time>2024-12-30T12:46:20.841Z</time>
      </trkpt>
      <trkpt lat="48.31245" lon="5.14104">
        <ele>219.39</ele>
        <time>2024-12-30T12:46:22.588Z</time>
      </trkpt>
      <trkpt lat="48.31257" lon="5.14081">
        <ele>219.57</ele>
        <time>2024-12-30T12:46:24.339Z</time>
      </trkpt>
      <trkpt lat="48.31272" lon="5.14043">
        <ele>219.71</ele>
        <time>2024-12-30T12:46:26.094Z</time>
      </trkpt>
      <trkpt lat="48.31286" lon="5.14006">
        <ele>219.84</ele>
        <time>2024-12-30T12:46:27.854Z</time>
      </trkpt>
      <trkpt lat="48.31301" lon="5.13968">
        <ele>219.82</ele>
        <time>2024-12-30T12:46:29.619Z</time>
      </trkpt>
      <trkpt lat="48.31315" lon="5.13931">
        <ele>219.74</ele>
        <time>2024-12-30T12:46:31.388Z</time>
      </trkpt>
      <trkpt lat="48.31321" lon="5.13906">
        <ele>219.74</ele>
        <time>2024-12-30T12:46:33.160Z</time>
      </trkpt>
      <trkpt lat="48.31328" lon="5.13881">
        <ele>219.71</ele>
        <time>2024-12-30T12:46:34.935Z</time>
      </trkpt>
      <trkpt lat="48.31334" lon="5.13853">
        <ele>219.72</ele>
        <time>2024-12-30T12:46:36.713Z</time>
      </trkpt>
      <trkpt lat="48.31338" lon="5.13821">
        <ele>219.71</ele>
        <time>2024-12-30T12:46:38.494Z</time>
      </trkpt>
      <trkpt lat="48.31341" lon="5.13789">
        <ele>219.69</ele>
        <time>2024-12-30T12:46:40.279Z</time>
      </trkpt>
      <trkpt lat="48.31341" lon="5.13746">
        <ele>219.62</ele>
        <time>2024-12-30T12:46:42.068Z</time>
      </trkpt>
      <trkpt lat="48.31338" lon="5.13707">
        <ele>219.61</ele>
        <time>2024-12-30T12:46:43.862Z</time>
      </trkpt>
      <trkpt lat="48.31335" lon="5.13669">
        <ele>219.63</ele>
        <time>2024-12-30T12:46:45.660Z</time>
      </trkpt>
      <trkpt lat="48.31332" lon="5.1363">
        <ele>219.67</ele>
        <time>2024-12-30T12:46:47.462Z</time>
      </trkpt>
      <trkpt lat="48.31332" lon="5.1363">
        <ele>219.68</ele>
        <time>2024-12-30T12:46:49.264Z</time>
      </trkpt>
      <trkpt lat="48.31332" lon="5.13604">
        <ele>219.74</ele>
        <time>2024-12-30T12:46:51.069Z</time>
      </trkpt>
      <trkpt lat="48.31324" lon="5.13568">
        <ele>219.76</ele>
        <time>2024-12-30T12:46:52.878Z</time>
      </trkpt>
      <trkpt lat="48.31315" lon="5.13531">
        <ele>219.87</ele>
        <time>2024-12-30T12:46:54.691Z</time>
      </trkpt>
      <trkpt lat="48.31309" lon="5.13486">
        <ele>219.78</ele>
        <time>2024-12-30T12:46:56.509Z</time>
      </trkpt>
      <trkpt lat="48.31302" lon="5.13441">
        <ele>219.76</ele>
        <time>2024-12-30T12:46:58.332Z</time>
      </trkpt>
      <trkpt lat="48.31296" lon="5.13395">
        <ele>219.86</ele>
        <time>2024-12-30T12:47:00.160Z</time>
      </trkpt>
      <trkpt lat="48.31289" lon="5.1335">
        <ele>219.97</ele>
        <time>2024-12-30T12:47:01.993Z</time>
      </trkpt>
      <trkpt lat="48.31283" lon="5.13304">
        <ele>220.02</ele>
        <time>2024-12-30T12:47:03.831Z</time>
      </trkpt>
      <trkpt lat="48.31276" lon="5.13259">
        <ele>220.09</ele>
        <time>2024-12-30T12:47:05.674Z</time>
      </trkpt>
      <trkpt lat="48.3127" lon="5.13214">
        <ele>220.25</ele>
        <time>2024-12-30T12:47:07.522Z</time>
      </trkpt>
      <trkpt lat="48.31263" lon="5.13168">
        <ele>220.32</ele>
        <time>2024-12-30T12:47:09.375Z</time>
      </trkpt>
      <trkpt lat="48.31257" lon="5.13124">
        <ele>220.28</ele>
        <time>2024-12-30T12:47:11.232Z</time>
      </trkpt>
      <trkpt lat="48.31254" lon="5.13088">
        <ele>220.27</ele>
        <time>2024-12-30T12:47:13.093Z</time>
      </trkpt>
      <trkpt lat="48.31251" lon="5.13052">
        <ele>220.32</ele>
        <time>2024-12-30T12:47:14.958Z</time>
      </trkpt>
      <trkpt lat="48.31249" lon="5.13016">
        <ele>220.34</ele>
        <time>2024-12-30T12:47:16.827Z</time>
      </trkpt>
      <trkpt lat="48.31249" lon="5.12985">
        <ele>220.39</ele>
        <time>2024-12-30T12:47:18.699Z</time>
      </trkpt>
      <trkpt lat="48.31249" lon="5.12953">
        <ele>220.41</ele>
        <time>2024-12-30T12:47:20.575Z</time>
      </trkpt>
      <trkpt lat="48.31249" lon="5.12922">
        <ele>220.39</ele>
        <time>2024-12-30T12:47:22.454Z</time>
      </trkpt>
      <trkpt lat="48.31251" lon="5.12886">
        <ele>220.39</ele>
        <time>2024-12-30T12:47:24.337Z</time>
      </trkpt>
      <trkpt lat="48.31254" lon="5.1285">
        <ele>220.42</ele>
        <time>2024-12-30T12:47:26.224Z</time>
      </trkpt>
      <trkpt lat="48.31257" lon="5.12814">
        <ele>220.39</ele>
        <time>2024-12-30T12:47:28.115Z</time>
      </trkpt>
      <trkpt lat="48.31259" lon="5.12778">
        <ele>220.35</ele>
        <time>2024-12-30T12:47:30.010Z</time>
      </trkpt>
      <trkpt lat="48.31266" lon="5.12734">
        <ele>220.3</ele>
        <time>2024-12-30T12:47:31.909Z</time>
      </trkpt>
      <trkpt lat="48.31273" lon="5.1269">
        <ele>220.25</ele>
        <time>2024-12-30T12:47:33.813Z</time>
      </trkpt>
      <trkpt lat="48.31279" lon="5.12645">
        <ele>220.1</ele>
        <time>2024-12-30T12:47:35.722Z</time>
      </trkpt>
      <trkpt lat="48.31286" lon="5.12601">
        <ele>220.01</ele>
        <time>2024-12-30T12:47:37.636Z</time>
      </trkpt>
      <trkpt lat="48.31293" lon="5.12556">
        <ele>219.9</ele>
        <time>2024-12-30T12:47:39.555Z</time>
      </trkpt>
      <trkpt lat="48.313" lon="5.12512">
        <ele>219.76</ele>
        <time>2024-12-30T12:47:41.479Z</time>
      </trkpt>
      <trkpt lat="48.31306" lon="5.12468">
        <ele>219.54</ele>
        <time>2024-12-30T12:47:43.408Z</time>
      </trkpt>
      <trkpt lat="48.31313" lon="5.12424">
        <ele>219.28</ele>
        <time>2024-12-30T12:47:45.341Z</time>
      </trkpt>
      <trkpt lat="48.31321" lon="5.12391">
        <ele>219.01</ele>
        <time>2024-12-30T12:47:47.278Z</time>
      </trkpt>
      <trkpt lat="48.3133" lon="5.12358">
        <ele>218.67</ele>
        <time>2024-12-30T12:47:49.219Z</time>
      </trkpt>
      <trkpt lat="48.31339" lon="5.12326">
        <ele>218.27</ele>
        <time>2024-12-30T12:47:51.164Z</time>
      </trkpt>
      <trkpt lat="48.31352" lon="5.12292">
        <ele>217.9</ele>
        <time>2024-12-30T12:47:53.113Z</time>
      </trkpt>
      <trkpt lat="48.31366" lon="5.12259">
        <ele>217.56</ele>
        <time>2024-12-30T12:47:55.066Z</time>
      </trkpt>
      <trkpt lat="48.31379" lon="5.12226">
        <ele>217.17</ele>
        <time>2024-12-30T12:47:57.023Z</time>
      </trkpt>
      <trkpt lat="48.31392" lon="5.12192">
        <ele>216.73</ele>
        <time>2024-12-30T12:47:58.984Z</time>
      </trkpt>
      <trkpt lat="48.31406" lon="5.12164">
        <ele>216.3</ele>
        <time>2024-12-30T12:48:00.949Z</time>
      </trkpt>
      <trkpt lat="48.3142" lon="5.12135">
        <ele>215.85</ele>
        <time>2024-12-30T12:48:02.918Z</time>
      </trkpt>
      <trkpt lat="48.31433" lon="5.12107">
        <ele>215.4</ele>
        <time>2024-12-30T12:48:04.890Z</time>
      </trkpt>
      <trkpt lat="48.31448" lon="5.12085">
        <ele>214.98</ele>
        <time>2024-12-30T12:48:06.866Z</time>
      </trkpt>
      <trkpt lat="48.31465" lon="5.12072">
        <ele>214.6</ele>
        <time>2024-12-30T12:48:08.845Z</time>
      </trkpt>
      <trkpt lat="48.31489" lon="5.12048">
        <ele>214.14</ele>
        <time>2024-12-30T12:48:10.828Z</time>
      </trkpt>
      <trkpt lat="48.31512" lon="5.12023">
        <ele>213.71</ele>
        <time>2024-12-30T12:48:12.816Z</time>
      </trkpt>
      <trkpt lat="48.31531" lon="5.12009">
        <ele>213.3</ele>
        <time>2024-12-30T12:48:14.807Z</time>
      </trkpt>
      <trkpt lat="48.31549" lon="5.11995">
        <ele>212.91</ele>
        <time>2024-12-30T12:48:16.802Z</time>
      </trkpt>
      <trkpt lat="48.31562" lon="5.11978">
        <ele>212.5</ele>
        <time>2024-12-30T12:48:18.799Z</time>
      </trkpt>
      <trkpt lat="48.3158" lon="5.1196">
        <ele>212.13</ele>
        <time>2024-12-30T12:48:20.800Z</time>
      </trkpt>
      <trkpt lat="48.31599" lon="5.11942">
        <ele>211.76</ele>
        <time>2024-12-30T12:48:22.804Z</time>
      </trkpt>
      <trkpt lat="48.31618" lon="5.11924">
        <ele>211.44</ele>
        <time>2024-12-30T12:48:24.812Z</time>
      </trkpt>
      <trkpt lat="48.31635" lon="5.11916">
        <ele>211.14</ele>
        <time>2024-12-30T12:48:26.823Z</time>
      </trkpt>
      <trkpt lat="48.31652" lon="5.11907">
        <ele>210.87</ele>
        <time>2024-12-30T12:48:28.837Z</time>
      </trkpt>
      <trkpt lat="48.31668" lon="5.11904">
        <ele>210.61</ele>
        <time>2024-12-30T12:48:30.853Z</time>
      </trkpt>
      <trkpt lat="48.31684" lon="5.11901">
        <ele>210.33</ele>
        <time>2024-12-30T12:48:32.872Z</time>
      </trkpt>
      <trkpt lat="48.317" lon="5.11902">
        <ele>210.1</ele>
        <time>2024-12-30T12:48:34.894Z</time>
      </trkpt>
      <trkpt lat="48.31716" lon="5.11903">
        <ele>209.88</ele>
        <time>2024-12-30T12:48:36.918Z</time>
      </trkpt>
      <trkpt lat="48.31746" lon="5.11911">
        <ele>209.67</ele>
        <time>2024-12-30T12:48:38.947Z</time>
      </trkpt>
      <trkpt lat="48.31769" lon="5.11926">
        <ele>209.52</ele>
        <time>2024-12-30T12:48:40.980Z</time>
      </trkpt>
      <trkpt lat="48.31791" lon="5.11941">
        <ele>209.37</ele>
        <time>2024-12-30T12:48:43.017Z</time>
      </trkpt>
      <trkpt lat="48.31812" lon="5.11964">
        <ele>209.33</ele>
        <time>2024-12-30T12:48:45.058Z</time>
      </trkpt>
      <trkpt lat="48.31832" lon="5.11986">
        <ele>209.31</ele>
        <time>2024-12-30T12:48:47.103Z</time>
      </trkpt>
      <trkpt lat="48.31849" lon="5.12021">
        <ele>209.36</ele>
        <time>2024-12-30T12:48:49.153Z</time>
      </trkpt>
      <trkpt lat="48.31867" lon="5.12055">
        <ele>209.37</ele>
        <time>2024-12-30T12:48:51.207Z</time>
      </trkpt>
      <trkpt lat="48.31873" lon="5.12079">
        <ele>209.34</ele>
        <time>2024-12-30T12:48:53.264Z</time>
      </trkpt>
      <trkpt lat="48.31879" lon="5.12102">
        <ele>209.29</ele>
        <time>2024-12-30T12:48:55.324Z</time>
      </trkpt>
      <trkpt lat="48.31884" lon="5.12128">
        <ele>209.31</ele>
        <time>2024-12-30T12:48:57.387Z</time>
      </trkpt>
      <trkpt lat="48.31888" lon="5.12154">
        <ele>209.34</ele>
        <time>2024-12-30T12:48:59.452Z</time>
      </trkpt>
      <trkpt lat="48.31888" lon="5.12182">
        <ele>209.4</ele>
        <time>2024-12-30T12:49:01.520Z</time>
      </trkpt>
      <trkpt lat="48.31888" lon="5.1221">
        <ele>209.47</ele>
        <time>2024-12-30T12:49:03.591Z</time>
      </trkpt>
      <trkpt lat="48.31887" lon="5.12248">
        <ele>209.54</ele>
        <time>2024-12-30T12:49:05.666Z</time>
      </trkpt>
      <trkpt lat="48.31885" lon="5.12286">
        <ele>209.61</ele>
        <time>2024-12-30T12:49:07.745Z</time>
      </trkpt>
      <trkpt lat="48.31884" lon="5.12323">
        <ele>209.73</ele>
        <time>2024-12-30T12:49:09.828Z</time>
      </trkpt>
      <trkpt lat="48.3188" lon="5.12348">
        <ele>209.91</ele>
        <time>2024-12-30T12:49:11.914Z</time>
      </trkpt>
      <trkpt lat="48.31877" lon="5.12373">
        <ele>210.05</ele>
        <time>2024-12-30T12:49:14.003Z</time>
      </trkpt>
      <trkpt lat="48.31866" lon="5.12414">
        <ele>210.23</ele>
        <time>2024-12-30T12:49:16.097Z</time>
      </trkpt>
      <trkpt lat="48.31856" lon="5.12456">
        <ele>210.39</ele>
        <time>2024-12-30T12:49:18.195Z</time>
      </trkpt>
      <trkpt lat="48.31845" lon="5.12497">
        <ele>210.52</ele>
        <time>2024-12-30T12:49:20.298Z</time>
      </trkpt>
      <trkpt lat="48.31834" lon="5.12539">
        <ele>210.77</ele>
        <time>2024-12-30T12:49:22.406Z</time>
      </trkpt>
      <trkpt lat="48.31823" lon="5.1258">
        <ele>210.98</ele>
        <time>2024-12-30T12:49:24.519Z</time>
      </trkpt>
      <trkpt lat="48.31813" lon="5.12622">
        <ele>211.13</ele>
        <time>2024-12-30T12:49:26.636Z</time>
      </trkpt>
      <trkpt lat="48.31802" lon="5.12662">
        <ele>211.26</ele>
        <time>2024-12-30T12:49:28.758Z</time>
      </trkpt>
      <trkpt lat="48.31795" lon="5.12698">
        <ele>211.47</ele>
        <time>2024-12-30T12:49:30.884Z</time>
      </trkpt>
      <trkpt lat="48.31788" lon="5.12734">
        <ele>211.72</ele>
        <time>2024-12-30T12:49:33.014Z</time>
      </trkpt>
      <trkpt lat="48.31781" lon="5.1277">
        <ele>212.07</ele>
        <time>2024-12-30T12:49:35.148Z</time>
      </trkpt>
      <trkpt lat="48.31776" lon="5.12798">
        <ele>212.37</ele>
        <time>2024-12-30T12:49:37.285Z</time>
      </trkpt>
      <trkpt lat="48.31772" lon="5.12825">
        <ele>212.68</ele>
        <time>2024-12-30T12:49:39.425Z</time>
      </trkpt>
      <trkpt lat="48.31769" lon="5.12866">
        <ele>212.93</ele>
        <time>2024-12-30T12:49:41.569Z</time>
      </trkpt>
      <trkpt lat="48.31767" lon="5.12907">
        <ele>213.13</ele>
        <time>2024-12-30T12:49:43.718Z</time>
      </trkpt>
      <trkpt lat="48.31764" lon="5.12947">
        <ele>213.4</ele>
        <time>2024-12-30T12:49:45.871Z</time>
      </trkpt>
      <trkpt lat="48.31761" lon="5.12988">
        <ele>213.74</ele>
        <time>2024-12-30T12:49:48.029Z</time>
      </trkpt>
      <trkpt lat="48.31758" lon="5.13028">
        <ele>213.98</ele>
        <time>2024-12-30T12:49:50.191Z</time>
      </trkpt>
      <trkpt lat="48.31755" lon="5.13069">
        <ele>214.11</ele>
        <time>2024-12-30T12:49:52.357Z</time>
      </trkpt>
      <trkpt lat="48.31753" lon="5.13109">
        <ele>214.31</ele>
        <time>2024-12-30T12:49:54.528Z</time>
      </trkpt>
      <trkpt lat="48.31754" lon="5.13151">
        <ele>214.51</ele>
        <time>2024-12-30T12:49:56.703Z</time>
      </trkpt>
      <trkpt lat="48.31756" lon="5.13193">
        <ele>214.64</ele>
        <time>2024-12-30T12:49:58.883Z</time>
      </trkpt>
      <trkpt lat="48.31758" lon="5.13235">
        <ele>214.72</ele>
        <time>2024-12-30T12:50:01.067Z</time>
      </trkpt>
      <trkpt lat="48.31759" lon="5.13276">
        <ele>214.71</ele>
        <time>2024-12-30T12:50:03.255Z</time>
      </trkpt>
      <trkpt lat="48.31762" lon="5.13318">
        <ele>214.66</ele>
        <time>2024-12-30T12:50:05.448Z</time>
      </trkpt>
      <trkpt lat="48.31764" lon="5.1336">
        <ele>214.69</ele>
        <time>2024-12-30T12:50:07.645Z</time>
      </trkpt>
      <trkpt lat="48.31767" lon="5.13402">
        <ele>214.75</ele>
        <time>2024-12-30T12:50:09.847Z</time>
      </trkpt>
      <trkpt lat="48.31769" lon="5.13445">
        <ele>214.77</ele>
        <time>2024-12-30T12:50:12.053Z</time>
      </trkpt>
      <trkpt lat="48.31772" lon="5.13487">
        <ele>214.84</ele>
        <time>2024-12-30T12:50:14.264Z</time>
      </trkpt>
      <trkpt lat="48.31774" lon="5.13529">
        <ele>214.95</ele>
        <time>2024-12-30T12:50:16.480Z</time>
      </trkpt>
      <trkpt lat="48.31776" lon="5.1357">
        <ele>215.04</ele>
        <time>2024-12-30T12:50:18.700Z</time>
      </trkpt>
      <trkpt lat="48.31774" lon="5.13613">
        <ele>214.99</ele>
        <time>2024-12-30T12:50:20.925Z</time>
      </trkpt>
      <trkpt lat="48.31776" lon="5.13634">
        <ele>214.86</ele>
        <time>2024-12-30T12:50:23.152Z</time>
      </trkpt>
      <trkpt lat="48.31782" lon="5.13671">
        <ele>214.6</ele>
        <time>2024-12-30T12:50:25.383Z</time>
      </trkpt>
      <trkpt lat="48.31787" lon="5.13707">
        <ele>214.43</ele>
        <time>2024-12-30T12:50:27.618Z</time>
      </trkpt>
      <trkpt lat="48.31797" lon="5.13752">
        <ele>214.21</ele>
        <time>2024-12-30T12:50:29.858Z</time>
      </trkpt>
      <trkpt lat="48.31806" lon="5.13797">
        <ele>214.14</ele>
        <time>2024-12-30T12:50:32.103Z</time>
      </trkpt>
      <trkpt lat="48.31815" lon="5.13841">
        <ele>213.82</ele>
        <time>2024-12-30T12:50:34.353Z</time>
      </trkpt>
      <trkpt lat="48.31825" lon="5.13886">
        <ele>213.46</ele>
        <time>2024-12-30T12:50:36.608Z</time>
      </trkpt>
      <trkpt lat="48.31834" lon="5.13931">
        <ele>213.13</ele>
        <time>2024-12-30T12:50:38.868Z</time>
      </trkpt>
      <trkpt lat="48.31844" lon="5.13975">
        <ele>212.9</ele>
        <time>2024-12-30T12:50:41.133Z</time>
      </trkpt>
      <trkpt lat="48.31853" lon="5.1402">
        <ele>212.57</ele>
        <time>2024-12-30T12:50:43.403Z</time>
      </trkpt>
      <trkpt lat="48.31863" lon="5.14065">
        <ele>212.27</ele>
        <time>2024-12-30T12:50:45.678Z</time>
      </trkpt>
      <trkpt lat="48.31872" lon="5.14109">
        <ele>211.88</ele>
        <time>2024-12-30T12:50:47.958Z</time>
      </trkpt>
      <trkpt lat="48.31881" lon="5.14154">
        <ele>211.51</ele>
        <time>2024-12-30T12:50:50.243Z</time>
      </trkpt>
      <trkpt lat="48.31891" lon="5.14199">
        <ele>211.19</ele>
        <time>2024-12-30T12:50:52.533Z</time>
      </trkpt>
      <trkpt lat="48.319" lon="5.14243">
        <ele>210.88</ele>
        <time>2024-12-30T12:50:54.828Z</time>
      </trkpt>
      <trkpt lat="48.31909" lon="5.14287">
        <ele>210.6</ele>
        <time>2024-12-30T12:50:57.128Z</time>
      </trkpt>
      <trkpt lat="48.31921" lon="5.14319">
        <ele>210.27</ele>
        <time>2024-12-30T12:50:59.432Z</time>
      </trkpt>
      <trkpt lat="48.31932" lon="5.14351">
        <ele>209.86</ele>
        <time>2024-12-30T12:51:01.740Z</time>
      </trkpt>
      <trkpt lat="48.31944" lon="5.14383">
        <ele>209.47</ele>
        <time>2024-12-30T12:51:04.051Z</time>
      </trkpt>
      <trkpt lat="48.31963" lon="5.14419">
        <ele>209.17</ele>
        <time>2024-12-30T12:51:06.367Z</time>
      </trkpt>
      <trkpt lat="48.31982" lon="5.14454">
        <ele>208.92</ele>
        <time>2024-12-30T12:51:08.688Z</time>
      </trkpt>
      <trkpt lat="48.32004" lon="5.14483">
        <ele>208.69</ele>
        <time>2024-12-30T12:51:11.014Z</time>
      </trkpt>
      <trkpt lat="48.32025" lon="5.14512">
        <ele>208.52</ele>
        <time>2024-12-30T12:51:13.344Z</time>
      </trkpt>
      <trkpt lat="48.32046" lon="5.14531">
        <ele>208.31</ele>
        <time>2024-12-30T12:51:15.678Z</time>
      </trkpt>
      <trkpt lat="48.32067" lon="5.1455">
        <ele>208.19</ele>
        <time>2024-12-30T12:51:18.016Z</time>
      </trkpt>
      <trkpt lat="48.32088" lon="5.14568">
        <ele>208.13</ele>
        <time>2024-12-30T12:51:20.358Z</time>
      </trkpt>
      <trkpt lat="48.32109" lon="5.14587">
        <ele>208.11</ele>
        <time>2024-12-30T12:51:22.704Z</time>
      </trkpt>
      <trkpt lat="48.32125" lon="5.14605">
        <ele>208.08</ele>
        <time>2024-12-30T12:51:25.053Z</time>
      </trkpt>
      <trkpt lat="48.32141" lon="5.14624">
        <ele>208.1</ele>
        <time>2024-12-30T12:51:27.406Z</time>
      </trkpt>
      <trkpt lat="48.3216" lon="5.14635">
        <ele>208.13</ele>
        <time>2024-12-30T12:51:29.762Z</time>
      </trkpt>
      <trkpt lat="48.3218" lon="5.14647">
        <ele>208.24</ele>
        <time>2024-12-30T12:51:32.121Z</time>
      </trkpt>
      <trkpt lat="48.32176" lon="5.14656">
        <ele>208.44</ele>
        <time>2024-12-30T12:51:34.481Z</time>
      </trkpt>
      <trkpt lat="48.32171" lon="5.14664">
        <ele>208.7</ele>
        <time>2024-12-30T12:51:36.842Z</time>
      </trkpt>
      <trkpt lat="48.32165" lon="5.14675">
        <ele>209.01</ele>
        <time>2024-12-30T12:51:39.205Z</time>
      </trkpt>
      <trkpt lat="48.32188" lon="5.14696">
        <ele>209.32</ele>
        <time>2024-12-30T12:51:41.572Z</time>
      </trkpt>
      <trkpt lat="48.32212" lon="5.14716">
        <ele>209.73</ele>
        <time>2024-12-30T12:51:43.944Z</time>
      </trkpt>
      <trkpt lat="48.32236" lon="5.14737">
        <ele>210.26</ele>
        <time>2024-12-30T12:51:46.320Z</time>
      </trkpt>
      <trkpt lat="48.32259" lon="5.14758">
        <ele>210.83</ele>
        <time>2024-12-30T12:51:48.701Z</time>
      </trkpt>
      <trkpt lat="48.32283" lon="5.14778">
        <ele>211.41</ele>
        <time>2024-12-30T12:51:51.086Z</time>
      </trkpt>
      <trkpt lat="48.32301" lon="5.14794">
        <ele>211.97</ele>
        <time>2024-12-30T12:51:53.474Z</time>
      </trkpt>
      <trkpt lat="48.3232" lon="5.1481">
        <ele>212.6</ele>
        <time>2024-12-30T12:51:55.866Z</time>
      </trkpt>
      <trkpt lat="48.32339" lon="5.14825">
        <ele>213.24</ele>
        <time>2024-12-30T12:51:58.261Z</time>
      </trkpt>
      <trkpt lat="48.32354" lon="5.14845">
        <ele>213.89</ele>
        <time>2024-12-30T12:52:00.659Z</time>
      </trkpt>
      <trkpt lat="48.32373" lon="5.14863">
        <ele>214.54</ele>
        <time>2024-12-30T12:52:03.061Z</time>
      </trkpt>
      <trkpt lat="48.32392" lon="5.14882">
        <ele>215.2</ele>
        <time>2024-12-30T12:52:05.467Z</time>
      </trkpt>
      <trkpt lat="48.32412" lon="5.149">
        <ele>215.89</ele>
        <time>2024-12-30T12:52:07.876Z</time>
      </trkpt>
      <trkpt lat="48.32418" lon="5.14913">
        <ele>216.6</ele>
        <time>2024-12-30T12:52:10.287Z</time>
      </trkpt>
      <trkpt lat="48.32418" lon="5.14948">
        <ele>217.46</ele>
        <time>2024-12-30T12:52:12.702Z</time>
      </trkpt>
      <trkpt lat="48.32434" lon="5.14955">
        <ele>218.06</ele>
        <time>2024-12-30T12:52:15.119Z</time>
      </trkpt>
      <trkpt lat="48.3245" lon="5.14963">
        <ele>218.63</ele>
        <time>2024-12-30T12:52:17.539Z</time>
      </trkpt>
      <trkpt lat="48.32478" lon="5.14966">
        <ele>219.12</ele>
        <time>2024-12-30T12:52:19.964Z</time>
      </trkpt>
      <trkpt lat="48.32506" lon="5.14969">
        <ele>219.56</ele>
        <time>2024-12-30T12:52:22.393Z</time>
      </trkpt>
      <trkpt lat="48.32536" lon="5.14977">
        <ele>220.05</ele>
        <time>2024-12-30T12:52:24.827Z</time>
      </trkpt>
      <trkpt lat="48.32566" lon="5.14984">
        <ele>220.52</ele>
        <time>2024-12-30T12:52:27.266Z</time>
      </trkpt>
      <trkpt lat="48.32597" lon="5.14986">
        <ele>220.87</ele>
        <time>2024-12-30T12:52:29.710Z</time>
      </trkpt>
      <trkpt lat="48.32628" lon="5.14988">
        <ele>221.02</ele>
        <time>2024-12-30T12:52:32.159Z</time>
      </trkpt>
      <trkpt lat="48.32646" lon="5.14987">
        <ele>221.22</ele>
        <time>2024-12-30T12:52:34.611Z</time>
      </trkpt>
      <trkpt lat="48.32665" lon="5.14986">
        <ele>221.39</ele>
        <time>2024-12-30T12:52:37.066Z</time>
      </trkpt>
      <trkpt lat="48.32692" lon="5.14973">
        <ele>221.36</ele>
        <time>2024-12-30T12:52:39.525Z</time>
      </trkpt>
      <trkpt lat="48.3272" lon="5.14959">
        <ele>221.22</ele>
        <time>2024-12-30T12:52:41.989Z</time>
      </trkpt>
      <trkpt lat="48.32747" lon="5.14945">
        <ele>221.04</ele>
        <time>2024-12-30T12:52:44.458Z</time>
      </trkpt>
      <trkpt lat="48.32775" lon="5.14931">
        <ele>220.77</ele>
        <time>2024-12-30T12:52:46.931Z</time>
      </trkpt>
      <trkpt lat="48.32802" lon="5.14918">
        <ele>220.38</ele>
        <time>2024-12-30T12:52:49.409Z</time>
      </trkpt>
      <trkpt lat="48.32798" lon="5.14903">
        <ele>219.73</ele>
        <time>2024-12-30T12:52:51.889Z</time>
      </trkpt>
      <trkpt lat="48.32785" lon="5.14866">
        <ele>218.77</ele>
        <time>2024-12-30T12:52:54.373Z</time>
      </trkpt>
      <trkpt lat="48.32781" lon="5.14853">
        <ele>218.07</ele>
        <time>2024-12-30T12:52:56.859Z</time>
      </trkpt>
      <trkpt lat="48.32771" lon="5.14825">
        <ele>217.33</ele>
        <time>2024-12-30T12:52:59.348Z</time>
      </trkpt>
      <trkpt lat="48.32761" lon="5.14797">
        <ele>216.77</ele>
        <time>2024-12-30T12:53:01.840Z</time>
      </trkpt>
      <trkpt lat="48.32744" lon="5.14812">
        <ele>216.17</ele>
        <time>2024-12-30T12:53:04.335Z</time>
      </trkpt>
      <trkpt lat="48.32727" lon="5.14827">
        <ele>215.49</ele>
        <time>2024-12-30T12:53:06.834Z</time>
      </trkpt>
      <trkpt lat="48.32705" lon="5.14841">
        <ele>214.81</ele>
        <time>2024-12-30T12:53:09.336Z</time>
      </trkpt>
      <trkpt lat="48.32684" lon="5.14855">
        <ele>214.11</ele>
        <time>2024-12-30T12:53:11.842Z</time>
      </trkpt>
      <trkpt lat="48.32664" lon="5.14863">
        <ele>213.47</ele>
        <time>2024-12-30T12:53:14.351Z</time>
      </trkpt>
      <trkpt lat="48.32643" lon="5.1487">
        <ele>212.87</ele>
        <time>2024-12-30T12:53:16.864Z</time>
      </trkpt>
      <trkpt lat="48.32614" lon="5.14859">
        <ele>212.32</ele>
        <time>2024-12-30T12:53:19.382Z</time>
      </trkpt>
      <trkpt lat="48.32585" lon="5.14847">
        <ele>211.88</ele>
        <time>2024-12-30T12:53:21.904Z</time>
      </trkpt>
      <trkpt lat="48.32556" lon="5.14835">
        <ele>211.37</ele>
        <time>2024-12-30T12:53:24.431Z</time>
      </trkpt>
      <trkpt lat="48.32527" lon="5.14824">
        <ele>210.83</ele>
        <time>2024-12-30T12:53:26.963Z</time>
      </trkpt>
      <trkpt lat="48.32556" lon="5.14835">
        <ele>210.07</ele>
        <time>2024-12-30T12:53:29.500Z</time>
      </trkpt>
      <trkpt lat="48.32585" lon="5.14847">
        <ele>209.72</ele>
        <time>2024-12-30T12:53:32.042Z</time>
      </trkpt>
      <trkpt lat="48.32614" lon="5.14859">
        <ele>209.31</ele>
        <time>2024-12-30T12:53:34.589Z</time>
      </trkpt>
      <trkpt lat="48.32643" lon="5.1487">
        <ele>212.87</ele>
        <time>2024-12-30T12:53:37.141Z</time>
      </trkpt>
      <trkpt lat="48.32664" lon="5.14863">
        <ele>208.77</ele>
        <time>2024-12-30T12:53:39.696Z</time>
      </trkpt>
      <trkpt lat="48.32684" lon="5.14855">
        <ele>214.11</ele>
        <time>2024-12-30T12:53:42.254Z</time>
      </trkpt>
      <trkpt lat="48.32705" lon="5.14841">
        <ele>208.5</ele>
        <time>2024-12-30T12:53:44.816Z</time>
      </trkpt>
      <trkpt lat="48.32727" lon="5.14827">
        <ele>215.49</ele>
        <time>2024-12-30T12:53:47.382Z</time>
      </trkpt>
      <trkpt lat="48.32744" lon="5.14812">
        <ele>208.33</ele>
        <time>2024-12-30T12:53:49.951Z</time>
      </trkpt>
      <trkpt lat="48.32761" lon="5.14797">
        <ele>208.23</ele>
        <time>2024-12-30T12:53:52.523Z</time>
      </trkpt>
      <trkpt lat="48.32755" lon="5.14772">
        <ele>208.23</ele>
        <time>2024-12-30T12:53:55.098Z</time>
      </trkpt>
      <trkpt lat="48.32751" lon="5.14748">
        <ele>208.18</ele>
        <time>2024-12-30T12:53:57.676Z</time>
      </trkpt>
      <trkpt lat="48.32751" lon="5.14707">
        <ele>208.13</ele>
        <time>2024-12-30T12:54:00.258Z</time>
      </trkpt>
      <trkpt lat="48.32751" lon="5.14666">
        <ele>208.09</ele>
        <time>2024-12-30T12:54:02.844Z</time>
      </trkpt>
      <trkpt lat="48.32751" lon="5.14626">
        <ele>208.16</ele>
        <time>2024-12-30T12:54:05.435Z</time>
      </trkpt>
      <trkpt lat="48.32748" lon="5.14585">
        <ele>208.21</ele>
        <time>2024-12-30T12:54:08.030Z</time>
      </trkpt>
      <trkpt lat="48.32744" lon="5.14557">
        <ele>208.29</ele>
        <time>2024-12-30T12:54:10.628Z</time>
      </trkpt>
      <trkpt lat="48.3274" lon="5.14529">
        <ele>208.37</ele>
        <time>2024-12-30T12:54:13.229Z</time>
      </trkpt>
      <trkpt lat="48.32725" lon="5.14503">
        <ele>208.51</ele>
        <time>2024-12-30T12:54:15.834Z</time>
      </trkpt>
      <trkpt lat="48.32701" lon="5.14473">
        <ele>208.66</ele>
        <time>2024-12-30T12:54:18.444Z</time>
      </trkpt>
      <trkpt lat="48.32695" lon="5.14469">
        <ele>208.85</ele>
        <time>2024-12-30T12:54:21.055Z</time>
      </trkpt>
      <trkpt lat="48.32675" lon="5.14456">
        <ele>209.1</ele>
        <time>2024-12-30T12:54:23.669Z</time>
      </trkpt>
      <trkpt lat="48.32655" lon="5.14443">
        <ele>209.4</ele>
        <time>2024-12-30T12:54:26.287Z</time>
      </trkpt>
      <trkpt lat="48.32635" lon="5.14431">
        <ele>209.71</ele>
        <time>2024-12-30T12:54:28.908Z</time>
      </trkpt>
      <trkpt lat="48.32638" lon="5.14407">
        <ele>210.02</ele>
        <time>2024-12-30T12:54:31.532Z</time>
      </trkpt>
      <trkpt lat="48.32641" lon="5.14383">
        <ele>210.37</ele>
        <time>2024-12-30T12:54:34.159Z</time>
      </trkpt>
      <trkpt lat="48.3265" lon="5.14361">
        <ele>210.69</ele>
        <time>2024-12-30T12:54:36.788Z</time>
      </trkpt>
      <trkpt lat="48.32658" lon="5.14338">
        <ele>211</ele>
        <time>2024-12-30T12:54:39.420Z</time>
      </trkpt>
      <trkpt lat="48.32665" lon="5.14314">
        <ele>211.24</ele>
        <time>2024-12-30T12:54:42.055Z</time>
      </trkpt>
      <trkpt lat="48.32671" lon="5.14289">
        <ele>211.45</ele>
        <time>2024-12-30T12:54:44.693Z</time>
      </trkpt>
      <trkpt lat="48.32679" lon="5.14249">
        <ele>211.65</ele>
        <time>2024-12-30T12:54:47.335Z</time>
      </trkpt>
      <trkpt lat="48.32686" lon="5.1421">
        <ele>211.86</ele>
        <time>2024-12-30T12:54:49.982Z</time>
      </trkpt>
      <trkpt lat="48.32693" lon="5.14179">
        <ele>212.02</ele>
        <time>2024-12-30T12:54:52.632Z</time>
      </trkpt>
      <trkpt lat="48.32699" lon="5.14149">
        <ele>212.16</ele>
        <time>2024-12-30T12:54:55.285Z</time>
      </trkpt>
      <trkpt lat="48.32708" lon="5.14117">
        <ele>212.31</ele>
        <time>2024-12-30T12:54:57.942Z</time>
      </trkpt>
      <trkpt lat="48.32716" lon="5.14085">
        <ele>212.47</ele>
        <time>2024-12-30T12:55:00.603Z</time>
      </trkpt>
      <trkpt lat="48.32725" lon="5.14053">
        <ele>212.61</ele>
        <time>2024-12-30T12:55:03.267Z</time>
      </trkpt>
      <trkpt lat="48.32736" lon="5.14017">
        <ele>212.65</ele>
        <time>2024-12-30T12:55:05.936Z</time>
      </trkpt>
      <trkpt lat="48.32746" lon="5.13982">
        <ele>212.65</ele>
        <time>2024-12-30T12:55:08.609Z</time>
      </trkpt>
      <trkpt lat="48.32751" lon="5.13965">
        <ele>212.67</ele>
        <time>2024-12-30T12:55:11.284Z</time>
      </trkpt>
      <trkpt lat="48.32753" lon="5.13948">
        <ele>212.68</ele>
        <time>2024-12-30T12:55:13.961Z</time>
      </trkpt>
      <trkpt lat="48.32757" lon="5.13907">
        <ele>212.62</ele>
        <time>2024-12-30T12:55:16.642Z</time>
      </trkpt>
      <trkpt lat="48.32756" lon="5.13863">
        <ele>212.55</ele>
        <time>2024-12-30T12:55:19.328Z</time>
      </trkpt>
      <trkpt lat="48.32755" lon="5.1382">
        <ele>212.54</ele>
        <time>2024-12-30T12:55:22.018Z</time>
      </trkpt>
      <trkpt lat="48.32754" lon="5.13776">
        <ele>212.49</ele>
        <time>2024-12-30T12:55:24.713Z</time>
      </trkpt>
      <trkpt lat="48.32753" lon="5.13733">
        <ele>212.52</ele>
        <time>2024-12-30T12:55:27.412Z</time>
      </trkpt>
      <trkpt lat="48.32753" lon="5.13705">
        <ele>212.54</ele>
        <time>2024-12-30T12:55:30.114Z</time>
      </trkpt>
      <trkpt lat="48.32753" lon="5.13677">
        <ele>212.56</ele>
        <time>2024-12-30T12:55:32.819Z</time>
      </trkpt>
      <trkpt lat="48.32771" lon="5.13685">
        <ele>212.43</ele>
        <time>2024-12-30T12:55:35.527Z</time>
      </trkpt>
      <trkpt lat="48.32789" lon="5.13692">
        <ele>212.22</ele>
        <time>2024-12-30T12:55:38.239Z</time>
      </trkpt>
      <trkpt lat="48.32817" lon="5.13692">
        <ele>212.01</ele>
        <time>2024-12-30T12:55:40.955Z</time>
      </trkpt>
      <trkpt lat="48.32847" lon="5.1368">
        <ele>211.84</ele>
        <time>2024-12-30T12:55:43.676Z</time>
      </trkpt>
      <trkpt lat="48.32861" lon="5.13659">
        <ele>211.63</ele>
        <time>2024-12-30T12:55:46.400Z</time>
      </trkpt>
      <trkpt lat="48.32875" lon="5.13639">
        <ele>211.39</ele>
        <time>2024-12-30T12:55:49.127Z</time>
      </trkpt>
      <trkpt lat="48.32884" lon="5.13616">
        <ele>211.23</ele>
        <time>2024-12-30T12:55:51.857Z</time>
      </trkpt>
      <trkpt lat="48.32892" lon="5.13594">
        <ele>211.07</ele>
        <time>2024-12-30T12:55:54.590Z</time>
      </trkpt>
      <trkpt lat="48.32916" lon="5.13566">
        <ele>210.81</ele>
        <time>2024-12-30T12:55:57.328Z</time>
      </trkpt>
      <trkpt lat="48.32941" lon="5.13547">
        <ele>210.47</ele>
        <time>2024-12-30T12:56:00.070Z</time>
      </trkpt>
      <trkpt lat="48.32966" lon="5.13528">
        <ele>210.17</ele>
        <time>2024-12-30T12:56:02.817Z</time>
      </trkpt>
      <trkpt lat="48.32991" lon="5.13509">
        <ele>209.93</ele>
        <time>2024-12-30T12:56:05.568Z</time>
      </trkpt>
      <trkpt lat="48.33017" lon="5.13491">
        <ele>209.75</ele>
        <time>2024-12-30T12:56:08.324Z</time>
      </trkpt>
      <trkpt lat="48.33036" lon="5.13471">
        <ele>209.62</ele>
        <time>2024-12-30T12:56:11.083Z</time>
      </trkpt>
      <trkpt lat="48.33042" lon="5.1345">
        <ele>209.54</ele>
        <time>2024-12-30T12:56:13.845Z</time>
      </trkpt>
      <trkpt lat="48.33045" lon="5.13426">
        <ele>209.5</ele>
        <time>2024-12-30T12:56:16.609Z</time>
      </trkpt>
      <trkpt lat="48.33047" lon="5.13403">
        <ele>209.51</ele>
        <time>2024-12-30T12:56:19.376Z</time>
      </trkpt>
      <trkpt lat="48.33047" lon="5.13403">
        <ele>209.49</ele>
        <time>2024-12-30T12:56:22.143Z</time>
      </trkpt>
      <trkpt lat="48.33064" lon="5.13377">
        <ele>209.52</ele>
        <time>2024-12-30T12:56:24.914Z</time>
      </trkpt>
      <trkpt lat="48.33081" lon="5.13351">
        <ele>209.62</ele>
        <time>2024-12-30T12:56:27.689Z</time>
      </trkpt>
      <trkpt lat="48.33098" lon="5.13325">
        <ele>209.74</ele>
        <time>2024-12-30T12:56:30.468Z</time>
      </trkpt>
      <trkpt lat="48.3312" lon="5.13298">
        <ele>209.84</ele>
        <time>2024-12-30T12:56:33.251Z</time>
      </trkpt>
      <trkpt lat="48.33141" lon="5.13271">
        <ele>209.96</ele>
        <time>2024-12-30T12:56:36.039Z</time>
      </trkpt>
      <trkpt lat="48.33163" lon="5.13244">
        <ele>210.2</ele>
        <time>2024-12-30T12:56:38.831Z</time>
      </trkpt>
      <trkpt lat="48.33184" lon="5.13224">
        <ele>210.36</ele>
        <time>2024-12-30T12:56:41.627Z</time>
      </trkpt>
      <trkpt lat="48.33205" lon="5.13203">
        <ele>210.59</ele>
        <time>2024-12-30T12:56:44.427Z</time>
      </trkpt>
      <trkpt lat="48.3322" lon="5.13192">
        <ele>210.81</ele>
        <time>2024-12-30T12:56:47.230Z</time>
      </trkpt>
      <trkpt lat="48.33236" lon="5.13182">
        <ele>211.1</ele>
        <time>2024-12-30T12:56:50.036Z</time>
      </trkpt>
      <trkpt lat="48.33256" lon="5.1317">
        <ele>211.48</ele>
        <time>2024-12-30T12:56:52.845Z</time>
      </trkpt>
      <trkpt lat="48.33276" lon="5.13158">
        <ele>211.84</ele>
        <time>2024-12-30T12:56:55.658Z</time>
      </trkpt>
      <trkpt lat="48.33302" lon="5.13151">
        <ele>212.2</ele>
        <time>2024-12-30T12:56:58.475Z</time>
      </trkpt>
      <trkpt lat="48.33328" lon="5.13144">
        <ele>212.61</ele>
        <time>2024-12-30T12:57:01.296Z</time>
      </trkpt>
      <trkpt lat="48.33354" lon="5.13137">
        <ele>213.04</ele>
        <time>2024-12-30T12:57:04.121Z</time>
      </trkpt>
      <trkpt lat="48.3338" lon="5.13129">
        <ele>213.57</ele>
        <time>2024-12-30T12:57:06.950Z</time>
      </trkpt>
      <trkpt lat="48.3338" lon="5.13129">
        <ele>214.04</ele>
        <time>2024-12-30T12:57:09.779Z</time>
      </trkpt>
      <trkpt lat="48.33402" lon="5.13123">
        <ele>214.61</ele>
        <time>2024-12-30T12:57:12.612Z</time>
      </trkpt>
      <trkpt lat="48.33424" lon="5.13117">
        <ele>215.17</ele>
        <time>2024-12-30T12:57:15.449Z</time>
      </trkpt>
      <trkpt lat="48.3345" lon="5.13117">
        <ele>215.68</ele>
        <time>2024-12-30T12:57:18.290Z</time>
      </trkpt>
      <trkpt lat="48.33476" lon="5.13117">
        <ele>216.25</ele>
        <time>2024-12-30T12:57:21.135Z</time>
      </trkpt>
      <trkpt lat="48.33497" lon="5.13127">
        <ele>216.75</ele>
        <time>2024-12-30T12:57:23.983Z</time>
      </trkpt>
      <trkpt lat="48.33517" lon="5.13136">
        <ele>217.28</ele>
        <time>2024-12-30T12:57:26.835Z</time>
      </trkpt>
      <trkpt lat="48.33538" lon="5.13145">
        <ele>217.82</ele>
        <time>2024-12-30T12:57:29.690Z</time>
      </trkpt>
      <trkpt lat="48.33557" lon="5.13158">
        <ele>218.28</ele>
        <time>2024-12-30T12:57:32.549Z</time>
      </trkpt>
      <trkpt lat="48.33577" lon="5.13171">
        <ele>218.65</ele>
        <time>2024-12-30T12:57:35.411Z</time>
      </trkpt>
      <trkpt lat="48.336" lon="5.13187">
        <ele>219.03</ele>
        <time>2024-12-30T12:57:38.277Z</time>
      </trkpt>
      <trkpt lat="48.33624" lon="5.13202">
        <ele>219.24</ele>
        <time>2024-12-30T12:57:41.147Z</time>
      </trkpt>
      <trkpt lat="48.33648" lon="5.13218">
        <ele>219.36</ele>
        <time>2024-12-30T12:57:44.021Z</time>
      </trkpt>
      <trkpt lat="48.33671" lon="5.13233">
        <ele>219.4</ele>
        <time>2024-12-30T12:57:46.900Z</time>
      </trkpt>
      <trkpt lat="48.33693" lon="5.13245">
        <ele>219.45</ele>
        <time>2024-12-30T12:57:49.782Z</time>
      </trkpt>
      <trkpt lat="48.33714" lon="5.13257">
        <ele>219.41</ele>
        <time>2024-12-30T12:57:52.668Z</time>
      </trkpt>
      <trkpt lat="48.33744" lon="5.1327">
        <ele>219.45</ele>
        <time>2024-12-30T12:57:55.559Z</time>
      </trkpt>
      <trkpt lat="48.33773" lon="5.13283">
        <ele>219.61</ele>
        <time>2024-12-30T12:57:58.455Z</time>
      </trkpt>
      <trkpt lat="48.33803" lon="5.13296">
        <ele>219.4</ele>
        <time>2024-12-30T12:58:01.356Z</time>
      </trkpt>
      <trkpt lat="48.33832" lon="5.13309">
        <ele>219.29</ele>
        <time>2024-12-30T12:58:04.262Z</time>
      </trkpt>
      <trkpt lat="48.33862" lon="5.13322">
        <ele>219.18</ele>
        <time>2024-12-30T12:58:07.173Z</time>
      </trkpt>
      <trkpt lat="48.33891" lon="5.13336">
        <ele>219.04</ele>
        <time>2024-12-30T12:58:10.088Z</time>
      </trkpt>
      <trkpt lat="48.33921" lon="5.13349">
        <ele>218.93</ele>
        <time>2024-12-30T12:58:13.008Z</time>
      </trkpt>
      <trkpt lat="48.3395" lon="5.13362">
        <ele>218.77</ele>
        <time>2024-12-30T12:58:15.933Z</time>
      </trkpt>
      <trkpt lat="48.33975" lon="5.13381">
        <ele>218.44</ele>
        <time>2024-12-30T12:58:18.863Z</time>
      </trkpt>
      <trkpt lat="48.34" lon="5.13399">
        <ele>218.13</ele>
        <time>2024-12-30T12:58:21.797Z</time>
      </trkpt>
      <trkpt lat="48.34025" lon="5.13418">
        <ele>217.83</ele>
        <time>2024-12-30T12:58:24.736Z</time>
      </trkpt>
      <trkpt lat="48.3405" lon="5.1344">
        <ele>217.36</ele>
        <time>2024-12-30T12:58:27.679Z</time>
      </trkpt>
      <trkpt lat="48.34074" lon="5.13463">
        <ele>216.91</ele>
        <time>2024-12-30T12:58:30.627Z</time>
      </trkpt>
      <trkpt lat="48.34096" lon="5.13491">
        <ele>216.55</ele>
        <time>2024-12-30T12:58:33.580Z</time>
      </trkpt>
      <trkpt lat="48.34117" lon="5.1352">
        <ele>216.36</ele>
        <time>2024-12-30T12:58:36.537Z</time>
      </trkpt>
      <trkpt lat="48.34139" lon="5.13549">
        <ele>216.14</ele>
        <time>2024-12-30T12:58:39.499Z</time>
      </trkpt>
      <trkpt lat="48.3416" lon="5.13579">
        <ele>215.88</ele>
        <time>2024-12-30T12:58:42.465Z</time>
      </trkpt>
      <trkpt lat="48.34184" lon="5.13607">
        <ele>215.65</ele>
        <time>2024-12-30T12:58:45.436Z</time>
      </trkpt>
      <trkpt lat="48.34208" lon="5.13636">
        <ele>215.42</ele>
        <time>2024-12-30T12:58:48.412Z</time>
      </trkpt>
      <trkpt lat="48.34231" lon="5.13664">
        <ele>215.14</ele>
        <time>2024-12-30T12:58:51.393Z</time>
      </trkpt>
      <trkpt lat="48.34258" lon="5.13687">
        <ele>214.9</ele>
        <time>2024-12-30T12:58:54.379Z</time>
      </trkpt>
      <trkpt lat="48.34285" lon="5.1371">
        <ele>214.73</ele>
        <time>2024-12-30T12:58:57.370Z</time>
      </trkpt>
      <trkpt lat="48.343" lon="5.13716">
        <ele>214.58</ele>
        <time>2024-12-30T12:59:00.363Z</time>
      </trkpt>
      <trkpt lat="48.34321" lon="5.13722">
        <ele>214.42</ele>
        <time>2024-12-30T12:59:03.360Z</time>
      </trkpt>
      <trkpt lat="48.34345" lon="5.13733">
        <ele>214.22</ele>
        <time>2024-12-30T12:59:06.361Z</time>
      </trkpt>
      <trkpt lat="48.3436" lon="5.13741">
        <ele>214.03</ele>
        <time>2024-12-30T12:59:09.364Z</time>
      </trkpt>
      <trkpt lat="48.34375" lon="5.13748">
        <ele>213.91</ele>
        <time>2024-12-30T12:59:12.370Z</time>
      </trkpt>
      <trkpt lat="48.34399" lon="5.13766">
        <ele>213.8</ele>
        <time>2024-12-30T12:59:15.380Z</time>
      </trkpt>
      <trkpt lat="48.34422" lon="5.13785">
        <ele>213.66</ele>
        <time>2024-12-30T12:59:18.394Z</time>
      </trkpt>
      <trkpt lat="48.34425" lon="5.13787">
        <ele>213.51</ele>
        <time>2024-12-30T12:59:21.409Z</time>
      </trkpt>
      <trkpt lat="48.34425" lon="5.13787">
        <ele>213.36</ele>
        <time>2024-12-30T12:59:24.424Z</time>
      </trkpt>
      <trkpt lat="48.34429" lon="5.13789">
        <ele>213.21</ele>
        <time>2024-12-30T12:59:27.440Z</time>
      </trkpt>
      <trkpt lat="48.3445" lon="5.13808">
        <ele>213.05</ele>
        <time>2024-12-30T12:59:30.460Z</time>
      </trkpt>
      <trkpt lat="48.34471" lon="5.13828">
        <ele>212.85</ele>
        <time>2024-12-30T12:59:33.484Z</time>
      </trkpt>
      <trkpt lat="48.34465" lon="5.13853">
        <ele>212.56</ele>
        <time>2024-12-30T12:59:36.511Z</time>
      </trkpt>
      <trkpt lat="48.34459" lon="5.13879">
        <ele>212.27</ele>
        <time>2024-12-30T12:59:39.540Z</time>
      </trkpt>
      <trkpt lat="48.34444" lon="5.13901">
        <ele>212.01</ele>
        <time>2024-12-30T12:59:42.573Z</time>
      </trkpt>
      <trkpt lat="48.34437" lon="5.13903">
        <ele>211.87</ele>
        <time>2024-12-30T12:59:45.607Z</time>
      </trkpt>
      <trkpt lat="48.3442" lon="5.13895">
        <ele>211.79</ele>
        <time>2024-12-30T12:59:48.644Z</time>
      </trkpt>
      <trkpt lat="48.34404" lon="5.13888">
        <ele>211.7</ele>
        <time>2024-12-30T12:59:51.683Z</time>
      </trkpt>
      <trkpt lat="48.3442" lon="5.13895">
        <ele>211.64</ele>
        <time>2024-12-30T12:59:54.725Z</time>
      </trkpt>
      <trkpt lat="48.34437" lon="5.13903">
        <ele>211.87</ele>
        <time>2024-12-30T12:59:57.770Z</time>
      </trkpt>
      <trkpt lat="48.34444" lon="5.13901">
        <ele>212.01</ele>
        <time>2024-12-30T13:00:00.816Z</time>
      </trkpt>
      <trkpt lat="48.34459" lon="5.13879">
        <ele>212.27</ele>
        <time>2024-12-30T13:00:03.865Z</time>
      </trkpt>
      <trkpt lat="48.34465" lon="5.13853">
        <ele>211.76</ele>
        <time>2024-12-30T13:00:06.917Z</time>
      </trkpt>
      <trkpt lat="48.34471" lon="5.13828">
        <ele>211.84</ele>
        <time>2024-12-30T13:00:09.972Z</time>
      </trkpt>
      <trkpt lat="48.3445" lon="5.13808">
        <ele>211.81</ele>
        <time>2024-12-30T13:00:13.031Z</time>
      </trkpt>
      <trkpt lat="48.34429" lon="5.13789">
        <ele>213.21</ele>
        <time>2024-12-30T13:00:16.094Z</time>
      </trkpt>
      <trkpt lat="48.34422" lon="5.13785">
        <ele>213.66</ele>
        <time>2024-12-30T13:00:19.158Z</time>
      </trkpt>
      <trkpt lat="48.34398" lon="5.13766">
        <ele>211.41</ele>
        <time>2024-12-30T13:00:22.227Z</time>
      </trkpt>
      <trkpt lat="48.34375" lon="5.13748">
        <ele>213.91</ele>
        <time>2024-12-30T13:00:25.300Z</time>
      </trkpt>
      <trkpt lat="48.3436" lon="5.13741">
        <ele>210.91</ele>
        <time>2024-12-30T13:00:28.375Z</time>
      </trkpt>
      <trkpt lat="48.34345" lon="5.13733">
        <ele>214.22</ele>
        <time>2024-12-30T13:00:31.453Z</time>
      </trkpt>
      <trkpt lat="48.34321" lon="5.13722">
        <ele>214.42</ele>
        <time>2024-12-30T13:00:34.535Z</time>
      </trkpt>
      <trkpt lat="48.343" lon="5.13716">
        <ele>214.58</ele>
        <time>2024-12-30T13:00:37.620Z</time>
      </trkpt>
      <trkpt lat="48.34285" lon="5.1371">
        <ele>214.73</ele>
        <time>2024-12-30T13:00:40.708Z</time>
      </trkpt>
      <trkpt lat="48.34277" lon="5.13744">
        <ele>209.29</ele>
        <time>2024-12-30T13:00:43.800Z</time>
      </trkpt>
      <trkpt lat="48.3427" lon="5.13778">
        <ele>208.82</ele>
        <time>2024-12-30T13:00:46.896Z</time>
      </trkpt>
      <trkpt lat="48.34253" lon="5.13812">
        <ele>208.4</ele>
        <time>2024-12-30T13:00:49.996Z</time>
      </trkpt>
      <trkpt lat="48.34235" lon="5.13845">
        <ele>208</ele>
        <time>2024-12-30T13:00:53.101Z</time>
      </trkpt>
      <trkpt lat="48.34219" lon="5.13862">
        <ele>207.57</ele>
        <time>2024-12-30T13:00:56.209Z</time>
      </trkpt>
      <trkpt lat="48.34203" lon="5.13879">
        <ele>207.21</ele>
        <time>2024-12-30T13:00:59.320Z</time>
      </trkpt>
      <trkpt lat="48.34195" lon="5.13888">
        <ele>206.89</ele>
        <time>2024-12-30T13:01:02.433Z</time>
      </trkpt>
      <trkpt lat="48.34172" lon="5.13909">
        <ele>206.58</ele>
        <time>2024-12-30T13:01:05.550Z</time>
      </trkpt>
      <trkpt lat="48.3415" lon="5.1393">
        <ele>206.37</ele>
        <time>2024-12-30T13:01:08.671Z</time>
      </trkpt>
      <trkpt lat="48.34127" lon="5.1395">
        <ele>206.18</ele>
        <time>2024-12-30T13:01:11.796Z</time>
      </trkpt>
      <trkpt lat="48.34105" lon="5.13971">
        <ele>205.98</ele>
        <time>2024-12-30T13:01:14.926Z</time>
      </trkpt>
      <trkpt lat="48.34081" lon="5.13986">
        <ele>205.69</ele>
        <time>2024-12-30T13:01:18.060Z</time>
      </trkpt>
      <trkpt lat="48.34064" lon="5.14001">
        <ele>205.49</ele>
        <time>2024-12-30T13:01:21.197Z</time>
      </trkpt>
      <trkpt lat="48.34038" lon="5.14019">
        <ele>205.29</ele>
        <time>2024-12-30T13:01:24.338Z</time>
      </trkpt>
      <trkpt lat="48.34029" lon="5.14025">
        <ele>205.12</ele>
        <time>2024-12-30T13:01:27.481Z</time>
      </trkpt>
      <trkpt lat="48.34014" lon="5.14034">
        <ele>205</ele>
        <time>2024-12-30T13:01:30.626Z</time>
      </trkpt>
      <trkpt lat="48.33997" lon="5.14036">
        <ele>204.9</ele>
        <time>2024-12-30T13:01:33.774Z</time>
      </trkpt>
      <trkpt lat="48.33978" lon="5.14036">
        <ele>204.85</ele>
        <time>2024-12-30T13:01:36.925Z</time>
      </trkpt>
      <trkpt lat="48.33965" lon="5.14044">
        <ele>204.79</ele>
        <time>2024-12-30T13:01:40.079Z</time>
      </trkpt>
      <trkpt lat="48.33961" lon="5.14049">
        <ele>204.75</ele>
        <time>2024-12-30T13:01:43.233Z</time>
      </trkpt>
      <trkpt lat="48.33954" lon="5.14057">
        <ele>204.74</ele>
        <time>2024-12-30T13:01:46.389Z</time>
      </trkpt>
      <trkpt lat="48.33948" lon="5.14066">
        <ele>204.73</ele>
        <time>2024-12-30T13:01:49.546Z</time>
      </trkpt>
      <trkpt lat="48.33933" lon="5.14039">
        <ele>204.73</ele>
        <time>2024-12-30T13:01:52.707Z</time>
      </trkpt>
      <trkpt lat="48.33918" lon="5.14011">
        <ele>204.71</ele>
        <time>2024-12-30T13:01:55.872Z</time>
      </trkpt>
      <trkpt lat="48.33903" lon="5.13984">
        <ele>204.73</ele>
        <time>2024-12-30T13:01:59.040Z</time>
      </trkpt>
      <trkpt lat="48.33892" lon="5.13973">
        <ele>204.77</ele>
        <time>2024-12-30T13:02:02.211Z</time>
      </trkpt>
      <trkpt lat="48.33874" lon="5.13943">
        <ele>204.84</ele>
        <time>2024-12-30T13:02:05.386Z</time>
      </trkpt>
      <trkpt lat="48.33856" lon="5.13913">
        <ele>204.91</ele>
        <time>2024-12-30T13:02:08.565Z</time>
      </trkpt>
      <trkpt lat="48.33841" lon="5.13893">
        <ele>205</ele>
        <time>2024-12-30T13:02:11.747Z</time>
      </trkpt>
      <trkpt lat="48.33826" lon="5.13873">
        <ele>205.07</ele>
        <time>2024-12-30T13:02:14.933Z</time>
      </trkpt>
      <trkpt lat="48.33807" lon="5.13851">
        <ele>205.1</ele>
        <time>2024-12-30T13:02:18.122Z</time>
      </trkpt>
      <trkpt lat="48.33789" lon="5.1383">
        <ele>205.06</ele>
        <time>2024-12-30T13:02:21.315Z</time>
      </trkpt>
      <trkpt lat="48.33773" lon="5.13816">
        <ele>205.05</ele>
        <time>2024-12-30T13:02:24.511Z</time>
      </trkpt>
      <trkpt lat="48.33757" lon="5.13802">
        <ele>205.09</ele>
        <time>2024-12-30T13:02:27.710Z</time>
      </trkpt>
      <trkpt lat="48.33728" lon="5.13786">
        <ele>205.13</ele>
        <time>2024-12-30T13:02:30.914Z</time>
      </trkpt>
      <trkpt lat="48.33699" lon="5.1377">
        <ele>205.17</ele>
        <time>2024-12-30T13:02:34.123Z</time>
      </trkpt>
      <trkpt lat="48.33678" lon="5.13764">
        <ele>205.22</ele>
        <time>2024-12-30T13:02:37.335Z</time>
      </trkpt>
      <trkpt lat="48.33658" lon="5.13758">
        <ele>205.27</ele>
        <time>2024-12-30T13:02:40.551Z</time>
      </trkpt>
      <trkpt lat="48.33637" lon="5.13752">
        <ele>205.34</ele>
        <time>2024-12-30T13:02:43.770Z</time>
      </trkpt>
      <trkpt lat="48.33615" lon="5.13753">
        <ele>205.4</ele>
        <time>2024-12-30T13:02:46.993Z</time>
      </trkpt>
      <trkpt lat="48.33592" lon="5.13754">
        <ele>205.45</ele>
        <time>2024-12-30T13:02:50.219Z</time>
      </trkpt>
      <trkpt lat="48.3357" lon="5.13755">
        <ele>205.54</ele>
        <time>2024-12-30T13:02:53.449Z</time>
      </trkpt>
      <trkpt lat="48.33546" lon="5.13762">
        <ele>205.7</ele>
        <time>2024-12-30T13:02:56.683Z</time>
      </trkpt>
      <trkpt lat="48.33522" lon="5.13769">
        <ele>205.83</ele>
        <time>2024-12-30T13:02:59.921Z</time>
      </trkpt>
      <trkpt lat="48.33497" lon="5.13776">
        <ele>205.98</ele>
        <time>2024-12-30T13:03:03.163Z</time>
      </trkpt>
      <trkpt lat="48.33467" lon="5.13787">
        <ele>206.15</ele>
        <time>2024-12-30T13:03:06.410Z</time>
      </trkpt>
      <trkpt lat="48.33437" lon="5.13798">
        <ele>206.36</ele>
        <time>2024-12-30T13:03:09.662Z</time>
      </trkpt>
      <trkpt lat="48.33407" lon="5.13809">
        <ele>206.59</ele>
        <time>2024-12-30T13:03:12.918Z</time>
      </trkpt>
      <trkpt lat="48.33377" lon="5.1382">
        <ele>206.81</ele>
        <time>2024-12-30T13:03:16.179Z</time>
      </trkpt>
      <trkpt lat="48.33347" lon="5.13831">
        <ele>207.12</ele>
        <time>2024-12-30T13:03:19.445Z</time>
      </trkpt>
      <trkpt lat="48.33317" lon="5.13842">
        <ele>207.45</ele>
        <time>2024-12-30T13:03:22.716Z</time>
      </trkpt>
      <trkpt lat="48.33287" lon="5.13853">
        <ele>207.84</ele>
        <time>2024-12-30T13:03:25.992Z</time>
      </trkpt>
      <trkpt lat="48.33263" lon="5.13861">
        <ele>208.27</ele>
        <time>2024-12-30T13:03:29.272Z</time>
      </trkpt>
      <trkpt lat="48.33238" lon="5.13869">
        <ele>208.74</ele>
        <time>2024-12-30T13:03:32.556Z</time>
      </trkpt>
      <trkpt lat="48.33214" lon="5.13877">
        <ele>209.26</ele>
        <time>2024-12-30T13:03:35.844Z</time>
      </trkpt>
      <trkpt lat="48.33185" lon="5.13894">
        <ele>209.86</ele>
        <time>2024-12-30T13:03:39.137Z</time>
      </trkpt>
      <trkpt lat="48.33156" lon="5.13911">
        <ele>210.42</ele>
        <time>2024-12-30T13:03:42.435Z</time>
      </trkpt>
      <trkpt lat="48.33139" lon="5.13931">
        <ele>211.11</ele>
        <time>2024-12-30T13:03:45.737Z</time>
      </trkpt>
      <trkpt lat="48.3313" lon="5.13946">
        <ele>211.8</ele>
        <time>2024-12-30T13:03:49.041Z</time>
      </trkpt>
      <trkpt lat="48.33122" lon="5.13969">
        <ele>212.56</ele>
        <time>2024-12-30T13:03:52.348Z</time>
      </trkpt>
      <trkpt lat="48.33113" lon="5.14006">
        <ele>213.36</ele>
        <time>2024-12-30T13:03:55.659Z</time>
      </trkpt>
      <trkpt lat="48.33116" lon="5.14037">
        <ele>214.24</ele>
        <time>2024-12-30T13:03:58.973Z</time>
      </trkpt>
      <trkpt lat="48.3312" lon="5.14068">
        <ele>215.22</ele>
        <time>2024-12-30T13:04:02.291Z</time>
      </trkpt>
      <trkpt lat="48.33116" lon="5.14093">
        <ele>216.1</ele>
        <time>2024-12-30T13:04:05.611Z</time>
      </trkpt>
      <trkpt lat="48.33113" lon="5.14117">
        <ele>216.93</ele>
        <time>2024-12-30T13:04:08.934Z</time>
      </trkpt>
      <trkpt lat="48.33106" lon="5.14162">
        <ele>217.65</ele>
        <time>2024-12-30T13:04:12.262Z</time>
      </trkpt>
      <trkpt lat="48.33099" lon="5.14206">
        <ele>218.39</ele>
        <time>2024-12-30T13:04:15.595Z</time>
      </trkpt>
      <trkpt lat="48.33091" lon="5.1425">
        <ele>219.27</ele>
        <time>2024-12-30T13:04:18.933Z</time>
      </trkpt>
      <trkpt lat="48.33084" lon="5.14295">
        <ele>220.15</ele>
        <time>2024-12-30T13:04:22.275Z</time>
      </trkpt>
      <trkpt lat="48.33077" lon="5.14338">
        <ele>220.87</ele>
        <time>2024-12-30T13:04:25.622Z</time>
      </trkpt>
      <trkpt lat="48.33069" lon="5.14372">
        <ele>221.54</ele>
        <time>2024-12-30T13:04:28.973Z</time>
      </trkpt>
      <trkpt lat="48.33061" lon="5.14406">
        <ele>222.29</ele>
        <time>2024-12-30T13:04:32.328Z</time>
      </trkpt>
      <trkpt lat="48.33053" lon="5.14439">
        <ele>222.98</ele>
        <time>2024-12-30T13:04:35.687Z</time>
      </trkpt>
      <trkpt lat="48.33049" lon="5.14441">
        <ele>223.43</ele>
        <time>2024-12-30T13:04:39.046Z</time>
      </trkpt>
      <trkpt lat="48.33041" lon="5.1447">
        <ele>223.82</ele>
        <time>2024-12-30T13:04:42.409Z</time>
      </trkpt>
      <trkpt lat="48.33034" lon="5.14499">
        <ele>224.15</ele>
        <time>2024-12-30T13:04:45.775Z</time>
      </trkpt>
      <trkpt lat="48.33021" lon="5.14529">
        <ele>224.49</ele>
        <time>2024-12-30T13:04:49.145Z</time>
      </trkpt>
      <trkpt lat="48.33008" lon="5.14558">
        <ele>224.89</ele>
        <time>2024-12-30T13:04:52.518Z</time>
      </trkpt>
      <trkpt lat="48.32995" lon="5.14587">
        <ele>225.2</ele>
        <time>2024-12-30T13:04:55.895Z</time>
      </trkpt>
      <trkpt lat="48.32979" lon="5.14617">
        <ele>225.47</ele>
        <time>2024-12-30T13:04:59.276Z</time>
      </trkpt>
      <trkpt lat="48.32963" lon="5.14647">
        <ele>225.69</ele>
        <time>2024-12-30T13:05:02.661Z</time>
      </trkpt>
      <trkpt lat="48.32946" lon="5.14677">
        <ele>225.86</ele>
        <time>2024-12-30T13:05:06.051Z</time>
      </trkpt>
      <trkpt lat="48.3293" lon="5.14708">
        <ele>225.99</ele>
        <time>2024-12-30T13:05:09.445Z</time>
      </trkpt>
      <trkpt lat="48.32914" lon="5.14737">
        <ele>226.13</ele>
        <time>2024-12-30T13:05:12.843Z</time>
      </trkpt>
      <trkpt lat="48.32897" lon="5.14765">
        <ele>226.21</ele>
        <time>2024-12-30T13:05:16.245Z</time>
      </trkpt>
      <trkpt lat="48.32881" lon="5.14793">
        <ele>226.25</ele>
        <time>2024-12-30T13:05:19.651Z</time>
      </trkpt>
      <trkpt lat="48.32864" lon="5.14821">
        <ele>226.18</ele>
        <time>2024-12-30T13:05:23.061Z</time>
      </trkpt>
      <trkpt lat="48.32847" lon="5.14843">
        <ele>225.98</ele>
        <time>2024-12-30T13:05:26.474Z</time>
      </trkpt>
      <trkpt lat="48.3283" lon="5.14864">
        <ele>225.84</ele>
        <time>2024-12-30T13:05:29.891Z</time>
      </trkpt>
      <trkpt lat="48.32813" lon="5.14883">
        <ele>225.63</ele>
        <time>2024-12-30T13:05:33.311Z</time>
      </trkpt>
      <trkpt lat="48.32789" lon="5.14898">
        <ele>225.3</ele>
        <time>2024-12-30T13:05:36.736Z</time>
      </trkpt>
      <trkpt lat="48.32776" lon="5.14913">
        <ele>225.08</ele>
        <time>2024-12-30T13:05:40.163Z</time>
      </trkpt>
      <trkpt lat="48.32763" lon="5.14928">
        <ele>224.84</ele>
        <time>2024-12-30T13:05:43.593Z</time>
      </trkpt>
      <trkpt lat="48.32738" lon="5.14946">
        <ele>224.45</ele>
        <time>2024-12-30T13:05:47.027Z</time>
      </trkpt>
      <trkpt lat="48.32716" lon="5.14954">
        <ele>223.94</ele>
        <time>2024-12-30T13:05:50.465Z</time>
      </trkpt>
      <trkpt lat="48.32693" lon="5.14963">
        <ele>223.4</ele>
        <time>2024-12-30T13:05:53.907Z</time>
      </trkpt>
      <trkpt lat="48.32671" lon="5.14971">
        <ele>222.8</ele>
        <time>2024-12-30T13:05:57.352Z</time>
      </trkpt>
      <trkpt lat="48.32648" lon="5.14973">
        <ele>222.1</ele>
        <time>2024-12-30T13:06:00.801Z</time>
      </trkpt>
      <trkpt lat="48.32624" lon="5.14976">
        <ele>221.42</ele>
        <time>2024-12-30T13:06:04.254Z</time>
      </trkpt>
      <trkpt lat="48.32597" lon="5.14973">
        <ele>220.83</ele>
        <time>2024-12-30T13:06:07.711Z</time>
      </trkpt>
      <trkpt lat="48.3257" lon="5.14971">
        <ele>220.15</ele>
        <time>2024-12-30T13:06:11.172Z</time>
      </trkpt>
      <trkpt lat="48.32544" lon="5.14963">
        <ele>219.39</ele>
        <time>2024-12-30T13:06:14.638Z</time>
      </trkpt>
      <trkpt lat="48.32517" lon="5.14954">
        <ele>218.65</ele>
        <time>2024-12-30T13:06:18.108Z</time>
      </trkpt>
      <trkpt lat="48.32491" lon="5.14946">
        <ele>217.94</ele>
        <time>2024-12-30T13:06:21.582Z</time>
      </trkpt>
      <trkpt lat="48.32478" lon="5.14948">
        <ele>217.25</ele>
        <time>2024-12-30T13:06:25.059Z</time>
      </trkpt>
      <trkpt lat="48.32478" lon="5.14948">
        <ele>216.55</ele>
        <time>2024-12-30T13:06:28.536Z</time>
      </trkpt>
      <trkpt lat="48.32465" lon="5.14948">
        <ele>215.87</ele>
        <time>2024-12-30T13:06:32.015Z</time>
      </trkpt>
      <trkpt lat="48.32457" lon="5.14943">
        <ele>215.16</ele>
        <time>2024-12-30T13:06:35.495Z</time>
      </trkpt>
      <trkpt lat="48.32444" lon="5.14928">
        <ele>214.43</ele>
        <time>2024-12-30T13:06:38.978Z</time>
      </trkpt>
      <trkpt lat="48.32431" lon="5.14913">
        <ele>213.69</ele>
        <time>2024-12-30T13:06:42.463Z</time>
      </trkpt>
      <trkpt lat="48.32412" lon="5.149">
        <ele>215.89</ele>
        <time>2024-12-30T13:06:45.952Z</time>
      </trkpt>
      <trkpt lat="48.32392" lon="5.14882">
        <ele>212.31</ele>
        <time>2024-12-30T13:06:49.444Z</time>
      </trkpt>
      <trkpt lat="48.32373" lon="5.14863">
        <ele>211.71</ele>
        <time>2024-12-30T13:06:52.940Z</time>
      </trkpt>
      <trkpt lat="48.32354" lon="5.14845">
        <ele>213.89</ele>
        <time>2024-12-30T13:06:56.440Z</time>
      </trkpt>
      <trkpt lat="48.32339" lon="5.14825">
        <ele>213.24</ele>
        <time>2024-12-30T13:06:59.943Z</time>
      </trkpt>
      <trkpt lat="48.3232" lon="5.1481">
        <ele>210.09</ele>
        <time>2024-12-30T13:07:03.449Z</time>
      </trkpt>
      <trkpt lat="48.32301" lon="5.14794">
        <ele>209.6</ele>
        <time>2024-12-30T13:07:06.959Z</time>
      </trkpt>
      <trkpt lat="48.32283" lon="5.14778">
        <ele>211.41</ele>
        <time>2024-12-30T13:07:10.472Z</time>
      </trkpt>
      <trkpt lat="48.32259" lon="5.14758">
        <ele>208.77</ele>
        <time>2024-12-30T13:07:13.989Z</time>
      </trkpt>
      <trkpt lat="48.32236" lon="5.14737">
        <ele>208.36</ele>
        <time>2024-12-30T13:07:17.511Z</time>
      </trkpt>
      <trkpt lat="48.32212" lon="5.14716">
        <ele>208.01</ele>
        <time>2024-12-30T13:07:21.037Z</time>
      </trkpt>
      <trkpt lat="48.32188" lon="5.14696">
        <ele>207.77</ele>
        <time>2024-12-30T13:07:24.568Z</time>
      </trkpt>
      <trkpt lat="48.32165" lon="5.14675">
        <ele>209.01</ele>
        <time>2024-12-30T13:07:28.103Z</time>
      </trkpt>
      <trkpt lat="48.32171" lon="5.14664">
        <ele>208.7</ele>
        <time>2024-12-30T13:07:31.639Z</time>
      </trkpt>
      <trkpt lat="48.32176" lon="5.14656">
        <ele>208.44</ele>
        <time>2024-12-30T13:07:35.177Z</time>
      </trkpt>
      <trkpt lat="48.3218" lon="5.14647">
        <ele>208.24</ele>
        <time>2024-12-30T13:07:38.716Z</time>
      </trkpt>
      <trkpt lat="48.3216" lon="5.14635">
        <ele>207.37</ele>
        <time>2024-12-30T13:07:42.258Z</time>
      </trkpt>
      <trkpt lat="48.32141" lon="5.14624">
        <ele>208.1</ele>
        <time>2024-12-30T13:07:45.803Z</time>
      </trkpt>
      <trkpt lat="48.32125" lon="5.14605">
        <ele>207.59</ele>
        <time>2024-12-30T13:07:49.352Z</time>
      </trkpt>
      <trkpt lat="48.32109" lon="5.14587">
        <ele>208.11</ele>
        <time>2024-12-30T13:07:52.904Z</time>
      </trkpt>
      <trkpt lat="48.32088" lon="5.14568">
        <ele>207.88</ele>
        <time>2024-12-30T13:07:56.460Z</time>
      </trkpt>
      <trkpt lat="48.32067" lon="5.1455">
        <ele>208.04</ele>
        <time>2024-12-30T13:08:00.020Z</time>
      </trkpt>
      <trkpt lat="48.32046" lon="5.14531">
        <ele>208.26</ele>
        <time>2024-12-30T13:08:03.584Z</time>
      </trkpt>
      <trkpt lat="48.32025" lon="5.14512">
        <ele>208.52</ele>
        <time>2024-12-30T13:08:07.152Z</time>
      </trkpt>
      <trkpt lat="48.32004" lon="5.14483">
        <ele>208.79</ele>
        <time>2024-12-30T13:08:10.724Z</time>
      </trkpt>
      <trkpt lat="48.31982" lon="5.14454">
        <ele>208.92</ele>
        <time>2024-12-30T13:08:14.301Z</time>
      </trkpt>
      <trkpt lat="48.31963" lon="5.14419">
        <ele>209.38</ele>
        <time>2024-12-30T13:08:17.883Z</time>
      </trkpt>
      <trkpt lat="48.31944" lon="5.14383">
        <ele>209.47</ele>
        <time>2024-12-30T13:08:21.470Z</time>
      </trkpt>
      <trkpt lat="48.31932" lon="5.14351">
        <ele>210.16</ele>
        <time>2024-12-30T13:08:25.060Z</time>
      </trkpt>
      <trkpt lat="48.31921" lon="5.14319">
        <ele>210.6</ele>
        <time>2024-12-30T13:08:28.654Z</time>
      </trkpt>
      <trkpt lat="48.31909" lon="5.14287">
        <ele>210.6</ele>
        <time>2024-12-30T13:08:32.252Z</time>
      </trkpt>
      <trkpt lat="48.319" lon="5.14242">
        <ele>211.24</ele>
        <time>2024-12-30T13:08:35.855Z</time>
      </trkpt>
      <trkpt lat="48.31891" lon="5.14197">
        <ele>211.56</ele>
        <time>2024-12-30T13:08:39.463Z</time>
      </trkpt>
      <trkpt lat="48.31881" lon="5.14153">
        <ele>211.89</ele>
        <time>2024-12-30T13:08:43.076Z</time>
      </trkpt>
      <trkpt lat="48.31872" lon="5.14108">
        <ele>212.26</ele>
        <time>2024-12-30T13:08:46.694Z</time>
      </trkpt>
      <trkpt lat="48.31862" lon="5.14063">
        <ele>212.63</ele>
        <time>2024-12-30T13:08:50.317Z</time>
      </trkpt>
      <trkpt lat="48.31853" lon="5.14019">
        <ele>212.93</ele>
        <time>2024-12-30T13:08:53.945Z</time>
      </trkpt>
      <trkpt lat="48.31843" lon="5.13974">
        <ele>213.23</ele>
        <time>2024-12-30T13:08:57.578Z</time>
      </trkpt>
      <trkpt lat="48.31834" lon="5.13929">
        <ele>213.45</ele>
        <time>2024-12-30T13:09:01.216Z</time>
      </trkpt>
      <trkpt lat="48.31825" lon="5.13885">
        <ele>213.77</ele>
        <time>2024-12-30T13:09:04.859Z</time>
      </trkpt>
      <trkpt lat="48.31815" lon="5.1384">
        <ele>214.1</ele>
        <time>2024-12-30T13:09:08.507Z</time>
      </trkpt>
      <trkpt lat="48.31806" lon="5.13795">
        <ele>214.4</ele>
        <time>2024-12-30T13:09:12.160Z</time>
      </trkpt>
      <trkpt lat="48.31796" lon="5.13751">
        <ele>214.44</ele>
        <time>2024-12-30T13:09:15.818Z</time>
      </trkpt>
      <trkpt lat="48.31787" lon="5.13707">
        <ele>214.43</ele>
        <time>2024-12-30T13:09:19.481Z</time>
      </trkpt>
      <trkpt lat="48.31782" lon="5.13671">
        <ele>214.78</ele>
        <time>2024-12-30T13:09:23.148Z</time>
      </trkpt>
      <trkpt lat="48.31776" lon="5.13634">
        <ele>214.86</ele>
        <time>2024-12-30T13:09:26.819Z</time>
      </trkpt>
      <trkpt lat="48.31774" lon="5.13613">
        <ele>214.99</ele>
        <time>2024-12-30T13:09:30.492Z</time>
      </trkpt>
      <trkpt lat="48.31776" lon="5.1357">
        <ele>215.04</ele>
        <time>2024-12-30T13:09:34.170Z</time>
      </trkpt>
      <trkpt lat="48.31774" lon="5.13528">
        <ele>215.04</ele>
        <time>2024-12-30T13:09:37.853Z</time>
      </trkpt>
      <trkpt lat="48.31771" lon="5.13486">
        <ele>214.91</ele>
        <time>2024-12-30T13:09:41.540Z</time>
      </trkpt>
      <trkpt lat="48.31769" lon="5.13444">
        <ele>214.82</ele>
        <time>2024-12-30T13:09:45.232Z</time>
      </trkpt>
      <trkpt lat="48.31767" lon="5.13402">
        <ele>214.78</ele>
        <time>2024-12-30T13:09:48.928Z</time>
      </trkpt>
      <trkpt lat="48.31764" lon="5.1336">
        <ele>214.71</ele>
        <time>2024-12-30T13:09:52.629Z</time>
      </trkpt>
      <trkpt lat="48.31762" lon="5.13317">
        <ele>214.67</ele>
        <time>2024-12-30T13:09:56.334Z</time>
      </trkpt>
      <trkpt lat="48.31759" lon="5.13276">
        <ele>214.71</ele>
        <time>2024-12-30T13:10:00.044Z</time>
      </trkpt>
      <trkpt lat="48.31758" lon="5.13234">
        <ele>214.71</ele>
        <time>2024-12-30T13:10:03.758Z</time>
      </trkpt>
      <trkpt lat="48.31756" lon="5.13192">
        <ele>214.63</ele>
        <time>2024-12-30T13:10:07.477Z</time>
      </trkpt>
      <trkpt lat="48.31754" lon="5.1315">
        <ele>214.49</ele>
        <time>2024-12-30T13:10:11.200Z</time>
      </trkpt>
      <trkpt lat="48.31753" lon="5.13109">
        <ele>214.31</ele>
        <time>2024-12-30T13:10:14.927Z</time>
      </trkpt>
      <trkpt lat="48.31756" lon="5.13068">
        <ele>214.1</ele>
        <time>2024-12-30T13:10:18.659Z</time>
      </trkpt>
      <trkpt lat="48.31758" lon="5.13028">
        <ele>213.98</ele>
        <time>2024-12-30T13:10:22.395Z</time>
      </trkpt>
      <trkpt lat="48.31761" lon="5.12987">
        <ele>213.73</ele>
        <time>2024-12-30T13:10:26.136Z</time>
      </trkpt>
      <trkpt lat="48.31764" lon="5.12946">
        <ele>213.41</ele>
        <time>2024-12-30T13:10:29.881Z</time>
      </trkpt>
      <trkpt lat="48.31767" lon="5.12906">
        <ele>213.15</ele>
        <time>2024-12-30T13:10:33.630Z</time>
      </trkpt>
      <trkpt lat="48.31769" lon="5.12865">
        <ele>212.97</ele>
        <time>2024-12-30T13:10:37.384Z</time>
      </trkpt>
      <trkpt lat="48.31772" lon="5.12825">
        <ele>212.68</ele>
        <time>2024-12-30T13:10:41.142Z</time>
      </trkpt>
      <trkpt lat="48.31776" lon="5.12798">
        <ele>212.45</ele>
        <time>2024-12-30T13:10:44.903Z</time>
      </trkpt>
      <trkpt lat="48.31781" lon="5.1277">
        <ele>212.07</ele>
        <time>2024-12-30T13:10:48.667Z</time>
      </trkpt>
      <trkpt lat="48.31788" lon="5.12734">
        <ele>211.84</ele>
        <time>2024-12-30T13:10:52.435Z</time>
      </trkpt>
      <trkpt lat="48.31795" lon="5.12698">
        <ele>211.61</ele>
        <time>2024-12-30T13:10:56.207Z</time>
      </trkpt>
      <trkpt lat="48.31802" lon="5.12662">
        <ele>211.26</ele>
        <time>2024-12-30T13:10:59.983Z</time>
      </trkpt>
      <trkpt lat="48.31813" lon="5.12621">
        <ele>211.32</ele>
        <time>2024-12-30T13:11:03.764Z</time>
      </trkpt>
      <trkpt lat="48.31824" lon="5.12579">
        <ele>211.19</ele>
        <time>2024-12-30T13:11:07.549Z</time>
      </trkpt>
      <trkpt lat="48.31834" lon="5.12538">
        <ele>211.01</ele>
        <time>2024-12-30T13:11:11.339Z</time>
      </trkpt>
      <trkpt lat="48.31845" lon="5.12496">
        <ele>210.78</ele>
        <time>2024-12-30T13:11:15.134Z</time>
      </trkpt>
      <trkpt lat="48.31856" lon="5.12455">
        <ele>210.67</ele>
        <time>2024-12-30T13:11:18.934Z</time>
      </trkpt>
      <trkpt lat="48.31867" lon="5.12414">
        <ele>210.53</ele>
        <time>2024-12-30T13:11:22.738Z</time>
      </trkpt>
      <trkpt lat="48.31877" lon="5.12373">
        <ele>210.05</ele>
        <time>2024-12-30T13:11:26.547Z</time>
      </trkpt>
      <trkpt lat="48.3188" lon="5.12348">
        <ele>210.24</ele>
        <time>2024-12-30T13:11:30.359Z</time>
      </trkpt>
      <trkpt lat="48.31884" lon="5.12323">
        <ele>209.73</ele>
        <time>2024-12-30T13:11:34.173Z</time>
      </trkpt>
      <trkpt lat="48.31885" lon="5.12285">
        <ele>209.97</ele>
        <time>2024-12-30T13:11:37.992Z</time>
      </trkpt>
      <trkpt lat="48.31887" lon="5.12247">
        <ele>209.91</ele>
        <time>2024-12-30T13:11:41.815Z</time>
      </trkpt>
      <trkpt lat="48.31888" lon="5.1221">
        <ele>209.47</ele>
        <time>2024-12-30T13:11:45.642Z</time>
      </trkpt>
      <trkpt lat="48.31888" lon="5.12182">
        <ele>209.76</ele>
        <time>2024-12-30T13:11:49.472Z</time>
      </trkpt>
      <trkpt lat="48.31888" lon="5.12154">
        <ele>209.34</ele>
        <time>2024-12-30T13:11:53.305Z</time>
      </trkpt>
      <trkpt lat="48.31884" lon="5.12128">
        <ele>209.64</ele>
        <time>2024-12-30T13:11:57.140Z</time>
      </trkpt>
      <trkpt lat="48.31879" lon="5.12102">
        <ele>209.29</ele>
        <time>2024-12-30T13:12:00.978Z</time>
      </trkpt>
      <trkpt lat="48.31873" lon="5.12079">
        <ele>209.61</ele>
        <time>2024-12-30T13:12:04.819Z</time>
      </trkpt>
      <trkpt lat="48.31867" lon="5.12055">
        <ele>209.37</ele>
        <time>2024-12-30T13:12:08.663Z</time>
      </trkpt>
      <trkpt lat="48.31849" lon="5.12021">
        <ele>209.54</ele>
        <time>2024-12-30T13:12:12.511Z</time>
      </trkpt>
      <trkpt lat="48.31832" lon="5.11986">
        <ele>209.31</ele>
        <time>2024-12-30T13:12:16.364Z</time>
      </trkpt>
      <trkpt lat="48.31812" lon="5.11964">
        <ele>209.39</ele>
        <time>2024-12-30T13:12:20.221Z</time>
      </trkpt>
      <trkpt lat="48.31791" lon="5.11941">
        <ele>209.37</ele>
        <time>2024-12-30T13:12:24.082Z</time>
      </trkpt>
      <trkpt lat="48.31769" lon="5.11926">
        <ele>209.42</ele>
        <time>2024-12-30T13:12:27.947Z</time>
      </trkpt>
      <trkpt lat="48.31746" lon="5.11911">
        <ele>209.67</ele>
        <time>2024-12-30T13:12:31.816Z</time>
      </trkpt>
      <trkpt lat="48.31716" lon="5.11903">
        <ele>209.88</ele>
        <time>2024-12-30T13:12:35.690Z</time>
      </trkpt>
      <trkpt lat="48.317" lon="5.11902">
        <ele>209.69</ele>
        <time>2024-12-30T13:12:39.566Z</time>
      </trkpt>
      <trkpt lat="48.31684" lon="5.11901">
        <ele>210.33</ele>
        <time>2024-12-30T13:12:43.445Z</time>
      </trkpt>
      <trkpt lat="48.31668" lon="5.11904">
        <ele>209.94</ele>
        <time>2024-12-30T13:12:47.327Z</time>
      </trkpt>
      <trkpt lat="48.31652" lon="5.11907">
        <ele>210.87</ele>
        <time>2024-12-30T13:12:51.211Z</time>
      </trkpt>
      <trkpt lat="48.31635" lon="5.11916">
        <ele>210.18</ele>
        <time>2024-12-30T13:12:55.098Z</time>
      </trkpt>
      <trkpt lat="48.31618" lon="5.11924">
        <ele>211.44</ele>
        <time>2024-12-30T13:12:58.988Z</time>
      </trkpt>
      <trkpt lat="48.31599" lon="5.11942">
        <ele>210.49</ele>
        <time>2024-12-30T13:13:02.881Z</time>
      </trkpt>
      <trkpt lat="48.3158" lon="5.1196">
        <ele>210.7</ele>
        <time>2024-12-30T13:13:06.778Z</time>
      </trkpt>
      <trkpt lat="48.31562" lon="5.11978">
        <ele>212.5</ele>
        <time>2024-12-30T13:13:10.679Z</time>
      </trkpt>
      <trkpt lat="48.31551" lon="5.11948">
        <ele>211.08</ele>
        <time>2024-12-30T13:13:14.583Z</time>
      </trkpt>
      <trkpt lat="48.31538" lon="5.11918">
        <ele>211.22</ele>
        <time>2024-12-30T13:13:18.491Z</time>
      </trkpt>
      <trkpt lat="48.31536" lon="5.11907">
        <ele>211.44</ele>
        <time>2024-12-30T13:13:22.400Z</time>
      </trkpt>
      <trkpt lat="48.31527" lon="5.11873">
        <ele>211.67</ele>
        <time>2024-12-30T13:13:26.313Z</time>
      </trkpt>
      <trkpt lat="48.31529" lon="5.11834">
        <ele>211.98</ele>
        <time>2024-12-30T13:13:30.230Z</time>
      </trkpt>
      <trkpt lat="48.3153" lon="5.11796">
        <ele>212.36</ele>
        <time>2024-12-30T13:13:34.151Z</time>
      </trkpt>
      <trkpt lat="48.31525" lon="5.11774">
        <ele>212.7</ele>
        <time>2024-12-30T13:13:38.075Z</time>
      </trkpt>
      <trkpt lat="48.3151" lon="5.11739">
        <ele>213.05</ele>
        <time>2024-12-30T13:13:42.003Z</time>
      </trkpt>
      <trkpt lat="48.31495" lon="5.11703">
        <ele>213.38</ele>
        <time>2024-12-30T13:13:45.936Z</time>
      </trkpt>
      <trkpt lat="48.31495" lon="5.11703">
        <ele>213.7</ele>
        <time>2024-12-30T13:13:49.869Z</time>
      </trkpt>
      <trkpt lat="48.31481" lon="5.11681">
        <ele>214.03</ele>
        <time>2024-12-30T13:13:53.805Z</time>
      </trkpt>
      <trkpt lat="48.31467" lon="5.11658">
        <ele>214.43</ele>
        <time>2024-12-30T13:13:57.744Z</time>
      </trkpt>
      <trkpt lat="48.31457" lon="5.1165">
        <ele>214.81</ele>
        <time>2024-12-30T13:14:01.685Z</time>
      </trkpt>
      <trkpt lat="48.31444" lon="5.11658">
        <ele>215.1</ele>
        <time>2024-12-30T13:14:05.629Z</time>
      </trkpt>
      <trkpt lat="48.31433" lon="5.1169">
        <ele>215.22</ele>
        <time>2024-12-30T13:14:09.576Z</time>
      </trkpt>
      <trkpt lat="48.3142" lon="5.11697">
        <ele>215.47</ele>
        <time>2024-12-30T13:14:13.526Z</time>
      </trkpt>
      <trkpt lat="48.31409" lon="5.11703">
        <ele>215.71</ele>
        <time>2024-12-30T13:14:17.477Z</time>
      </trkpt>
      <trkpt lat="48.31382" lon="5.11711">
        <ele>216.01</ele>
        <time>2024-12-30T13:14:21.433Z</time>
      </trkpt>
      <trkpt lat="48.31355" lon="5.11719">
        <ele>216.38</ele>
        <time>2024-12-30T13:14:25.393Z</time>
      </trkpt>
      <trkpt lat="48.31328" lon="5.11726">
        <ele>216.77</ele>
        <time>2024-12-30T13:14:29.358Z</time>
      </trkpt>
      <trkpt lat="48.31301" lon="5.11734">
        <ele>217.33</ele>
        <time>2024-12-30T13:14:33.327Z</time>
      </trkpt>
      <trkpt lat="48.31274" lon="5.11742">
        <ele>217.7</ele>
        <time>2024-12-30T13:14:37.300Z</time>
      </trkpt>
      <trkpt lat="48.31258" lon="5.11752">
        <ele>217.99</ele>
        <time>2024-12-30T13:14:41.276Z</time>
      </trkpt>
      <trkpt lat="48.31242" lon="5.11761">
        <ele>218.04</ele>
        <time>2024-12-30T13:14:45.255Z</time>
      </trkpt>
      <trkpt lat="48.31217" lon="5.11787">
        <ele>217.85</ele>
        <time>2024-12-30T13:14:49.239Z</time>
      </trkpt>
      <trkpt lat="48.31192" lon="5.11813">
        <ele>217.8</ele>
        <time>2024-12-30T13:14:53.228Z</time>
      </trkpt>
      <trkpt lat="48.31167" lon="5.11838">
        <ele>217.96</ele>
        <time>2024-12-30T13:14:57.222Z</time>
      </trkpt>
      <trkpt lat="48.31142" lon="5.11864">
        <ele>218.08</ele>
        <time>2024-12-30T13:15:01.220Z</time>
      </trkpt>
      <trkpt lat="48.31117" lon="5.1189">
        <ele>218.16</ele>
        <time>2024-12-30T13:15:05.223Z</time>
      </trkpt>
      <trkpt lat="48.31092" lon="5.11916">
        <ele>218.18</ele>
        <time>2024-12-30T13:15:09.231Z</time>
      </trkpt>
      <trkpt lat="48.31115" lon="5.11914">
        <ele>218.13</ele>
        <time>2024-12-30T13:15:13.243Z</time>
      </trkpt>
      <trkpt lat="48.31134" lon="5.11918">
        <ele>218.05</ele>
        <time>2024-12-30T13:15:17.258Z</time>
      </trkpt>
      <trkpt lat="48.31152" lon="5.11922">
        <ele>218.02</ele>
        <time>2024-12-30T13:15:21.276Z</time>
      </trkpt>
      <trkpt lat="48.31152" lon="5.11922">
        <ele>217.99</ele>
        <time>2024-12-30T13:15:25.294Z</time>
      </trkpt>
      <trkpt lat="48.31152" lon="5.11922">
        <ele>218.02</ele>
        <time>2024-12-30T13:15:29.312Z</time>
      </trkpt>
      <trkpt lat="48.31134" lon="5.11918">
        <ele>217.9</ele>
        <time>2024-12-30T13:15:33.333Z</time>
      </trkpt>
      <trkpt lat="48.31115" lon="5.11914">
        <ele>218.13</ele>
        <time>2024-12-30T13:15:37.357Z</time>
      </trkpt>
      <trkpt lat="48.31092" lon="5.11916">
        <ele>218.18</ele>
        <time>2024-12-30T13:15:41.385Z</time>
      </trkpt>
      <trkpt lat="48.31117" lon="5.1189">
        <ele>217.78</ele>
        <time>2024-12-30T13:15:45.417Z</time>
      </trkpt>
      <trkpt lat="48.31142" lon="5.11864">
        <ele>217.63</ele>
        <time>2024-12-30T13:15:49.454Z</time>
      </trkpt>
      <trkpt lat="48.31167" lon="5.11838">
        <ele>217.44</ele>
        <time>2024-12-30T13:15:53.496Z</time>
      </trkpt>
      <trkpt lat="48.31192" lon="5.11813">
        <ele>217.22</ele>
        <time>2024-12-30T13:15:57.543Z</time>
      </trkpt>
      <trkpt lat="48.31217" lon="5.11787">
        <ele>217.21</ele>
        <time>2024-12-30T13:16:01.595Z</time>
      </trkpt>
      <trkpt lat="48.31242" lon="5.11761">
        <ele>218.04</ele>
        <time>2024-12-30T13:16:05.652Z</time>
      </trkpt>
      <trkpt lat="48.31258" lon="5.11752">
        <ele>217.24</ele>
        <time>2024-12-30T13:16:09.711Z</time>
      </trkpt>
      <trkpt lat="48.31274" lon="5.11742">
        <ele>217.7</ele>
        <time>2024-12-30T13:16:13.773Z</time>
      </trkpt>
      <trkpt lat="48.31301" lon="5.11734">
        <ele>216.5</ele>
        <time>2024-12-30T13:16:17.840Z</time>
      </trkpt>
      <trkpt lat="48.31328" lon="5.11726">
        <ele>215.91</ele>
        <time>2024-12-30T13:16:21.911Z</time>
      </trkpt>
      <trkpt lat="48.31355" lon="5.11719">
        <ele>215.49</ele>
        <time>2024-12-30T13:16:25.986Z</time>
      </trkpt>
      <trkpt lat="48.31382" lon="5.11711">
        <ele>215.11</ele>
        <time>2024-12-30T13:16:30.066Z</time>
      </trkpt>
      <trkpt lat="48.31409" lon="5.11703">
        <ele>215.71</ele>
        <time>2024-12-30T13:16:34.150Z</time>
      </trkpt>
      <trkpt lat="48.3142" lon="5.11697">
        <ele>215.47</ele>
        <time>2024-12-30T13:16:38.236Z</time>
      </trkpt>
      <trkpt lat="48.31433" lon="5.1169">
        <ele>215.22</ele>
        <time>2024-12-30T13:16:42.324Z</time>
      </trkpt>
      <trkpt lat="48.31444" lon="5.11658">
        <ele>215.1</ele>
        <time>2024-12-30T13:16:46.416Z</time>
      </trkpt>
      <trkpt lat="48.31457" lon="5.1165">
        <ele>214.02</ele>
        <time>2024-12-30T13:16:50.510Z</time>
      </trkpt>
      <trkpt lat="48.31457" lon="5.1165">
        <ele>214.81</ele>
        <time>2024-12-30T13:16:54.604Z</time>
      </trkpt>
      <trkpt lat="48.31467" lon="5.11658">
        <ele>214.43</ele>
        <time>2024-12-30T13:16:58.700Z</time>
      </trkpt>
      <trkpt lat="48.31481" lon="5.11681">
        <ele>213.17</ele>
        <time>2024-12-30T13:17:02.800Z</time>
      </trkpt>
      <trkpt lat="48.31495" lon="5.11703">
        <ele>213.7</ele>
        <time>2024-12-30T13:17:06.903Z</time>
      </trkpt>
      <trkpt lat="48.31495" lon="5.11703">
        <ele>213.38</ele>
        <time>2024-12-30T13:17:11.006Z</time>
      </trkpt>
      <trkpt lat="48.3151" lon="5.11739">
        <ele>212.6</ele>
        <time>2024-12-30T13:17:15.113Z</time>
      </trkpt>
      <trkpt lat="48.31525" lon="5.11774">
        <ele>212.7</ele>
        <time>2024-12-30T13:17:19.225Z</time>
      </trkpt>
      <trkpt lat="48.3153" lon="5.11796">
        <ele>212.36</ele>
        <time>2024-12-30T13:17:23.339Z</time>
      </trkpt>
      <trkpt lat="48.31529" lon="5.11834">
        <ele>212.17</ele>
        <time>2024-12-30T13:17:27.457Z</time>
      </trkpt>
      <trkpt lat="48.31527" lon="5.11873">
        <ele>211.67</ele>
        <time>2024-12-30T13:17:31.580Z</time>
      </trkpt>
      <trkpt lat="48.31536" lon="5.11907">
        <ele>211.44</ele>
        <time>2024-12-30T13:17:35.706Z</time>
      </trkpt>
      <trkpt lat="48.31538" lon="5.11918">
        <ele>211.22</ele>
        <time>2024-12-30T13:17:39.834Z</time>
      </trkpt>
      <trkpt lat="48.31551" lon="5.11948">
        <ele>211.08</ele>
        <time>2024-12-30T13:17:43.965Z</time>
      </trkpt>
      <trkpt lat="48.31562" lon="5.11978">
        <ele>212.5</ele>
        <time>2024-12-30T13:17:48.100Z</time>
      </trkpt>
      <trkpt lat="48.31549" lon="5.11995">
        <ele>212.91</ele>
        <time>2024-12-30T13:17:52.238Z</time>
      </trkpt>
      <trkpt lat="48.31531" lon="5.12009">
        <ele>213.1</ele>
        <time>2024-12-30T13:17:56.379Z</time>
      </trkpt>
      <trkpt lat="48.31512" lon="5.12023">
        <ele>213.71</ele>
        <time>2024-12-30T13:18:00.523Z</time>
      </trkpt>
      <trkpt lat="48.31489" lon="5.12048">
        <ele>213.67</ele>
        <time>2024-12-30T13:18:04.672Z</time>
      </trkpt>
      <trkpt lat="48.31465" lon="5.12072">
        <ele>214.6</ele>
        <time>2024-12-30T13:18:08.826Z</time>
      </trkpt>
      <trkpt lat="48.31448" lon="5.12085">
        <ele>214.98</ele>
        <time>2024-12-30T13:18:12.983Z</time>
      </trkpt>
      <trkpt lat="48.31433" lon="5.12107">
        <ele>215.4</ele>
        <time>2024-12-30T13:18:17.143Z</time>
      </trkpt>
      <trkpt lat="48.31419" lon="5.12135">
        <ele>215.06</ele>
        <time>2024-12-30T13:18:21.307Z</time>
      </trkpt>
      <trkpt lat="48.31406" lon="5.12164">
        <ele>215.48</ele>
        <time>2024-12-30T13:18:25.475Z</time>
      </trkpt>
      <trkpt lat="48.31392" lon="5.12192">
        <ele>216.73</ele>
        <time>2024-12-30T13:18:29.646Z</time>
      </trkpt>
      <trkpt lat="48.31379" lon="5.12226">
        <ele>216.3</ele>
        <time>2024-12-30T13:18:33.821Z</time>
      </trkpt>
      <trkpt lat="48.31365" lon="5.12259">
        <ele>216.69</ele>
        <time>2024-12-30T13:18:38.001Z</time>
      </trkpt>
      <trkpt lat="48.31352" lon="5.12292">
        <ele>217.03</ele>
        <time>2024-12-30T13:18:42.185Z</time>
      </trkpt>
      <trkpt lat="48.31339" lon="5.12326">
        <ele>218.27</ele>
        <time>2024-12-30T13:18:46.373Z</time>
      </trkpt>
      <trkpt lat="48.3133" lon="5.12358">
        <ele>217.84</ele>
        <time>2024-12-30T13:18:50.565Z</time>
      </trkpt>
      <trkpt lat="48.31321" lon="5.12391">
        <ele>218.22</ele>
        <time>2024-12-30T13:18:54.760Z</time>
      </trkpt>
      <trkpt lat="48.31313" lon="5.12424">
        <ele>219.28</ele>
        <time>2024-12-30T13:18:58.959Z</time>
      </trkpt>
      <trkpt lat="48.31306" lon="5.12469">
        <ele>218.82</ele>
        <time>2024-12-30T13:19:03.163Z</time>
      </trkpt>
      <trkpt lat="48.31299" lon="5.12513">
        <ele>219.08</ele>
        <time>2024-12-30T13:19:07.372Z</time>
      </trkpt>
      <trkpt lat="48.31293" lon="5.12557">
        <ele>219.27</ele>
        <time>2024-12-30T13:19:11.586Z</time>
      </trkpt>
      <trkpt lat="48.31286" lon="5.12602">
        <ele>219.42</ele>
        <time>2024-12-30T13:19:15.805Z</time>
      </trkpt>
      <trkpt lat="48.31279" lon="5.12646">
        <ele>219.56</ele>
        <time>2024-12-30T13:19:20.029Z</time>
      </trkpt>
      <trkpt lat="48.31273" lon="5.1269">
        <ele>219.77</ele>
        <time>2024-12-30T13:19:24.257Z</time>
      </trkpt>
      <trkpt lat="48.31266" lon="5.12735">
        <ele>219.86</ele>
        <time>2024-12-30T13:19:28.490Z</time>
      </trkpt>
      <trkpt lat="48.31259" lon="5.12778">
        <ele>220.35</ele>
        <time>2024-12-30T13:19:32.728Z</time>
      </trkpt>
      <trkpt lat="48.31257" lon="5.12814">
        <ele>220.06</ele>
        <time>2024-12-30T13:19:36.970Z</time>
      </trkpt>
      <trkpt lat="48.31254" lon="5.1285">
        <ele>220.13</ele>
        <time>2024-12-30T13:19:41.216Z</time>
      </trkpt>
      <trkpt lat="48.31251" lon="5.12886">
        <ele>220.15</ele>
        <time>2024-12-30T13:19:45.466Z</time>
      </trkpt>
      <trkpt lat="48.31249" lon="5.12922">
        <ele>220.39</ele>
        <time>2024-12-30T13:19:49.719Z</time>
      </trkpt>
      <trkpt lat="48.31249" lon="5.12954">
        <ele>220.26</ele>
        <time>2024-12-30T13:19:53.976Z</time>
      </trkpt>
      <trkpt lat="48.31249" lon="5.12985">
        <ele>220.28</ele>
        <time>2024-12-30T13:19:58.236Z</time>
      </trkpt>
      <trkpt lat="48.31249" lon="5.13016">
        <ele>220.34</ele>
        <time>2024-12-30T13:20:02.500Z</time>
      </trkpt>
      <trkpt lat="48.31251" lon="5.13052">
        <ele>220.29</ele>
        <time>2024-12-30T13:20:06.767Z</time>
      </trkpt>
      <trkpt lat="48.31254" lon="5.13088">
        <ele>220.27</ele>
        <time>2024-12-30T13:20:11.038Z</time>
      </trkpt>
      <trkpt lat="48.31257" lon="5.13124">
        <ele>220.28</ele>
        <time>2024-12-30T13:20:15.313Z</time>
      </trkpt>
      <trkpt lat="48.31264" lon="5.13169">
        <ele>220.39</ele>
        <time>2024-12-30T13:20:19.593Z</time>
      </trkpt>
      <trkpt lat="48.3127" lon="5.13215">
        <ele>220.34</ele>
        <time>2024-12-30T13:20:23.878Z</time>
      </trkpt>
      <trkpt lat="48.31276" lon="5.1326">
        <ele>220.21</ele>
        <time>2024-12-30T13:20:28.168Z</time>
      </trkpt>
      <trkpt lat="48.31283" lon="5.13305">
        <ele>220.17</ele>
        <time>2024-12-30T13:20:32.463Z</time>
      </trkpt>
      <trkpt lat="48.31289" lon="5.13351">
        <ele>220.14</ele>
        <time>2024-12-30T13:20:36.763Z</time>
      </trkpt>
      <trkpt lat="48.31296" lon="5.13396">
        <ele>220.05</ele>
        <time>2024-12-30T13:20:41.068Z</time>
      </trkpt>
      <trkpt lat="48.31302" lon="5.13442">
        <ele>219.97</ele>
        <time>2024-12-30T13:20:45.378Z</time>
      </trkpt>
      <trkpt lat="48.31309" lon="5.13487">
        <ele>220.01</ele>
        <time>2024-12-30T13:20:49.693Z</time>
      </trkpt>
      <trkpt lat="48.31315" lon="5.13531">
        <ele>219.87</ele>
        <time>2024-12-30T13:20:54.013Z</time>
      </trkpt>
      <trkpt lat="48.31324" lon="5.13568">
        <ele>220.02</ele>
        <time>2024-12-30T13:20:58.337Z</time>
      </trkpt>
      <trkpt lat="48.31332" lon="5.13604">
        <ele>219.74</ele>
        <time>2024-12-30T13:21:02.665Z</time>
      </trkpt>
      <trkpt lat="48.31332" lon="5.1363">
        <ele>219.68</ele>
        <time>2024-12-30T13:21:06.996Z</time>
      </trkpt>
      <trkpt lat="48.31332" lon="5.1363">
        <ele>219.67</ele>
        <time>2024-12-30T13:21:11.327Z</time>
      </trkpt>
      <trkpt lat="48.31335" lon="5.13669">
        <ele>219.92</ele>
        <time>2024-12-30T13:21:15.662Z</time>
      </trkpt>
      <trkpt lat="48.31338" lon="5.13708">
        <ele>219.91</ele>
        <time>2024-12-30T13:21:20.001Z</time>
      </trkpt>
      <trkpt lat="48.31341" lon="5.13746">
        <ele>219.62</ele>
        <time>2024-12-30T13:21:24.344Z</time>
      </trkpt>
      <trkpt lat="48.31341" lon="5.13789">
        <ele>219.69</ele>
        <time>2024-12-30T13:21:28.692Z</time>
      </trkpt>
      <trkpt lat="48.31338" lon="5.13821">
        <ele>220.01</ele>
        <time>2024-12-30T13:21:33.043Z</time>
      </trkpt>
      <trkpt lat="48.31334" lon="5.13853">
        <ele>219.72</ele>
        <time>2024-12-30T13:21:37.398Z</time>
      </trkpt>
      <trkpt lat="48.31328" lon="5.13881">
        <ele>219.71</ele>
        <time>2024-12-30T13:21:41.756Z</time>
      </trkpt>
      <trkpt lat="48.31321" lon="5.13906">
        <ele>220.01</ele>
        <time>2024-12-30T13:21:46.117Z</time>
      </trkpt>
      <trkpt lat="48.31315" lon="5.13931">
        <ele>219.74</ele>
        <time>2024-12-30T13:21:50.480Z</time>
      </trkpt>
      <trkpt lat="48.31301" lon="5.13968">
        <ele>220.05</ele>
        <time>2024-12-30T13:21:54.848Z</time>
      </trkpt>
      <trkpt lat="48.31286" lon="5.14006">
        <ele>220.05</ele>
        <time>2024-12-30T13:21:59.221Z</time>
      </trkpt>
      <trkpt lat="48.31271" lon="5.14043">
        <ele>219.89</ele>
        <time>2024-12-30T13:22:03.598Z</time>
      </trkpt>
      <trkpt lat="48.31257" lon="5.14081">
        <ele>219.57</ele>
        <time>2024-12-30T13:22:07.980Z</time>
      </trkpt>
      <trkpt lat="48.31245" lon="5.14104">
        <ele>219.51</ele>
        <time>2024-12-30T13:22:12.365Z</time>
      </trkpt>
      <trkpt lat="48.31234" lon="5.14128">
        <ele>219.25</ele>
        <time>2024-12-30T13:22:16.753Z</time>
      </trkpt>
      <trkpt lat="48.31218" lon="5.14151">
        <ele>219.1</ele>
        <time>2024-12-30T13:22:21.145Z</time>
      </trkpt>
      <trkpt lat="48.31202" lon="5.14174">
        <ele>218.96</ele>
        <time>2024-12-30T13:22:25.540Z</time>
      </trkpt>
      <trkpt lat="48.31186" lon="5.14197">
        <ele>218.91</ele>
        <time>2024-12-30T13:22:29.939Z</time>
      </trkpt>
      <trkpt lat="48.31162" lon="5.14219">
        <ele>218.63</ele>
        <time>2024-12-30T13:22:34.342Z</time>
      </trkpt>
      <trkpt lat="48.31138" lon="5.14241">
        <ele>218.29</ele>
        <time>2024-12-30T13:22:38.750Z</time>
      </trkpt>
      <trkpt lat="48.31113" lon="5.14263">
        <ele>218.24</ele>
        <time>2024-12-30T13:22:43.162Z</time>
      </trkpt>
      <trkpt lat="48.31087" lon="5.14279">
        <ele>217.61</ele>
        <time>2024-12-30T13:22:47.579Z</time>
      </trkpt>
      <trkpt lat="48.3106" lon="5.14295">
        <ele>217.75</ele>
        <time>2024-12-30T13:22:52.001Z</time>
      </trkpt>
      <trkpt lat="48.3103" lon="5.14303">
        <ele>217.07</ele>
        <time>2024-12-30T13:22:56.428Z</time>
      </trkpt>
      <trkpt lat="48.31" lon="5.14312">
        <ele>216.85</ele>
        <time>2024-12-30T13:23:00.859Z</time>
      </trkpt>
      <trkpt lat="48.3097" lon="5.1432">
        <ele>216.6</ele>
        <time>2024-12-30T13:23:05.295Z</time>
      </trkpt>
      <trkpt lat="48.3094" lon="5.14328">
        <ele>216.33</ele>
        <time>2024-12-30T13:23:09.736Z</time>
      </trkpt>
      <trkpt lat="48.30911" lon="5.14336">
        <ele>216.14</ele>
        <time>2024-12-30T13:23:14.182Z</time>
      </trkpt>
      <trkpt lat="48.30881" lon="5.14344">
        <ele>215.93</ele>
        <time>2024-12-30T13:23:18.633Z</time>
      </trkpt>
      <trkpt lat="48.30851" lon="5.14352">
        <ele>215.74</ele>
        <time>2024-12-30T13:23:23.089Z</time>
      </trkpt>
      <trkpt lat="48.30821" lon="5.14361">
        <ele>215.55</ele>
        <time>2024-12-30T13:23:27.550Z</time>
      </trkpt>
      <trkpt lat="48.30791" lon="5.14369">
        <ele>215.36</ele>
        <time>2024-12-30T13:23:32.015Z</time>
      </trkpt>
      <trkpt lat="48.30761" lon="5.14377">
        <ele>216.55</ele>
        <time>2024-12-30T13:23:36.485Z</time>
      </trkpt>
      <trkpt lat="48.30761" lon="5.14377">
        <ele>216.5</ele>
        <time>2024-12-30T13:23:40.955Z</time>
      </trkpt>
      <trkpt lat="48.30732" lon="5.14385">
        <ele>215.04</ele>
        <time>2024-12-30T13:23:45.430Z</time>
      </trkpt>
      <trkpt lat="48.30703" lon="5.14393">
        <ele>214.94</ele>
        <time>2024-12-30T13:23:49.910Z</time>
      </trkpt>
      <trkpt lat="48.30673" lon="5.144">
        <ele>214.84</ele>
        <time>2024-12-30T13:23:54.395Z</time>
      </trkpt>
      <trkpt lat="48.30644" lon="5.14408">
        <ele>214.8</ele>
        <time>2024-12-30T13:23:58.884Z</time>
      </trkpt>
      <trkpt lat="48.30615" lon="5.14416">
        <ele>214.83</ele>
        <time>2024-12-30T13:24:03.378Z</time>
      </trkpt>
      <trkpt lat="48.30586" lon="5.14424">
        <ele>214.85</ele>
        <time>2024-12-30T13:24:07.877Z</time>
      </trkpt>
      <trkpt lat="48.30556" lon="5.14432">
        <ele>214.83</ele>
        <time>2024-12-30T13:24:12.381Z</time>
      </trkpt>
      <trkpt lat="48.30527" lon="5.1444">
        <ele>214.88</ele>
        <time>2024-12-30T13:24:16.889Z</time>
      </trkpt>
      <trkpt lat="48.30498" lon="5.14448">
        <ele>216.45</ele>
        <time>2024-12-30T13:24:21.402Z</time>
      </trkpt>
      <trkpt lat="48.30469" lon="5.14458">
        <ele>215.11</ele>
        <time>2024-12-30T13:24:25.920Z</time>
      </trkpt>
      <trkpt lat="48.3044" lon="5.14468">
        <ele>215.21</ele>
        <time>2024-12-30T13:24:30.443Z</time>
      </trkpt>
      <trkpt lat="48.30412" lon="5.14478">
        <ele>216.46</ele>
        <time>2024-12-30T13:24:34.970Z</time>
      </trkpt>
      <trkpt lat="48.30397" lon="5.14485">
        <ele>215.53</ele>
        <time>2024-12-30T13:24:39.500Z</time>
      </trkpt>
      <trkpt lat="48.30382" lon="5.14493">
        <ele>216.5</ele>
        <time>2024-12-30T13:24:44.032Z</time>
      </trkpt>
      <trkpt lat="48.30359" lon="5.14513">
        <ele>216.12</ele>
        <time>2024-12-30T13:24:48.569Z</time>
      </trkpt>
      <trkpt lat="48.30336" lon="5.14533">
        <ele>216.53</ele>
        <time>2024-12-30T13:24:53.110Z</time>
      </trkpt>
      <trkpt lat="48.30313" lon="5.14553">
        <ele>216.79</ele>
        <time>2024-12-30T13:24:57.655Z</time>
      </trkpt>
      <trkpt lat="48.30296" lon="5.14575">
        <ele>217.36</ele>
        <time>2024-12-30T13:25:02.204Z</time>
      </trkpt>
      <trkpt lat="48.3028" lon="5.14597">
        <ele>217.84</ele>
        <time>2024-12-30T13:25:06.756Z</time>
      </trkpt>
      <trkpt lat="48.30264" lon="5.14619">
        <ele>216.9</ele>
        <time>2024-12-30T13:25:11.312Z</time>
      </trkpt>
      <trkpt lat="48.30249" lon="5.14649">
        <ele>218.85</ele>
        <time>2024-12-30T13:25:15.872Z</time>
      </trkpt>
      <trkpt lat="48.30235" lon="5.1468">
        <ele>219.39</ele>
        <time>2024-12-30T13:25:20.436Z</time>
      </trkpt>
      <trkpt lat="48.30221" lon="5.14709">
        <ele>216.95</ele>
        <time>2024-12-30T13:25:25.004Z</time>
      </trkpt>
      <trkpt lat="48.30221" lon="5.14709">
        <ele>216.98</ele>
        <time>2024-12-30T13:25:29.572Z</time>
      </trkpt>
      <trkpt lat="48.30211" lon="5.14742">
        <ele>221.29</ele>
        <time>2024-12-30T13:25:34.143Z</time>
      </trkpt>
      <trkpt lat="48.30201" lon="5.14774">
        <ele>217.13</ele>
        <time>2024-12-30T13:25:38.718Z</time>
      </trkpt>
      <trkpt lat="48.30219" lon="5.14785">
        <ele>222.97</ele>
        <time>2024-12-30T13:25:43.296Z</time>
      </trkpt>
      <trkpt lat="48.30219" lon="5.14785">
        <ele>223.68</ele>
        <time>2024-12-30T13:25:47.874Z</time>
      </trkpt>
      <trkpt lat="48.30227" lon="5.14789">
        <ele>224.6</ele>
        <time>2024-12-30T13:25:52.454Z</time>
      </trkpt>
      <trkpt lat="48.30212" lon="5.14806">
        <ele>225.22</ele>
        <time>2024-12-30T13:25:57.037Z</time>
      </trkpt>
      <trkpt lat="48.30206" lon="5.14834">
        <ele>226</ele>
        <time>2024-12-30T13:26:01.623Z</time>
      </trkpt>
      <trkpt lat="48.30199" lon="5.14862">
        <ele>226.74</ele>
        <time>2024-12-30T13:26:06.212Z</time>
      </trkpt>
      <trkpt lat="48.30185" lon="5.14902">
        <ele>227.52</ele>
        <time>2024-12-30T13:26:10.806Z</time>
      </trkpt>
      <trkpt lat="48.30171" lon="5.14942">
        <ele>228.25</ele>
        <time>2024-12-30T13:26:15.405Z</time>
      </trkpt>
      <trkpt lat="48.30156" lon="5.14982">
        <ele>228.87</ele>
        <time>2024-12-30T13:26:20.008Z</time>
      </trkpt>
      <trkpt lat="48.30143" lon="5.15012">
        <ele>229.47</ele>
        <time>2024-12-30T13:26:24.615Z</time>
      </trkpt>
      <trkpt lat="48.30129" lon="5.15041">
        <ele>230.08</ele>
        <time>2024-12-30T13:26:29.226Z</time>
      </trkpt>
      <trkpt lat="48.30116" lon="5.15071">
        <ele>230.61</ele>
        <time>2024-12-30T13:26:33.841Z</time>
      </trkpt>
      <trkpt lat="48.30103" lon="5.151">
        <ele>231.09</ele>
        <time>2024-12-30T13:26:38.460Z</time>
      </trkpt>
      <trkpt lat="48.30086" lon="5.15128">
        <ele>231.64</ele>
        <time>2024-12-30T13:26:43.083Z</time>
      </trkpt>
      <trkpt lat="48.3007" lon="5.15156">
        <ele>232.13</ele>
        <time>2024-12-30T13:26:47.710Z</time>
      </trkpt>
      <trkpt lat="48.30053" lon="5.15184">
        <ele>232.6</ele>
        <time>2024-12-30T13:26:52.341Z</time>
      </trkpt>
      <trkpt lat="48.3004" lon="5.15202">
        <ele>233.02</ele>
        <time>2024-12-30T13:26:56.974Z</time>
      </trkpt>
      <trkpt lat="48.30028" lon="5.1522">
        <ele>233.32</ele>
        <time>2024-12-30T13:27:01.610Z</time>
      </trkpt>
      <trkpt lat="48.30006" lon="5.15248">
        <ele>233.57</ele>
        <time>2024-12-30T13:27:06.251Z</time>
      </trkpt>
      <trkpt lat="48.29985" lon="5.15276">
        <ele>233.78</ele>
        <time>2024-12-30T13:27:10.896Z</time>
      </trkpt>
      <trkpt lat="48.29965" lon="5.15296">
        <ele>233.94</ele>
        <time>2024-12-30T13:27:15.545Z</time>
      </trkpt>
      <trkpt lat="48.29945" lon="5.15316">
        <ele>234.12</ele>
        <time>2024-12-30T13:27:20.198Z</time>
      </trkpt>
      <trkpt lat="48.29925" lon="5.15336">
        <ele>234.22</ele>
        <time>2024-12-30T13:27:24.855Z</time>
      </trkpt>
      <trkpt lat="48.29905" lon="5.15355">
        <ele>234.14</ele>
        <time>2024-12-30T13:27:29.516Z</time>
      </trkpt>
      <trkpt lat="48.29882" lon="5.15374">
        <ele>233.91</ele>
        <time>2024-12-30T13:27:34.181Z</time>
      </trkpt>
      <trkpt lat="48.29858" lon="5.15392">
        <ele>233.92</ele>
        <time>2024-12-30T13:27:38.850Z</time>
      </trkpt>
      <trkpt lat="48.2983" lon="5.15409">
        <ele>233.88</ele>
        <time>2024-12-30T13:27:43.524Z</time>
      </trkpt>
      <trkpt lat="48.29802" lon="5.15426">
        <ele>233.91</ele>
        <time>2024-12-30T13:27:48.203Z</time>
      </trkpt>
      <trkpt lat="48.29773" lon="5.1544">
        <ele>233.68</ele>
        <time>2024-12-30T13:27:52.887Z</time>
      </trkpt>
      <trkpt lat="48.29743" lon="5.15453">
        <ele>233.32</ele>
        <time>2024-12-30T13:27:57.576Z</time>
      </trkpt>
      <trkpt lat="48.29714" lon="5.15466">
        <ele>233.13</ele>
        <time>2024-12-30T13:28:02.270Z</time>
      </trkpt>
      <trkpt lat="48.29684" lon="5.1548">
        <ele>232.82</ele>
        <time>2024-12-30T13:28:06.969Z</time>
      </trkpt>
      <trkpt lat="48.29669" lon="5.15485">
        <ele>232.41</ele>
        <time>2024-12-30T13:28:11.670Z</time>
      </trkpt>
      <trkpt lat="48.29653" lon="5.1549">
        <ele>231.96</ele>
        <time>2024-12-30T13:28:16.374Z</time>
      </trkpt>
      <trkpt lat="48.29653" lon="5.1549">
        <ele>231.5</ele>
        <time>2024-12-30T13:28:21.078Z</time>
      </trkpt>
      <trkpt lat="48.29637" lon="5.15495">
        <ele>231.01</ele>
        <time>2024-12-30T13:28:25.784Z</time>
      </trkpt>
      <trkpt lat="48.2962" lon="5.15496">
        <ele>230.46</ele>
        <time>2024-12-30T13:28:30.493Z</time>
      </trkpt>
      <trkpt lat="48.29603" lon="5.15497">
        <ele>229.9</ele>
        <time>2024-12-30T13:28:35.205Z</time>
      </trkpt>
      <trkpt lat="48.29575" lon="5.15497">
        <ele>229.35</ele>
        <time>2024-12-30T13:28:39.921Z</time>
      </trkpt>
      <trkpt lat="48.29547" lon="5.15497">
        <ele>228.71</ele>
        <time>2024-12-30T13:28:44.642Z</time>
      </trkpt>
      <trkpt lat="48.29523" lon="5.15491">
        <ele>227.94</ele>
        <time>2024-12-30T13:28:49.367Z</time>
      </trkpt>
      <trkpt lat="48.295" lon="5.15484">
        <ele>227.11</ele>
        <time>2024-12-30T13:28:54.095Z</time>
      </trkpt>
      <trkpt lat="48.29471" lon="5.1547">
        <ele>226.3</ele>
        <time>2024-12-30T13:28:58.828Z</time>
      </trkpt>
      <trkpt lat="48.29442" lon="5.15456">
        <ele>225.61</ele>
        <time>2024-12-30T13:29:03.566Z</time>
      </trkpt>
      <trkpt lat="48.29414" lon="5.15456">
        <ele>224.97</ele>
        <time>2024-12-30T13:29:08.309Z</time>
      </trkpt>
      <trkpt lat="48.29397" lon="5.15435">
        <ele>224.38</ele>
        <time>2024-12-30T13:29:13.055Z</time>
      </trkpt>
      <trkpt lat="48.29377" lon="5.15426">
        <ele>223.83</ele>
        <time>2024-12-30T13:29:17.804Z</time>
      </trkpt>
      <trkpt lat="48.2936" lon="5.15425">
        <ele>223.35</ele>
        <time>2024-12-30T13:29:22.556Z</time>
      </trkpt>
      <trkpt lat="48.29343" lon="5.15424">
        <ele>222.87</ele>
        <time>2024-12-30T13:29:27.311Z</time>
      </trkpt>
      <trkpt lat="48.29327" lon="5.15426">
        <ele>222.41</ele>
        <time>2024-12-30T13:29:32.069Z</time>
      </trkpt>
      <trkpt lat="48.29311" lon="5.15428">
        <ele>221.95</ele>
        <time>2024-12-30T13:29:36.829Z</time>
      </trkpt>
      <trkpt lat="48.29294" lon="5.15435">
        <ele>221.51</ele>
        <time>2024-12-30T13:29:41.592Z</time>
      </trkpt>
      <trkpt lat="48.29281" lon="5.15448">
        <ele>223.08</ele>
        <time>2024-12-30T13:29:46.357Z</time>
      </trkpt>
      <trkpt lat="48.29279" lon="5.15435">
        <ele>222.84</ele>
        <time>2024-12-30T13:29:51.124Z</time>
      </trkpt>
      <trkpt lat="48.29272" lon="5.15405">
        <ele>222.71</ele>
        <time>2024-12-30T13:29:55.894Z</time>
      </trkpt>
      <trkpt lat="48.2927" lon="5.15398">
        <ele>222.62</ele>
        <time>2024-12-30T13:30:00.665Z</time>
      </trkpt>
      <trkpt lat="48.2927" lon="5.15394">
        <ele>222.6</ele>
        <time>2024-12-30T13:30:05.436Z</time>
      </trkpt>
      <trkpt lat="48.29264" lon="5.1536">
        <ele>222.64</ele>
        <time>2024-12-30T13:30:10.211Z</time>
      </trkpt>
      <trkpt lat="48.29257" lon="5.15325">
        <ele>222.77</ele>
        <time>2024-12-30T13:30:14.990Z</time>
      </trkpt>
      <trkpt lat="48.29251" lon="5.15297">
        <ele>220.03</ele>
        <time>2024-12-30T13:30:19.772Z</time>
      </trkpt>
      <trkpt lat="48.29244" lon="5.1527">
        <ele>220.08</ele>
        <time>2024-12-30T13:30:24.557Z</time>
      </trkpt>
      <trkpt lat="48.2924" lon="5.1527">
        <ele>220.11</ele>
        <time>2024-12-30T13:30:29.343Z</time>
      </trkpt>
      <trkpt lat="48.29234" lon="5.15297">
        <ele>220.13</ele>
        <time>2024-12-30T13:30:34.132Z</time>
      </trkpt>
      <trkpt lat="48.29229" lon="5.15302">
        <ele>220.23</ele>
        <time>2024-12-30T13:30:38.922Z</time>
      </trkpt>
      <trkpt lat="48.29213" lon="5.15303">
        <ele>220.35</ele>
        <time>2024-12-30T13:30:43.715Z</time>
      </trkpt>
      <trkpt lat="48.29197" lon="5.15304">
        <ele>220.47</ele>
        <time>2024-12-30T13:30:48.510Z</time>
      </trkpt>
      <trkpt lat="48.29197" lon="5.15304">
        <ele>220.64</ele>
        <time>2024-12-30T13:30:53.305Z</time>
      </trkpt>
      <trkpt lat="48.29213" lon="5.15303">
        <ele>220.87</ele>
        <time>2024-12-30T13:30:58.103Z</time>
      </trkpt>
      <trkpt lat="48.29229" lon="5.15302">
        <ele>220.23</ele>
        <time>2024-12-30T13:31:02.903Z</time>
      </trkpt>
      <trkpt lat="48.29234" lon="5.15297">
        <ele>220.13</ele>
        <time>2024-12-30T13:31:07.704Z</time>
      </trkpt>
      <trkpt lat="48.2924" lon="5.1527">
        <ele>220.11</ele>
        <time>2024-12-30T13:31:12.508Z</time>
      </trkpt>
      <trkpt lat="48.29244" lon="5.1527">
        <ele>223.3</ele>
        <time>2024-12-30T13:31:17.313Z</time>
      </trkpt>
      <trkpt lat="48.2924" lon="5.15246">
        <ele>223.66</ele>
        <time>2024-12-30T13:31:22.121Z</time>
      </trkpt>
      <trkpt lat="48.2924" lon="5.15218">
        <ele>224.12</ele>
        <time>2024-12-30T13:31:26.932Z</time>
      </trkpt>
      <trkpt lat="48.2924" lon="5.15205">
        <ele>224.56</ele>
        <time>2024-12-30T13:31:31.744Z</time>
      </trkpt>
      <trkpt lat="48.2922" lon="5.15203">
        <ele>222.94</ele>
        <time>2024-12-30T13:31:36.559Z</time>
      </trkpt>
      <trkpt lat="48.29199" lon="5.15201">
        <ele>223.14</ele>
        <time>2024-12-30T13:31:41.378Z</time>
      </trkpt>
      <trkpt lat="48.29178" lon="5.152">
        <ele>223.31</ele>
        <time>2024-12-30T13:31:46.200Z</time>
      </trkpt>
      <trkpt lat="48.29156" lon="5.15199">
        <ele>223.48</ele>
        <time>2024-12-30T13:31:51.026Z</time>
      </trkpt>
      <trkpt lat="48.29129" lon="5.15188">
        <ele>223.67</ele>
        <time>2024-12-30T13:31:55.856Z</time>
      </trkpt>
      <trkpt lat="48.29101" lon="5.15177">
        <ele>223.82</ele>
        <time>2024-12-30T13:32:00.691Z</time>
      </trkpt>
      <trkpt lat="48.29073" lon="5.15167">
        <ele>223.91</ele>
        <time>2024-12-30T13:32:05.530Z</time>
      </trkpt>
      <trkpt lat="48.29046" lon="5.15157">
        <ele>223.95</ele>
        <time>2024-12-30T13:32:10.374Z</time>
      </trkpt>
      <trkpt lat="48.2902" lon="5.15147">
        <ele>224.05</ele>
        <time>2024-12-30T13:32:15.222Z</time>
      </trkpt>
      <trkpt lat="48.28994" lon="5.15138">
        <ele>224.1</ele>
        <time>2024-12-30T13:32:20.074Z</time>
      </trkpt>
      <trkpt lat="48.28968" lon="5.15128">
        <ele>224.14</ele>
        <time>2024-12-30T13:32:24.931Z</time>
      </trkpt>
      <trkpt lat="48.28937" lon="5.15117">
        <ele>224.16</ele>
        <time>2024-12-30T13:32:29.793Z</time>
      </trkpt>
      <trkpt lat="48.28907" lon="5.15106">
        <ele>224.08</ele>
        <time>2024-12-30T13:32:34.660Z</time>
      </trkpt>
      <trkpt lat="48.28876" lon="5.15095">
        <ele>224.08</ele>
        <time>2024-12-30T13:32:39.532Z</time>
      </trkpt>
      <trkpt lat="48.28846" lon="5.15084">
        <ele>224.09</ele>
        <time>2024-12-30T13:32:44.409Z</time>
      </trkpt>
      <trkpt lat="48.28816" lon="5.15072">
        <ele>223.99</ele>
        <time>2024-12-30T13:32:49.291Z</time>
      </trkpt>
      <trkpt lat="48.28785" lon="5.15061">
        <ele>223.84</ele>
        <time>2024-12-30T13:32:54.178Z</time>
      </trkpt>
      <trkpt lat="48.28758" lon="5.15038">
        <ele>223.74</ele>
        <time>2024-12-30T13:32:59.070Z</time>
      </trkpt>
      <trkpt lat="48.28731" lon="5.15015">
        <ele>223.68</ele>
        <time>2024-12-30T13:33:03.967Z</time>
      </trkpt>
      <trkpt lat="48.28704" lon="5.14992">
        <ele>223.67</ele>
        <time>2024-12-30T13:33:08.869Z</time>
      </trkpt>
      <trkpt lat="48.28677" lon="5.14969">
        <ele>223.64</ele>
        <time>2024-12-30T13:33:13.776Z</time>
      </trkpt>
      <trkpt lat="48.2865" lon="5.14946">
        <ele>223.62</ele>
        <time>2024-12-30T13:33:18.688Z</time>
      </trkpt>
      <trkpt lat="48.28629" lon="5.14913">
        <ele>223.66</ele>
        <time>2024-12-30T13:33:23.605Z</time>
      </trkpt>
      <trkpt lat="48.28616" lon="5.14874">
        <ele>223.75</ele>
        <time>2024-12-30T13:33:28.526Z</time>
      </trkpt>
      <trkpt lat="48.28603" lon="5.14834">
        <ele>223.9</ele>
        <time>2024-12-30T13:33:33.452Z</time>
      </trkpt>
      <trkpt lat="48.28591" lon="5.14794">
        <ele>224.06</ele>
        <time>2024-12-30T13:33:38.383Z</time>
      </trkpt>
      <trkpt lat="48.28578" lon="5.14754">
        <ele>224.22</ele>
        <time>2024-12-30T13:33:43.318Z</time>
      </trkpt>
      <trkpt lat="48.28566" lon="5.14714">
        <ele>224.33</ele>
        <time>2024-12-30T13:33:48.258Z</time>
      </trkpt>
      <trkpt lat="48.28553" lon="5.14675">
        <ele>224.46</ele>
        <time>2024-12-30T13:33:53.203Z</time>
      </trkpt>
      <trkpt lat="48.28547" lon="5.14641">
        <ele>224.57</ele>
        <time>2024-12-30T13:33:58.152Z</time>
      </trkpt>
      <trkpt lat="48.28545" lon="5.14596">
        <ele>224.75</ele>
        <time>2024-12-30T13:34:03.105Z</time>
      </trkpt>
      <trkpt lat="48.28543" lon="5.14551">
        <ele>224.93</ele>
        <time>2024-12-30T13:34:08.063Z</time>
      </trkpt>
      <trkpt lat="48.28541" lon="5.14506">
        <ele>225.04</ele>
        <time>2024-12-30T13:34:13.026Z</time>
      </trkpt>
      <trkpt lat="48.2854" lon="5.14461">
        <ele>225.16</ele>
        <time>2024-12-30T13:34:17.994Z</time>
      </trkpt>
      <trkpt lat="48.28538" lon="5.14416">
        <ele>225.28</ele>
        <time>2024-12-30T13:34:22.967Z</time>
      </trkpt>
      <trkpt lat="48.28536" lon="5.14372">
        <ele>225.29</ele>
        <time>2024-12-30T13:34:27.944Z</time>
      </trkpt>
      <trkpt lat="48.28534" lon="5.14328">
        <ele>225.28</ele>
        <time>2024-12-30T13:34:32.926Z</time>
      </trkpt>
      <trkpt lat="48.28532" lon="5.143">
        <ele>225.34</ele>
        <time>2024-12-30T13:34:37.911Z</time>
      </trkpt>
      <trkpt lat="48.28521" lon="5.14256">
        <ele>225.37</ele>
        <time>2024-12-30T13:34:42.901Z</time>
      </trkpt>
      <trkpt lat="48.28511" lon="5.14212">
        <ele>225.38</ele>
        <time>2024-12-30T13:34:47.896Z</time>
      </trkpt>
      <trkpt lat="48.28508" lon="5.14184">
        <ele>225.49</ele>
        <time>2024-12-30T13:34:52.894Z</time>
      </trkpt>
      <trkpt lat="48.28513" lon="5.14152">
        <ele>225.68</ele>
        <time>2024-12-30T13:34:57.896Z</time>
      </trkpt>
      <trkpt lat="48.28526" lon="5.14117">
        <ele>225.97</ele>
        <time>2024-12-30T13:35:02.902Z</time>
      </trkpt>
      <trkpt lat="48.28526" lon="5.14117">
        <ele>226.15</ele>
        <time>2024-12-30T13:35:07.908Z</time>
      </trkpt>
      <trkpt lat="48.28534" lon="5.141">
        <ele>226.46</ele>
        <time>2024-12-30T13:35:12.916Z</time>
      </trkpt>
      <trkpt lat="48.28547" lon="5.14072">
        <ele>226.71</ele>
        <time>2024-12-30T13:35:17.928Z</time>
      </trkpt>
      <trkpt lat="48.28547" lon="5.14072">
        <ele>226.89</ele>
        <time>2024-12-30T13:35:22.940Z</time>
      </trkpt>
      <trkpt lat="48.28558" lon="5.14049">
        <ele>227.1</ele>
        <time>2024-12-30T13:35:27.955Z</time>
      </trkpt>
      <trkpt lat="48.28558" lon="5.14049">
        <ele>227.27</ele>
        <time>2024-12-30T13:35:32.970Z</time>
      </trkpt>
      <trkpt lat="48.28571" lon="5.14023">
        <ele>227.55</ele>
        <time>2024-12-30T13:35:37.988Z</time>
      </trkpt>
      <trkpt lat="48.28575" lon="5.13993">
        <ele>227.74</ele>
        <time>2024-12-30T13:35:43.010Z</time>
      </trkpt>
      <trkpt lat="48.28571" lon="5.13971">
        <ele>227.81</ele>
        <time>2024-12-30T13:35:48.034Z</time>
      </trkpt>
      <trkpt lat="48.28561" lon="5.13937">
        <ele>227.86</ele>
        <time>2024-12-30T13:35:53.062Z</time>
      </trkpt>
      <trkpt lat="48.28551" lon="5.13903">
        <ele>227.93</ele>
        <time>2024-12-30T13:35:58.094Z</time>
      </trkpt>
      <trkpt lat="48.28546" lon="5.13874">
        <ele>227.92</ele>
        <time>2024-12-30T13:36:03.129Z</time>
      </trkpt>
      <trkpt lat="48.28541" lon="5.13845">
        <ele>227.89</ele>
        <time>2024-12-30T13:36:08.167Z</time>
      </trkpt>
      <trkpt lat="48.28539" lon="5.13802">
        <ele>227.84</ele>
        <time>2024-12-30T13:36:13.210Z</time>
      </trkpt>
      <trkpt lat="48.28538" lon="5.13759">
        <ele>227.95</ele>
        <time>2024-12-30T13:36:18.257Z</time>
      </trkpt>
      <trkpt lat="48.28537" lon="5.13716">
        <ele>228.06</ele>
        <time>2024-12-30T13:36:23.309Z</time>
      </trkpt>
      <trkpt lat="48.28536" lon="5.13673">
        <ele>228.01</ele>
        <time>2024-12-30T13:36:28.366Z</time>
      </trkpt>
      <trkpt lat="48.28535" lon="5.1363">
        <ele>227.88</ele>
        <time>2024-12-30T13:36:33.427Z</time>
      </trkpt>
      <trkpt lat="48.28534" lon="5.13587">
        <ele>227.72</ele>
        <time>2024-12-30T13:36:38.493Z</time>
      </trkpt>
      <trkpt lat="48.28533" lon="5.13543">
        <ele>227.6</ele>
        <time>2024-12-30T13:36:43.564Z</time>
      </trkpt>
      <trkpt lat="48.28532" lon="5.13501">
        <ele>227.47</ele>
        <time>2024-12-30T13:36:48.639Z</time>
      </trkpt>
      <trkpt lat="48.2853" lon="5.13457">
        <ele>227.36</ele>
        <time>2024-12-30T13:36:53.719Z</time>
      </trkpt>
      <trkpt lat="48.28529" lon="5.13413">
        <ele>227.18</ele>
        <time>2024-12-30T13:36:58.803Z</time>
      </trkpt>
      <trkpt lat="48.28527" lon="5.13368">
        <ele>227.1</ele>
        <time>2024-12-30T13:37:03.892Z</time>
      </trkpt>
      <trkpt lat="48.28525" lon="5.13324">
        <ele>227.09</ele>
        <time>2024-12-30T13:37:08.986Z</time>
      </trkpt>
      <trkpt lat="48.28523" lon="5.1328">
        <ele>226.9</ele>
        <time>2024-12-30T13:37:14.085Z</time>
      </trkpt>
      <trkpt lat="48.28522" lon="5.13235">
        <ele>226.72</ele>
        <time>2024-12-30T13:37:19.188Z</time>
      </trkpt>
      <trkpt lat="48.2852" lon="5.13191">
        <ele>226.52</ele>
        <time>2024-12-30T13:37:24.296Z</time>
      </trkpt>
      <trkpt lat="48.28518" lon="5.13147">
        <ele>226.36</ele>
        <time>2024-12-30T13:37:29.409Z</time>
      </trkpt>
      <trkpt lat="48.28516" lon="5.13103">
        <ele>226.33</ele>
        <time>2024-12-30T13:37:34.527Z</time>
      </trkpt>
      <trkpt lat="48.28515" lon="5.13059">
        <ele>226.15</ele>
        <time>2024-12-30T13:37:39.649Z</time>
      </trkpt>
      <trkpt lat="48.28515" lon="5.13025">
        <ele>226</ele>
        <time>2024-12-30T13:37:44.775Z</time>
      </trkpt>
      <trkpt lat="48.28515" lon="5.12991">
        <ele>225.85</ele>
        <time>2024-12-30T13:37:49.905Z</time>
      </trkpt>
      <trkpt lat="48.28518" lon="5.1295">
        <ele>225.57</ele>
        <time>2024-12-30T13:37:55.039Z</time>
      </trkpt>
      <trkpt lat="48.28522" lon="5.1291">
        <ele>225.26</ele>
        <time>2024-12-30T13:38:00.177Z</time>
      </trkpt>
      <trkpt lat="48.28525" lon="5.12869">
        <ele>225.06</ele>
        <time>2024-12-30T13:38:05.320Z</time>
      </trkpt>
      <trkpt lat="48.28529" lon="5.12829">
        <ele>224.85</ele>
        <time>2024-12-30T13:38:10.467Z</time>
      </trkpt>
      <trkpt lat="48.28532" lon="5.12789">
        <ele>224.68</ele>
        <time>2024-12-30T13:38:15.618Z</time>
      </trkpt>
      <trkpt lat="48.28532" lon="5.12757">
        <ele>224.46</ele>
        <time>2024-12-30T13:38:20.773Z</time>
      </trkpt>
      <trkpt lat="48.28532" lon="5.12726">
        <ele>224.21</ele>
        <time>2024-12-30T13:38:25.931Z</time>
      </trkpt>
      <trkpt lat="48.28532" lon="5.12695">
        <ele>223.99</ele>
        <time>2024-12-30T13:38:31.092Z</time>
      </trkpt>
      <trkpt lat="48.28529" lon="5.12657">
        <ele>223.7</ele>
        <time>2024-12-30T13:38:36.258Z</time>
      </trkpt>
      <trkpt lat="48.28526" lon="5.12619">
        <ele>223.37</ele>
        <time>2024-12-30T13:38:41.428Z</time>
      </trkpt>
      <trkpt lat="48.28523" lon="5.12581">
        <ele>222.96</ele>
        <time>2024-12-30T13:38:46.602Z</time>
      </trkpt>
      <trkpt lat="48.28516" lon="5.1254">
        <ele>222.57</ele>
        <time>2024-12-30T13:38:51.780Z</time>
      </trkpt>
      <trkpt lat="48.28508" lon="5.12499">
        <ele>222.34</ele>
        <time>2024-12-30T13:38:56.963Z</time>
      </trkpt>
      <trkpt lat="48.28496" lon="5.12468">
        <ele>222.09</ele>
        <time>2024-12-30T13:39:02.150Z</time>
      </trkpt>
      <trkpt lat="48.28484" lon="5.12437">
        <ele>221.87</ele>
        <time>2024-12-30T13:39:07.341Z</time>
      </trkpt>
      <trkpt lat="48.28471" lon="5.12406">
        <ele>221.71</ele>
        <time>2024-12-30T13:39:12.535Z</time>
      </trkpt>
      <trkpt lat="48.28459" lon="5.12375">
        <ele>221.64</ele>
        <time>2024-12-30T13:39:17.733Z</time>
      </trkpt>
      <trkpt lat="48.28448" lon="5.12341">
        <ele>221.67</ele>
        <time>2024-12-30T13:39:22.935Z</time>
      </trkpt>
      <trkpt lat="48.28438" lon="5.12307">
        <ele>221.72</ele>
        <time>2024-12-30T13:39:28.141Z</time>
      </trkpt>
      <trkpt lat="48.28427" lon="5.12274">
        <ele>221.78</ele>
        <time>2024-12-30T13:39:33.351Z</time>
      </trkpt>
      <trkpt lat="48.28427" lon="5.12274">
        <ele>221.91</ele>
        <time>2024-12-30T13:39:38.561Z</time>
      </trkpt>
      <trkpt lat="48.28413" lon="5.12242">
        <ele>222.06</ele>
        <time>2024-12-30T13:39:43.775Z</time>
      </trkpt>
      <trkpt lat="48.28399" lon="5.1221">
        <ele>222.32</ele>
        <time>2024-12-30T13:39:48.993Z</time>
      </trkpt>
      <trkpt lat="48.28385" lon="5.12177">
        <ele>222.6</ele>
        <time>2024-12-30T13:39:54.215Z</time>
      </trkpt>
      <trkpt lat="48.28371" lon="5.12145">
        <ele>223.01</ele>
        <time>2024-12-30T13:39:59.442Z</time>
      </trkpt>
      <trkpt lat="48.28362" lon="5.12115">
        <ele>223.52</ele>
        <time>2024-12-30T13:40:04.672Z</time>
      </trkpt>
      <trkpt lat="48.2836" lon="5.1207">
        <ele>224.12</ele>
        <time>2024-12-30T13:40:09.907Z</time>
      </trkpt>
      <trkpt lat="48.28363" lon="5.12038">
        <ele>224.7</ele>
        <time>2024-12-30T13:40:15.145Z</time>
      </trkpt>
      <trkpt lat="48.28366" lon="5.12006">
        <ele>225.32</ele>
        <time>2024-12-30T13:40:20.387Z</time>
      </trkpt>
      <trkpt lat="48.28369" lon="5.11974">
        <ele>226.02</ele>
        <time>2024-12-30T13:40:25.632Z</time>
      </trkpt>
      <trkpt lat="48.28373" lon="5.11927">
        <ele>226.83</ele>
        <time>2024-12-30T13:40:30.882Z</time>
      </trkpt>
      <trkpt lat="48.28376" lon="5.1188">
        <ele>227.67</ele>
        <time>2024-12-30T13:40:36.137Z</time>
      </trkpt>
      <trkpt lat="48.2838" lon="5.11833">
        <ele>228.54</ele>
        <time>2024-12-30T13:40:41.397Z</time>
      </trkpt>
      <trkpt lat="48.28384" lon="5.11787">
        <ele>229.49</ele>
        <time>2024-12-30T13:40:46.662Z</time>
      </trkpt>
      <trkpt lat="48.28384" lon="5.11759">
        <ele>230.37</ele>
        <time>2024-12-30T13:40:51.930Z</time>
      </trkpt>
      <trkpt lat="48.28377" lon="5.1174">
        <ele>231.2</ele>
        <time>2024-12-30T13:40:57.201Z</time>
      </trkpt>
      <trkpt lat="48.28377" lon="5.1174">
        <ele>232.04</ele>
        <time>2024-12-30T13:41:02.472Z</time>
      </trkpt>
      <trkpt lat="48.2836" lon="5.11717">
        <ele>232.87</ele>
        <time>2024-12-30T13:41:07.746Z</time>
      </trkpt>
      <trkpt lat="48.28343" lon="5.11695">
        <ele>233.76</ele>
        <time>2024-12-30T13:41:13.024Z</time>
      </trkpt>
      <trkpt lat="48.28322" lon="5.11673">
        <ele>234.63</ele>
        <time>2024-12-30T13:41:18.306Z</time>
      </trkpt>
      <trkpt lat="48.28302" lon="5.11652">
        <ele>235.49</ele>
        <time>2024-12-30T13:41:23.592Z</time>
      </trkpt>
      <trkpt lat="48.28281" lon="5.1163">
        <ele>236.34</ele>
        <time>2024-12-30T13:41:28.882Z</time>
      </trkpt>
      <trkpt lat="48.28262" lon="5.11607">
        <ele>237.16</ele>
        <time>2024-12-30T13:41:34.176Z</time>
      </trkpt>
      <trkpt lat="48.28242" lon="5.11583">
        <ele>237.98</ele>
        <time>2024-12-30T13:41:39.474Z</time>
      </trkpt>
      <trkpt lat="48.28223" lon="5.11559">
        <ele>238.75</ele>
        <time>2024-12-30T13:41:44.776Z</time>
      </trkpt>
      <trkpt lat="48.28199" lon="5.11536">
        <ele>239.51</ele>
        <time>2024-12-30T13:41:50.083Z</time>
      </trkpt>
      <trkpt lat="48.28174" lon="5.11512">
        <ele>240.28</ele>
        <time>2024-12-30T13:41:55.394Z</time>
      </trkpt>
      <trkpt lat="48.2815" lon="5.11489">
        <ele>240.97</ele>
        <time>2024-12-30T13:42:00.710Z</time>
      </trkpt>
      <trkpt lat="48.28129" lon="5.11472">
        <ele>241.61</ele>
        <time>2024-12-30T13:42:06.030Z</time>
      </trkpt>
      <trkpt lat="48.28107" lon="5.11454">
        <ele>242.26</ele>
        <time>2024-12-30T13:42:11.354Z</time>
      </trkpt>
      <trkpt lat="48.28086" lon="5.11437">
        <ele>242.86</ele>
        <time>2024-12-30T13:42:16.682Z</time>
      </trkpt>
      <trkpt lat="48.28059" lon="5.11421">
        <ele>243.43</ele>
        <time>2024-12-30T13:42:22.014Z</time>
      </trkpt>
      <trkpt lat="48.28033" lon="5.11406">
        <ele>243.96</ele>
        <time>2024-12-30T13:42:27.351Z</time>
      </trkpt>
      <trkpt lat="48.28006" lon="5.1139">
        <ele>244.43</ele>
        <time>2024-12-30T13:42:32.692Z</time>
      </trkpt>
      <trkpt lat="48.2798" lon="5.11374">
        <ele>244.86</ele>
        <time>2024-12-30T13:42:38.038Z</time>
      </trkpt>
      <trkpt lat="48.27953" lon="5.11358">
        <ele>245.27</ele>
        <time>2024-12-30T13:42:43.388Z</time>
      </trkpt>
      <trkpt lat="48.27927" lon="5.11343">
        <ele>245.62</ele>
        <time>2024-12-30T13:42:48.743Z</time>
      </trkpt>
      <trkpt lat="48.27913" lon="5.11331">
        <ele>245.91</ele>
        <time>2024-12-30T13:42:54.101Z</time>
      </trkpt>
      <trkpt lat="48.27899" lon="5.11319">
        <ele>246.18</ele>
        <time>2024-12-30T13:42:59.461Z</time>
      </trkpt>
      <trkpt lat="48.27899" lon="5.11319">
        <ele>246.4</ele>
        <time>2024-12-30T13:43:04.821Z</time>
      </trkpt>
      <trkpt lat="48.27882" lon="5.11302">
        <ele>246.57</ele>
        <time>2024-12-30T13:43:10.184Z</time>
      </trkpt>
      <trkpt lat="48.27875" lon="5.11289">
        <ele>246.74</ele>
        <time>2024-12-30T13:43:15.549Z</time>
      </trkpt>
      <trkpt lat="48.27866" lon="5.11257">
        <ele>246.97</ele>
        <time>2024-12-30T13:43:20.918Z</time>
      </trkpt>
      <trkpt lat="48.27856" lon="5.11225">
        <ele>247.14</ele>
        <time>2024-12-30T13:43:26.291Z</time>
      </trkpt>
      <trkpt lat="48.27845" lon="5.11189">
        <ele>247.24</ele>
        <time>2024-12-30T13:43:31.668Z</time>
      </trkpt>
      <trkpt lat="48.27835" lon="5.11153">
        <ele>247.26</ele>
        <time>2024-12-30T13:43:37.049Z</time>
      </trkpt>
      <trkpt lat="48.27824" lon="5.11117">
        <ele>247.13</ele>
        <time>2024-12-30T13:43:42.434Z</time>
      </trkpt>
      <trkpt lat="48.2782" lon="5.11086">
        <ele>247.13</ele>
        <time>2024-12-30T13:43:47.823Z</time>
      </trkpt>
      <trkpt lat="48.27815" lon="5.11055">
        <ele>247.17</ele>
        <time>2024-12-30T13:43:53.215Z</time>
      </trkpt>
      <trkpt lat="48.2781" lon="5.11022">
        <ele>247.11</ele>
        <time>2024-12-30T13:43:58.611Z</time>
      </trkpt>
      <trkpt lat="48.27805" lon="5.10989">
        <ele>246.91</ele>
        <time>2024-12-30T13:44:04.010Z</time>
      </trkpt>
      <trkpt lat="48.278" lon="5.10957">
        <ele>246.66</ele>
        <time>2024-12-30T13:44:09.413Z</time>
      </trkpt>
      <trkpt lat="48.27798" lon="5.10919">
        <ele>246.59</ele>
        <time>2024-12-30T13:44:14.820Z</time>
      </trkpt>
      <trkpt lat="48.27796" lon="5.10881">
        <ele>246.52</ele>
        <time>2024-12-30T13:44:20.231Z</time>
      </trkpt>
      <trkpt lat="48.278" lon="5.10843">
        <ele>246.47</ele>
        <time>2024-12-30T13:44:25.646Z</time>
      </trkpt>
      <trkpt lat="48.27803" lon="5.10805">
        <ele>246.31</ele>
        <time>2024-12-30T13:44:31.065Z</time>
      </trkpt>
      <trkpt lat="48.27807" lon="5.10768">
        <ele>246.16</ele>
        <time>2024-12-30T13:44:36.488Z</time>
      </trkpt>
      <trkpt lat="48.27807" lon="5.10723">
        <ele>245.95</ele>
        <time>2024-12-30T13:44:41.916Z</time>
      </trkpt>
      <trkpt lat="48.27798" lon="5.10686">
        <ele>245.68</ele>
        <time>2024-12-30T13:44:47.348Z</time>
      </trkpt>
      <trkpt lat="48.27777" lon="5.10667">
        <ele>245.51</ele>
        <time>2024-12-30T13:44:52.784Z</time>
      </trkpt>
      <trkpt lat="48.27757" lon="5.10636">
        <ele>245.42</ele>
        <time>2024-12-30T13:44:58.225Z</time>
      </trkpt>
      <trkpt lat="48.27738" lon="5.10605">
        <ele>245.4</ele>
        <time>2024-12-30T13:45:03.670Z</time>
      </trkpt>
      <trkpt lat="48.27717" lon="5.10595">
        <ele>245.33</ele>
        <time>2024-12-30T13:45:09.119Z</time>
      </trkpt>
      <trkpt lat="48.27697" lon="5.10586">
        <ele>245.28</ele>
        <time>2024-12-30T13:45:14.571Z</time>
      </trkpt>
      <trkpt lat="48.27676" lon="5.10577">
        <ele>245.31</ele>
        <time>2024-12-30T13:45:20.027Z</time>
      </trkpt>
      <trkpt lat="48.27674" lon="5.10538">
        <ele>245.19</ele>
        <time>2024-12-30T13:45:25.487Z</time>
      </trkpt>
      <trkpt lat="48.27673" lon="5.10503">
        <ele>244.97</ele>
        <time>2024-12-30T13:45:30.951Z</time>
      </trkpt>
      <trkpt lat="48.27672" lon="5.10467">
        <ele>244.85</ele>
        <time>2024-12-30T13:45:36.418Z</time>
      </trkpt>
      <trkpt lat="48.27674" lon="5.10442">
        <ele>244.74</ele>
        <time>2024-12-30T13:45:41.888Z</time>
      </trkpt>
      <trkpt lat="48.27693" lon="5.10433">
        <ele>244.59</ele>
        <time>2024-12-30T13:45:47.361Z</time>
      </trkpt>
      <trkpt lat="48.27702" lon="5.10435">
        <ele>244.38</ele>
        <time>2024-12-30T13:45:52.836Z</time>
      </trkpt>
      <trkpt lat="48.27722" lon="5.10442">
        <ele>244.11</ele>
        <time>2024-12-30T13:45:58.314Z</time>
      </trkpt>
      <trkpt lat="48.27742" lon="5.10448">
        <ele>243.85</ele>
        <time>2024-12-30T13:46:03.795Z</time>
      </trkpt>
      <trkpt lat="48.2776" lon="5.1045">
        <ele>243.64</ele>
        <time>2024-12-30T13:46:09.279Z</time>
      </trkpt>
      <trkpt lat="48.2777" lon="5.10444">
        <ele>243.47</ele>
        <time>2024-12-30T13:46:14.765Z</time>
      </trkpt>
      <trkpt lat="48.27771" lon="5.10442">
        <ele>243.33</ele>
        <time>2024-12-30T13:46:20.251Z</time>
      </trkpt>
      <trkpt lat="48.27771" lon="5.10442">
        <ele>243.19</ele>
        <time>2024-12-30T13:46:25.737Z</time>
      </trkpt>
      <trkpt lat="48.27779" lon="5.10422">
        <ele>243.12</ele>
        <time>2024-12-30T13:46:31.226Z</time>
      </trkpt>
      <trkpt lat="48.27781" lon="5.10388">
        <ele>243.08</ele>
        <time>2024-12-30T13:46:36.718Z</time>
      </trkpt>
      <trkpt lat="48.2778" lon="5.10359">
        <ele>243.08</ele>
        <time>2024-12-30T13:46:42.214Z</time>
      </trkpt>
      <trkpt lat="48.27779" lon="5.1033">
        <ele>243.07</ele>
        <time>2024-12-30T13:46:47.713Z</time>
      </trkpt>
      <trkpt lat="48.27781" lon="5.10304">
        <ele>243.13</ele>
        <time>2024-12-30T13:46:53.214Z</time>
      </trkpt>
      <trkpt lat="48.2779" lon="5.10275">
        <ele>243.18</ele>
        <time>2024-12-30T13:46:58.719Z</time>
      </trkpt>
      <trkpt lat="48.278" lon="5.10245">
        <ele>243.28</ele>
        <time>2024-12-30T13:47:04.227Z</time>
      </trkpt>
      <trkpt lat="48.27809" lon="5.10216">
        <ele>243.41</ele>
        <time>2024-12-30T13:47:09.739Z</time>
      </trkpt>
      <trkpt lat="48.27813" lon="5.10206">
        <ele>243.61</ele>
        <time>2024-12-30T13:47:15.252Z</time>
      </trkpt>
      <trkpt lat="48.2782" lon="5.10178">
        <ele>243.84</ele>
        <time>2024-12-30T13:47:20.768Z</time>
      </trkpt>
      <trkpt lat="48.27827" lon="5.10152">
        <ele>244.19</ele>
        <time>2024-12-30T13:47:26.287Z</time>
      </trkpt>
      <trkpt lat="48.27835" lon="5.10126">
        <ele>244.61</ele>
        <time>2024-12-30T13:47:31.809Z</time>
      </trkpt>
      <trkpt lat="48.27847" lon="5.10091">
        <ele>245.19</ele>
        <time>2024-12-30T13:47:37.336Z</time>
      </trkpt>
      <trkpt lat="48.27847" lon="5.10091">
        <ele>245.76</ele>
        <time>2024-12-30T13:47:42.863Z</time>
      </trkpt>
      <trkpt lat="48.27847" lon="5.1009">
        <ele>246.42</ele>
        <time>2024-12-30T13:47:48.390Z</time>
      </trkpt>
      <trkpt lat="48.27852" lon="5.10083">
        <ele>247.2</ele>
        <time>2024-12-30T13:47:53.918Z</time>
      </trkpt>
      <trkpt lat="48.27874" lon="5.10101">
        <ele>248.03</ele>
        <time>2024-12-30T13:47:59.450Z</time>
      </trkpt>
      <trkpt lat="48.27897" lon="5.1012">
        <ele>249.07</ele>
        <time>2024-12-30T13:48:04.986Z</time>
      </trkpt>
      <trkpt lat="48.27923" lon="5.10128">
        <ele>250.39</ele>
        <time>2024-12-30T13:48:10.526Z</time>
      </trkpt>
      <trkpt lat="48.27933" lon="5.10115">
        <ele>251.64</ele>
        <time>2024-12-30T13:48:16.068Z</time>
      </trkpt>
      <trkpt lat="48.2795" lon="5.10079">
        <ele>253.02</ele>
        <time>2024-12-30T13:48:21.615Z</time>
      </trkpt>
      <trkpt lat="48.27966" lon="5.10043">
        <ele>254.4</ele>
        <time>2024-12-30T13:48:27.167Z</time>
      </trkpt>
      <trkpt lat="48.27983" lon="5.10007">
        <ele>255.91</ele>
        <time>2024-12-30T13:48:32.723Z</time>
      </trkpt>
      <trkpt lat="48.28" lon="5.0997">
        <ele>257.49</ele>
        <time>2024-12-30T13:48:38.284Z</time>
      </trkpt>
      <trkpt lat="48.28016" lon="5.09934">
        <ele>259.2</ele>
        <time>2024-12-30T13:48:43.850Z</time>
      </trkpt>
      <trkpt lat="48.28033" lon="5.09898">
        <ele>261.07</ele>
        <time>2024-12-30T13:48:49.421Z</time>
      </trkpt>
      <trkpt lat="48.28049" lon="5.09862">
        <ele>263.02</ele>
        <time>2024-12-30T13:48:54.996Z</time>
      </trkpt>
      <trkpt lat="48.28056" lon="5.09847">
        <ele>265.12</ele>
        <time>2024-12-30T13:49:00.573Z</time>
      </trkpt>
      <trkpt lat="48.28042" lon="5.09807">
        <ele>267.09</ele>
        <time>2024-12-30T13:49:06.155Z</time>
      </trkpt>
      <trkpt lat="48.28028" lon="5.09768">
        <ele>269.29</ele>
        <time>2024-12-30T13:49:11.742Z</time>
      </trkpt>
      <trkpt lat="48.28006" lon="5.0975">
        <ele>271.71</ele>
        <time>2024-12-30T13:49:17.333Z</time>
      </trkpt>
      <trkpt lat="48.27985" lon="5.09731">
        <ele>274.42</ele>
        <time>2024-12-30T13:49:22.928Z</time>
      </trkpt>
      <trkpt lat="48.27969" lon="5.09721">
        <ele>277.24</ele>
        <time>2024-12-30T13:49:28.525Z</time>
      </trkpt>
      <trkpt lat="48.27953" lon="5.0971">
        <ele>280.06</ele>
        <time>2024-12-30T13:49:34.125Z</time>
      </trkpt>
      <trkpt lat="48.27927" lon="5.09684">
        <ele>283.04</ele>
        <time>2024-12-30T13:49:39.730Z</time>
      </trkpt>
      <trkpt lat="48.27908" lon="5.0966">
        <ele>285.89</ele>
        <time>2024-12-30T13:49:45.339Z</time>
      </trkpt>
      <trkpt lat="48.27888" lon="5.09637">
        <ele>288.84</ele>
        <time>2024-12-30T13:49:50.952Z</time>
      </trkpt>
      <trkpt lat="48.27869" lon="5.09613">
        <ele>291.73</ele>
        <time>2024-12-30T13:49:56.569Z</time>
      </trkpt>
      <trkpt lat="48.27858" lon="5.09613">
        <ele>294.34</ele>
        <time>2024-12-30T13:50:02.188Z</time>
      </trkpt>
      <trkpt lat="48.27854" lon="5.09624">
        <ele>296.73</ele>
        <time>2024-12-30T13:50:07.808Z</time>
      </trkpt>
      <trkpt lat="48.27854" lon="5.09666">
        <ele>298.86</ele>
        <time>2024-12-30T13:50:13.433Z</time>
      </trkpt>
      <trkpt lat="48.27854" lon="5.09708">
        <ele>301.04</ele>
        <time>2024-12-30T13:50:19.062Z</time>
      </trkpt>
      <trkpt lat="48.27847" lon="5.09746">
        <ele>303.23</ele>
        <time>2024-12-30T13:50:24.695Z</time>
      </trkpt>
      <trkpt lat="48.27833" lon="5.09781">
        <ele>305.12</ele>
        <time>2024-12-30T13:50:30.333Z</time>
      </trkpt>
      <trkpt lat="48.27819" lon="5.09817">
        <ele>306.8</ele>
        <time>2024-12-30T13:50:35.975Z</time>
      </trkpt>
      <trkpt lat="48.27805" lon="5.09851">
        <ele>308.29</ele>
        <time>2024-12-30T13:50:41.622Z</time>
      </trkpt>
      <trkpt lat="48.27792" lon="5.09871">
        <ele>309.64</ele>
        <time>2024-12-30T13:50:47.271Z</time>
      </trkpt>
      <trkpt lat="48.27772" lon="5.0989">
        <ele>310.98</ele>
        <time>2024-12-30T13:50:52.924Z</time>
      </trkpt>
      <trkpt lat="48.27744" lon="5.09901">
        <ele>312.07</ele>
        <time>2024-12-30T13:50:58.582Z</time>
      </trkpt>
      <trkpt lat="48.27717" lon="5.09912">
        <ele>312.87</ele>
        <time>2024-12-30T13:51:04.244Z</time>
      </trkpt>
      <trkpt lat="48.27704" lon="5.09939">
        <ele>313.35</ele>
        <time>2024-12-30T13:51:09.910Z</time>
      </trkpt>
      <trkpt lat="48.27697" lon="5.09984">
        <ele>313.48</ele>
        <time>2024-12-30T13:51:15.581Z</time>
      </trkpt>
      <trkpt lat="48.27697" lon="5.09984">
        <ele>313.54</ele>
        <time>2024-12-30T13:51:21.252Z</time>
      </trkpt>
      <trkpt lat="48.27704" lon="5.09939">
        <ele>313.35</ele>
        <time>2024-12-30T13:51:26.928Z</time>
      </trkpt>
      <trkpt lat="48.27717" lon="5.09912">
        <ele>312.87</ele>
        <time>2024-12-30T13:51:32.607Z</time>
      </trkpt>
      <trkpt lat="48.27744" lon="5.09901">
        <ele>312.47</ele>
        <time>2024-12-30T13:51:38.291Z</time>
      </trkpt>
      <trkpt lat="48.27772" lon="5.0989">
        <ele>310.98</ele>
        <time>2024-12-30T13:51:43.980Z</time>
      </trkpt>
      <trkpt lat="48.27792" lon="5.09871">
        <ele>309.64</ele>
        <time>2024-12-30T13:51:49.672Z</time>
      </trkpt>
      <trkpt lat="48.27805" lon="5.09851">
        <ele>308.29</ele>
        <time>2024-12-30T13:51:55.367Z</time>
      </trkpt>
      <trkpt lat="48.27819" lon="5.09816">
        <ele>307.65</ele>
        <time>2024-12-30T13:52:01.067Z</time>
      </trkpt>
      <trkpt lat="48.27833" lon="5.09781">
        <ele>306.09</ele>
        <time>2024-12-30T13:52:06.771Z</time>
      </trkpt>
      <trkpt lat="48.27847" lon="5.09746">
        <ele>303.23</ele>
        <time>2024-12-30T13:52:12.480Z</time>
      </trkpt>
      <trkpt lat="48.27854" lon="5.09708">
        <ele>301.04</ele>
        <time>2024-12-30T13:52:18.193Z</time>
      </trkpt>
      <trkpt lat="48.27854" lon="5.09666">
        <ele>300.16</ele>
        <time>2024-12-30T13:52:23.910Z</time>
      </trkpt>
      <trkpt lat="48.27854" lon="5.09624">
        <ele>296.73</ele>
        <time>2024-12-30T13:52:29.632Z</time>
      </trkpt>
      <trkpt lat="48.27858" lon="5.09613">
        <ele>294.34</ele>
        <time>2024-12-30T13:52:35.355Z</time>
      </trkpt>
      <trkpt lat="48.27869" lon="5.09613">
        <ele>291.73</ele>
        <time>2024-12-30T13:52:41.080Z</time>
      </trkpt>
      <trkpt lat="48.27888" lon="5.09637">
        <ele>290.52</ele>
        <time>2024-12-30T13:52:46.809Z</time>
      </trkpt>
      <trkpt lat="48.27908" lon="5.09661">
        <ele>287.65</ele>
        <time>2024-12-30T13:52:52.542Z</time>
      </trkpt>
      <trkpt lat="48.27927" lon="5.09684">
        <ele>283.04</ele>
        <time>2024-12-30T13:52:58.279Z</time>
      </trkpt>
      <trkpt lat="48.27934" lon="5.09691">
        <ele>282.22</ele>
        <time>2024-12-30T13:53:04.017Z</time>
      </trkpt>
      <trkpt lat="48.27934" lon="5.09691">
        <ele>279.68</ele>
        <time>2024-12-30T13:53:09.755Z</time>
      </trkpt>
      <trkpt lat="48.27953" lon="5.0971">
        <ele>280.06</ele>
        <time>2024-12-30T13:53:15.497Z</time>
      </trkpt>
      <trkpt lat="48.27969" lon="5.09721">
        <ele>274.18</ele>
        <time>2024-12-30T13:53:21.242Z</time>
      </trkpt>
      <trkpt lat="48.27985" lon="5.09731">
        <ele>274.42</ele>
        <time>2024-12-30T13:53:26.989Z</time>
      </trkpt>
      <trkpt lat="48.28006" lon="5.0975">
        <ele>268.92</ele>
        <time>2024-12-30T13:53:32.740Z</time>
      </trkpt>
      <trkpt lat="48.28028" lon="5.09768">
        <ele>269.29</ele>
        <time>2024-12-30T13:53:38.495Z</time>
      </trkpt>
      <trkpt lat="48.28042" lon="5.09808">
        <ele>264.63</ele>
        <time>2024-12-30T13:53:44.255Z</time>
      </trkpt>
      <trkpt lat="48.28056" lon="5.09847">
        <ele>262.82</ele>
        <time>2024-12-30T13:53:50.020Z</time>
      </trkpt>
      <trkpt lat="48.28049" lon="5.09862">
        <ele>263.02</ele>
        <time>2024-12-30T13:53:55.787Z</time>
      </trkpt>
      <trkpt lat="48.28033" lon="5.09898">
        <ele>259.13</ele>
        <time>2024-12-30T13:54:01.558Z</time>
      </trkpt>
      <trkpt lat="48.28016" lon="5.09935">
        <ele>257.44</ele>
        <time>2024-12-30T13:54:07.334Z</time>
      </trkpt>
      <trkpt lat="48.27999" lon="5.09971">
        <ele>255.92</ele>
        <time>2024-12-30T13:54:13.115Z</time>
      </trkpt>
      <trkpt lat="48.27983" lon="5.10007">
        <ele>254.53</ele>
        <time>2024-12-30T13:54:18.901Z</time>
      </trkpt>
      <trkpt lat="48.27966" lon="5.10043">
        <ele>253.21</ele>
        <time>2024-12-30T13:54:24.691Z</time>
      </trkpt>
      <trkpt lat="48.2795" lon="5.1008">
        <ele>252</ele>
        <time>2024-12-30T13:54:30.486Z</time>
      </trkpt>
      <trkpt lat="48.27933" lon="5.10115">
        <ele>251.64</ele>
        <time>2024-12-30T13:54:36.286Z</time>
      </trkpt>
      <trkpt lat="48.27923" lon="5.10128">
        <ele>250.39</ele>
        <time>2024-12-30T13:54:42.088Z</time>
      </trkpt>
      <trkpt lat="48.27897" lon="5.1012">
        <ele>249.07</ele>
        <time>2024-12-30T13:54:47.894Z</time>
      </trkpt>
      <trkpt lat="48.27874" lon="5.10101">
        <ele>247.76</ele>
        <time>2024-12-30T13:54:53.704Z</time>
      </trkpt>
      <trkpt lat="48.27852" lon="5.10083">
        <ele>247.2</ele>
        <time>2024-12-30T13:54:59.518Z</time>
      </trkpt>
      <trkpt lat="48.27847" lon="5.1009">
        <ele>246.42</ele>
        <time>2024-12-30T13:55:05.333Z</time>
      </trkpt>
      <trkpt lat="48.27835" lon="5.10126">
        <ele>244.61</ele>
        <time>2024-12-30T13:55:11.153Z</time>
      </trkpt>
      <trkpt lat="48.27827" lon="5.10152">
        <ele>245.55</ele>
        <time>2024-12-30T13:55:16.976Z</time>
      </trkpt>
      <trkpt lat="48.2782" lon="5.10178">
        <ele>243.84</ele>
        <time>2024-12-30T13:55:22.802Z</time>
      </trkpt>
      <trkpt lat="48.27813" lon="5.10206">
        <ele>243.61</ele>
        <time>2024-12-30T13:55:28.631Z</time>
      </trkpt>
      <trkpt lat="48.27809" lon="5.10216">
        <ele>243.41</ele>
        <time>2024-12-30T13:55:34.461Z</time>
      </trkpt>
      <trkpt lat="48.278" lon="5.10246">
        <ele>244.85</ele>
        <time>2024-12-30T13:55:40.295Z</time>
      </trkpt>
      <trkpt lat="48.2779" lon="5.10275">
        <ele>244.83</ele>
        <time>2024-12-30T13:55:46.132Z</time>
      </trkpt>
      <trkpt lat="48.27781" lon="5.10304">
        <ele>244.87</ele>
        <time>2024-12-30T13:55:51.972Z</time>
      </trkpt>
      <trkpt lat="48.27762" lon="5.10298">
        <ele>245.01</ele>
        <time>2024-12-30T13:55:57.816Z</time>
      </trkpt>
      <trkpt lat="48.27762" lon="5.10298">
        <ele>245.14</ele>
        <time>2024-12-30T13:56:03.660Z</time>
      </trkpt>
      <trkpt lat="48.27762" lon="5.10298">
        <ele>245.3</ele>
        <time>2024-12-30T13:56:09.504Z</time>
      </trkpt>
      <trkpt lat="48.27762" lon="5.10298">
        <ele>245.14</ele>
        <time>2024-12-30T13:56:15.348Z</time>
      </trkpt>
      <trkpt lat="48.27757" lon="5.10335">
        <ele>245.68</ele>
        <time>2024-12-30T13:56:21.196Z</time>
      </trkpt>
      <trkpt lat="48.27752" lon="5.10373">
        <ele>245.85</ele>
        <time>2024-12-30T13:56:27.048Z</time>
      </trkpt>
      <trkpt lat="48.27747" lon="5.10411">
        <ele>246.08</ele>
        <time>2024-12-30T13:56:32.904Z</time>
      </trkpt>
      <trkpt lat="48.27742" lon="5.10448">
        <ele>243.85</ele>
        <time>2024-12-30T13:56:38.764Z</time>
      </trkpt>
      <trkpt lat="48.27722" lon="5.10442">
        <ele>246.58</ele>
        <time>2024-12-30T13:56:44.627Z</time>
      </trkpt>
      <trkpt lat="48.27702" lon="5.10435">
        <ele>244.38</ele>
        <time>2024-12-30T13:56:50.494Z</time>
      </trkpt>
      <trkpt lat="48.27693" lon="5.10433">
        <ele>244.59</ele>
        <time>2024-12-30T13:56:56.362Z</time>
      </trkpt>
      <trkpt lat="48.27674" lon="5.10442">
        <ele>244.74</ele>
        <time>2024-12-30T13:57:02.233Z</time>
      </trkpt>
      <trkpt lat="48.27672" lon="5.10467">
        <ele>244.85</ele>
        <time>2024-12-30T13:57:08.107Z</time>
      </trkpt>
      <trkpt lat="48.27673" lon="5.10503">
        <ele>247.76</ele>
        <time>2024-12-30T13:57:13.985Z</time>
      </trkpt>
      <trkpt lat="48.27674" lon="5.10538">
        <ele>245.19</ele>
        <time>2024-12-30T13:57:19.867Z</time>
      </trkpt>
      <trkpt lat="48.27676" lon="5.10577">
        <ele>245.31</ele>
        <time>2024-12-30T13:57:25.753Z</time>
      </trkpt>
      <trkpt lat="48.27703" lon="5.10589">
        <ele>248.1</ele>
        <time>2024-12-30T13:57:31.643Z</time>
      </trkpt>
      <trkpt lat="48.27705" lon="5.1059">
        <ele>248.19</ele>
        <time>2024-12-30T13:57:37.534Z</time>
      </trkpt>
      <trkpt lat="48.27705" lon="5.1059">
        <ele>248.26</ele>
        <time>2024-12-30T13:57:43.425Z</time>
      </trkpt>
      <trkpt lat="48.27676" lon="5.10577">
        <ele>245.31</ele>
        <time>2024-12-30T13:57:49.321Z</time>
      </trkpt>
      <trkpt lat="48.27676" lon="5.10603">
        <ele>248.4</ele>
        <time>2024-12-30T13:57:55.219Z</time>
      </trkpt>
      <trkpt lat="48.27676" lon="5.10628">
        <ele>248.29</ele>
        <time>2024-12-30T13:58:01.120Z</time>
      </trkpt>
      <trkpt lat="48.27669" lon="5.10673">
        <ele>248.28</ele>
        <time>2024-12-30T13:58:07.026Z</time>
      </trkpt>
      <trkpt lat="48.27663" lon="5.10707">
        <ele>248.19</ele>
        <time>2024-12-30T13:58:12.936Z</time>
      </trkpt>
      <trkpt lat="48.27657" lon="5.1074">
        <ele>248.04</ele>
        <time>2024-12-30T13:58:18.849Z</time>
      </trkpt>
      <trkpt lat="48.27648" lon="5.10774">
        <ele>247.84</ele>
        <time>2024-12-30T13:58:24.766Z</time>
      </trkpt>
      <trkpt lat="48.27639" lon="5.10808">
        <ele>247.64</ele>
        <time>2024-12-30T13:58:30.687Z</time>
      </trkpt>
      <trkpt lat="48.27631" lon="5.10841">
        <ele>247.29</ele>
        <time>2024-12-30T13:58:36.612Z</time>
      </trkpt>
      <trkpt lat="48.27622" lon="5.10875">
        <ele>246.81</ele>
        <time>2024-12-30T13:58:42.541Z</time>
      </trkpt>
      <trkpt lat="48.27605" lon="5.10913">
        <ele>246.49</ele>
        <time>2024-12-30T13:58:48.475Z</time>
      </trkpt>
      <trkpt lat="48.27589" lon="5.10951">
        <ele>246.14</ele>
        <time>2024-12-30T13:58:54.414Z</time>
      </trkpt>
      <trkpt lat="48.27572" lon="5.10988">
        <ele>245.64</ele>
        <time>2024-12-30T13:59:00.358Z</time>
      </trkpt>
      <trkpt lat="48.27555" lon="5.11026">
        <ele>245.03</ele>
        <time>2024-12-30T13:59:06.306Z</time>
      </trkpt>
      <trkpt lat="48.27538" lon="5.11064">
        <ele>244.49</ele>
        <time>2024-12-30T13:59:12.259Z</time>
      </trkpt>
      <trkpt lat="48.27521" lon="5.11098">
        <ele>243.9</ele>
        <time>2024-12-30T13:59:18.217Z</time>
      </trkpt>
      <trkpt lat="48.27504" lon="5.11132">
        <ele>243.06</ele>
        <time>2024-12-30T13:59:24.179Z</time>
      </trkpt>
      <trkpt lat="48.27479" lon="5.1116">
        <ele>242.32</ele>
        <time>2024-12-30T13:59:30.146Z</time>
      </trkpt>
      <trkpt lat="48.27455" lon="5.11188">
        <ele>241.62</ele>
        <time>2024-12-30T13:59:36.118Z</time>
      </trkpt>
      <trkpt lat="48.27435" lon="5.11211">
        <ele>240.97</ele>
        <time>2024-12-30T13:59:42.094Z</time>
      </trkpt>
      <trkpt lat="48.27416" lon="5.11233">
        <ele>240.33</ele>
        <time>2024-12-30T13:59:48.074Z</time>
      </trkpt>
      <trkpt lat="48.27403" lon="5.11253">
        <ele>239.69</ele>
        <time>2024-12-30T13:59:54.057Z</time>
      </trkpt>
      <trkpt lat="48.27403" lon="5.1127">
        <ele>239.05</ele>
        <time>2024-12-30T14:00:00.042Z</time>
      </trkpt>
      <trkpt lat="48.27405" lon="5.11283">
        <ele>238.46</ele>
        <time>2024-12-30T14:00:06.028Z</time>
      </trkpt>
      <trkpt lat="48.27388" lon="5.11293">
        <ele>237.91</ele>
        <time>2024-12-30T14:00:12.017Z</time>
      </trkpt>
      <trkpt lat="48.27371" lon="5.11304">
        <ele>237.38</ele>
        <time>2024-12-30T14:00:18.009Z</time>
      </trkpt>
      <trkpt lat="48.27348" lon="5.11321">
        <ele>236.92</ele>
        <time>2024-12-30T14:00:24.005Z</time>
      </trkpt>
      <trkpt lat="48.27328" lon="5.11341">
        <ele>236.44</ele>
        <time>2024-12-30T14:00:30.005Z</time>
      </trkpt>
      <trkpt lat="48.27309" lon="5.1136">
        <ele>235.96</ele>
        <time>2024-12-30T14:00:36.009Z</time>
      </trkpt>
      <trkpt lat="48.27288" lon="5.11384">
        <ele>235.49</ele>
        <time>2024-12-30T14:00:42.017Z</time>
      </trkpt>
      <trkpt lat="48.27268" lon="5.11407">
        <ele>235.11</ele>
        <time>2024-12-30T14:00:48.029Z</time>
      </trkpt>
      <trkpt lat="48.27247" lon="5.11431">
        <ele>234.88</ele>
        <time>2024-12-30T14:00:54.045Z</time>
      </trkpt>
      <trkpt lat="48.27225" lon="5.11454">
        <ele>234.73</ele>
        <time>2024-12-30T14:01:00.066Z</time>
      </trkpt>
      <trkpt lat="48.27204" lon="5.11478">
        <ele>234.56</ele>
        <time>2024-12-30T14:01:06.091Z</time>
      </trkpt>
      <trkpt lat="48.27182" lon="5.11502">
        <ele>234.32</ele>
        <time>2024-12-30T14:01:12.120Z</time>
      </trkpt>
      <trkpt lat="48.27161" lon="5.11525">
        <ele>234.08</ele>
        <time>2024-12-30T14:01:18.153Z</time>
      </trkpt>
      <trkpt lat="48.27139" lon="5.1155">
        <ele>233.88</ele>
        <time>2024-12-30T14:01:24.191Z</time>
      </trkpt>
      <trkpt lat="48.27117" lon="5.11575">
        <ele>233.68</ele>
        <time>2024-12-30T14:01:30.233Z</time>
      </trkpt>
      <trkpt lat="48.27095" lon="5.11599">
        <ele>233.47</ele>
        <time>2024-12-30T14:01:36.280Z</time>
      </trkpt>
      <trkpt lat="48.27073" lon="5.11624">
        <ele>233.33</ele>
        <time>2024-12-30T14:01:42.331Z</time>
      </trkpt>
      <trkpt lat="48.27054" lon="5.11637">
        <ele>233.17</ele>
        <time>2024-12-30T14:01:48.385Z</time>
      </trkpt>
      <trkpt lat="48.27034" lon="5.1165">
        <ele>232.98</ele>
        <time>2024-12-30T14:01:54.443Z</time>
      </trkpt>
      <trkpt lat="48.27006" lon="5.1165">
        <ele>232.84</ele>
        <time>2024-12-30T14:02:00.505Z</time>
      </trkpt>
      <trkpt lat="48.26998" lon="5.11654">
        <ele>232.65</ele>
        <time>2024-12-30T14:02:06.569Z</time>
      </trkpt>
      <trkpt lat="48.26991" lon="5.11662">
        <ele>232.43</ele>
        <time>2024-12-30T14:02:12.634Z</time>
      </trkpt>
      <trkpt lat="48.26989" lon="5.11682">
        <ele>232.17</ele>
        <time>2024-12-30T14:02:18.701Z</time>
      </trkpt>
      <trkpt lat="48.26996" lon="5.11708">
        <ele>231.87</ele>
        <time>2024-12-30T14:02:24.771Z</time>
      </trkpt>
      <trkpt lat="48.27013" lon="5.11745">
        <ele>231.52</ele>
        <time>2024-12-30T14:02:30.846Z</time>
      </trkpt>
      <trkpt lat="48.27031" lon="5.11782">
        <ele>231.18</ele>
        <time>2024-12-30T14:02:36.926Z</time>
      </trkpt>
      <trkpt lat="48.27048" lon="5.1182">
        <ele>230.89</ele>
        <time>2024-12-30T14:02:43.011Z</time>
      </trkpt>
      <trkpt lat="48.27065" lon="5.11857">
        <ele>230.59</ele>
        <time>2024-12-30T14:02:49.101Z</time>
      </trkpt>
      <trkpt lat="48.27083" lon="5.11894">
        <ele>230.32</ele>
        <time>2024-12-30T14:02:55.195Z</time>
      </trkpt>
      <trkpt lat="48.271" lon="5.11932">
        <ele>230.04</ele>
        <time>2024-12-30T14:03:01.294Z</time>
      </trkpt>
      <trkpt lat="48.27118" lon="5.11969">
        <ele>229.75</ele>
        <time>2024-12-30T14:03:07.398Z</time>
      </trkpt>
      <trkpt lat="48.27135" lon="5.12006">
        <ele>229.44</ele>
        <time>2024-12-30T14:03:13.507Z</time>
      </trkpt>
      <trkpt lat="48.27142" lon="5.12034">
        <ele>229.15</ele>
        <time>2024-12-30T14:03:19.619Z</time>
      </trkpt>
      <trkpt lat="48.27142" lon="5.12072">
        <ele>228.88</ele>
        <time>2024-12-30T14:03:25.735Z</time>
      </trkpt>
      <trkpt lat="48.27131" lon="5.12112">
        <ele>228.61</ele>
        <time>2024-12-30T14:03:31.856Z</time>
      </trkpt>
      <trkpt lat="48.27121" lon="5.12152">
        <ele>228.35</ele>
        <time>2024-12-30T14:03:37.981Z</time>
      </trkpt>
      <trkpt lat="48.27111" lon="5.12192">
        <ele>228.12</ele>
        <time>2024-12-30T14:03:44.111Z</time>
      </trkpt>
      <trkpt lat="48.27101" lon="5.12231">
        <ele>227.87</ele>
        <time>2024-12-30T14:03:50.245Z</time>
      </trkpt>
      <trkpt lat="48.27091" lon="5.1227">
        <ele>227.67</ele>
        <time>2024-12-30T14:03:56.384Z</time>
      </trkpt>
      <trkpt lat="48.27081" lon="5.12308">
        <ele>227.53</ele>
        <time>2024-12-30T14:04:02.527Z</time>
      </trkpt>
      <trkpt lat="48.27081" lon="5.12347">
        <ele>227.36</ele>
        <time>2024-12-30T14:04:08.674Z</time>
      </trkpt>
      <trkpt lat="48.27081" lon="5.12347">
        <ele>227.2</ele>
        <time>2024-12-30T14:04:14.821Z</time>
      </trkpt>
      <trkpt lat="48.27084" lon="5.12371">
        <ele>227.08</ele>
        <time>2024-12-30T14:04:20.971Z</time>
      </trkpt>
      <trkpt lat="48.27086" lon="5.12381">
        <ele>226.96</ele>
        <time>2024-12-30T14:04:27.122Z</time>
      </trkpt>
      <trkpt lat="48.27086" lon="5.12381">
        <ele>226.82</ele>
        <time>2024-12-30T14:04:33.273Z</time>
      </trkpt>
      <trkpt lat="48.2709" lon="5.12403">
        <ele>226.69</ele>
        <time>2024-12-30T14:04:39.427Z</time>
      </trkpt>
      <trkpt lat="48.2709" lon="5.12403">
        <ele>226.57</ele>
        <time>2024-12-30T14:04:45.581Z</time>
      </trkpt>
      <trkpt lat="48.2709" lon="5.12414">
        <ele>226.44</ele>
        <time>2024-12-30T14:04:51.736Z</time>
      </trkpt>
      <trkpt lat="48.2709" lon="5.12414">
        <ele>226.32</ele>
        <time>2024-12-30T14:04:57.891Z</time>
      </trkpt>
      <trkpt lat="48.2709" lon="5.12433">
        <ele>226.2</ele>
        <time>2024-12-30T14:05:04.048Z</time>
      </trkpt>
      <trkpt lat="48.2709" lon="5.12433">
        <ele>226.1</ele>
        <time>2024-12-30T14:05:10.205Z</time>
      </trkpt>
      <trkpt lat="48.27088" lon="5.12439">
        <ele>225.99</ele>
        <time>2024-12-30T14:05:16.363Z</time>
      </trkpt>
      <trkpt lat="48.27088" lon="5.12439">
        <ele>225.9</ele>
        <time>2024-12-30T14:05:22.521Z</time>
      </trkpt>
      <trkpt lat="48.27086" lon="5.12446">
        <ele>225.8</ele>
        <time>2024-12-30T14:05:28.679Z</time>
      </trkpt>
      <trkpt lat="48.27073" lon="5.12484">
        <ele>225.67</ele>
        <time>2024-12-30T14:05:34.842Z</time>
      </trkpt>
      <trkpt lat="48.2706" lon="5.12523">
        <ele>225.55</ele>
        <time>2024-12-30T14:05:41.010Z</time>
      </trkpt>
      <trkpt lat="48.2706" lon="5.12523">
        <ele>225.47</ele>
        <time>2024-12-30T14:05:47.178Z</time>
      </trkpt>
      <trkpt lat="48.27051" lon="5.12544">
        <ele>225.42</ele>
        <time>2024-12-30T14:05:53.348Z</time>
      </trkpt>
      <trkpt lat="48.27043" lon="5.12566">
        <ele>225.34</ele>
        <time>2024-12-30T14:05:59.521Z</time>
      </trkpt>
      <trkpt lat="48.27032" lon="5.12584">
        <ele>225.28</ele>
        <time>2024-12-30T14:06:05.697Z</time>
      </trkpt>
      <trkpt lat="48.27021" lon="5.12602">
        <ele>225.28</ele>
        <time>2024-12-30T14:06:11.875Z</time>
      </trkpt>
      <trkpt lat="48.27006" lon="5.12619">
        <ele>225.2</ele>
        <time>2024-12-30T14:06:18.056Z</time>
      </trkpt>
      <trkpt lat="48.26983" lon="5.12648">
        <ele>225.15</ele>
        <time>2024-12-30T14:06:24.242Z</time>
      </trkpt>
      <trkpt lat="48.26959" lon="5.12677">
        <ele>225.06</ele>
        <time>2024-12-30T14:06:30.433Z</time>
      </trkpt>
      <trkpt lat="48.26936" lon="5.12705">
        <ele>225.14</ele>
        <time>2024-12-30T14:06:36.629Z</time>
      </trkpt>
      <trkpt lat="48.26928" lon="5.12727">
        <ele>225.13</ele>
        <time>2024-12-30T14:06:42.827Z</time>
      </trkpt>
      <trkpt lat="48.26921" lon="5.12748">
        <ele>225.18</ele>
        <time>2024-12-30T14:06:49.028Z</time>
      </trkpt>
      <trkpt lat="48.26916" lon="5.12783">
        <ele>225.24</ele>
        <time>2024-12-30T14:06:55.233Z</time>
      </trkpt>
      <trkpt lat="48.26912" lon="5.12817">
        <ele>225.28</ele>
        <time>2024-12-30T14:07:01.441Z</time>
      </trkpt>
      <trkpt lat="48.26904" lon="5.12847">
        <ele>225.39</ele>
        <time>2024-12-30T14:07:07.653Z</time>
      </trkpt>
      <trkpt lat="48.26897" lon="5.12877">
        <ele>225.42</ele>
        <time>2024-12-30T14:07:13.868Z</time>
      </trkpt>
      <trkpt lat="48.26884" lon="5.12905">
        <ele>225.52</ele>
        <time>2024-12-30T14:07:20.087Z</time>
      </trkpt>
      <trkpt lat="48.26871" lon="5.12933">
        <ele>225.54</ele>
        <time>2024-12-30T14:07:26.309Z</time>
      </trkpt>
      <trkpt lat="48.26851" lon="5.12961">
        <ele>225.57</ele>
        <time>2024-12-30T14:07:32.536Z</time>
      </trkpt>
      <trkpt lat="48.26831" lon="5.1299">
        <ele>225.61</ele>
        <time>2024-12-30T14:07:38.767Z</time>
      </trkpt>
      <trkpt lat="48.26811" lon="5.13019">
        <ele>225.65</ele>
        <time>2024-12-30T14:07:45.003Z</time>
      </trkpt>
      <trkpt lat="48.26796" lon="5.13051">
        <ele>225.65</ele>
        <time>2024-12-30T14:07:51.243Z</time>
      </trkpt>
      <trkpt lat="48.26787" lon="5.13083">
        <ele>225.74</ele>
        <time>2024-12-30T14:07:57.487Z</time>
      </trkpt>
      <trkpt lat="48.26779" lon="5.13115">
        <ele>225.8</ele>
        <time>2024-12-30T14:08:03.734Z</time>
      </trkpt>
      <trkpt lat="48.26775" lon="5.13152">
        <ele>225.83</ele>
        <time>2024-12-30T14:08:09.985Z</time>
      </trkpt>
      <trkpt lat="48.2677" lon="5.13188">
        <ele>225.85</ele>
        <time>2024-12-30T14:08:16.240Z</time>
      </trkpt>
      <trkpt lat="48.26766" lon="5.13225">
        <ele>225.87</ele>
        <time>2024-12-30T14:08:22.499Z</time>
      </trkpt>
      <trkpt lat="48.26766" lon="5.13248">
        <ele>225.92</ele>
        <time>2024-12-30T14:08:28.761Z</time>
      </trkpt>
      <trkpt lat="48.26769" lon="5.13291">
        <ele>225.95</ele>
        <time>2024-12-30T14:08:35.027Z</time>
      </trkpt>
      <trkpt lat="48.26772" lon="5.13334">
        <ele>225.95</ele>
        <time>2024-12-30T14:08:41.298Z</time>
      </trkpt>
      <trkpt lat="48.26775" lon="5.13377">
        <ele>225.97</ele>
        <time>2024-12-30T14:08:47.574Z</time>
      </trkpt>
      <trkpt lat="48.26779" lon="5.13422">
        <ele>225.91</ele>
        <time>2024-12-30T14:08:53.854Z</time>
      </trkpt>
      <trkpt lat="48.26779" lon="5.13452">
        <ele>225.85</ele>
        <time>2024-12-30T14:09:00.138Z</time>
      </trkpt>
      <trkpt lat="48.26775" lon="5.13465">
        <ele>225.8</ele>
        <time>2024-12-30T14:09:06.423Z</time>
      </trkpt>
      <trkpt lat="48.26756" lon="5.13493">
        <ele>225.75</ele>
        <time>2024-12-30T14:09:12.712Z</time>
      </trkpt>
      <trkpt lat="48.26738" lon="5.13521">
        <ele>225.71</ele>
        <time>2024-12-30T14:09:19.006Z</time>
      </trkpt>
      <trkpt lat="48.26738" lon="5.13566">
        <ele>225.67</ele>
        <time>2024-12-30T14:09:25.304Z</time>
      </trkpt>
      <trkpt lat="48.26742" lon="5.13594">
        <ele>225.72</ele>
        <time>2024-12-30T14:09:31.605Z</time>
      </trkpt>
      <trkpt lat="48.26747" lon="5.13632">
        <ele>225.7</ele>
        <time>2024-12-30T14:09:37.911Z</time>
      </trkpt>
      <trkpt lat="48.26751" lon="5.13661">
        <ele>225.69</ele>
        <time>2024-12-30T14:09:44.220Z</time>
      </trkpt>
      <trkpt lat="48.26755" lon="5.1369">
        <ele>225.73</ele>
        <time>2024-12-30T14:09:50.532Z</time>
      </trkpt>
      <trkpt lat="48.26756" lon="5.13694">
        <ele>225.85</ele>
        <time>2024-12-30T14:09:56.844Z</time>
      </trkpt>
      <trkpt lat="48.26755" lon="5.1369">
        <ele>225.99</ele>
        <time>2024-12-30T14:10:03.157Z</time>
      </trkpt>
      <trkpt lat="48.26755" lon="5.1369">
        <ele>225.73</ele>
        <time>2024-12-30T14:10:09.470Z</time>
      </trkpt>
      <trkpt lat="48.26751" lon="5.13661">
        <ele>226.43</ele>
        <time>2024-12-30T14:10:15.786Z</time>
      </trkpt>
      <trkpt lat="48.26747" lon="5.13632">
        <ele>225.7</ele>
        <time>2024-12-30T14:10:22.105Z</time>
      </trkpt>
      <trkpt lat="48.26742" lon="5.13594">
        <ele>225.72</ele>
        <time>2024-12-30T14:10:28.428Z</time>
      </trkpt>
      <trkpt lat="48.26723" lon="5.13598">
        <ele>227.41</ele>
        <time>2024-12-30T14:10:34.754Z</time>
      </trkpt>
      <trkpt lat="48.267" lon="5.13581">
        <ele>227.75</ele>
        <time>2024-12-30T14:10:41.085Z</time>
      </trkpt>
      <trkpt lat="48.26689" lon="5.13553">
        <ele>228.16</ele>
        <time>2024-12-30T14:10:47.419Z</time>
      </trkpt>
      <trkpt lat="48.26674" lon="5.13525">
        <ele>228.63</ele>
        <time>2024-12-30T14:10:53.757Z</time>
      </trkpt>
      <trkpt lat="48.26669" lon="5.13497">
        <ele>229.1</ele>
        <time>2024-12-30T14:11:00.098Z</time>
      </trkpt>
      <trkpt lat="48.26668" lon="5.13469">
        <ele>229.58</ele>
        <time>2024-12-30T14:11:06.442Z</time>
      </trkpt>
      <trkpt lat="48.26667" lon="5.13441">
        <ele>230.03</ele>
        <time>2024-12-30T14:11:12.789Z</time>
      </trkpt>
      <trkpt lat="48.26667" lon="5.13395">
        <ele>230.49</ele>
        <time>2024-12-30T14:11:19.141Z</time>
      </trkpt>
      <trkpt lat="48.26666" lon="5.13348">
        <ele>231</ele>
        <time>2024-12-30T14:11:25.498Z</time>
      </trkpt>
      <trkpt lat="48.26665" lon="5.13302">
        <ele>231.44</ele>
        <time>2024-12-30T14:11:31.860Z</time>
      </trkpt>
      <trkpt lat="48.26657" lon="5.13274">
        <ele>231.88</ele>
        <time>2024-12-30T14:11:38.225Z</time>
      </trkpt>
      <trkpt lat="48.26644" lon="5.13255">
        <ele>232.32</ele>
        <time>2024-12-30T14:11:44.593Z</time>
      </trkpt>
      <trkpt lat="48.26623" lon="5.13243">
        <ele>232.8</ele>
        <time>2024-12-30T14:11:50.965Z</time>
      </trkpt>
      <trkpt lat="48.26602" lon="5.13232">
        <ele>233.31</ele>
        <time>2024-12-30T14:11:57.340Z</time>
      </trkpt>
      <trkpt lat="48.26581" lon="5.1322">
        <ele>233.88</ele>
        <time>2024-12-30T14:12:03.719Z</time>
      </trkpt>
      <trkpt lat="48.26573" lon="5.13216">
        <ele>234.38</ele>
        <time>2024-12-30T14:12:10.099Z</time>
      </trkpt>
      <trkpt lat="48.26549" lon="5.13204">
        <ele>234.91</ele>
        <time>2024-12-30T14:12:16.483Z</time>
      </trkpt>
      <trkpt lat="48.26525" lon="5.13191">
        <ele>235.4</ele>
        <time>2024-12-30T14:12:22.871Z</time>
      </trkpt>
      <trkpt lat="48.265" lon="5.13179">
        <ele>235.83</ele>
        <time>2024-12-30T14:12:29.263Z</time>
      </trkpt>
      <trkpt lat="48.26476" lon="5.13167">
        <ele>236.26</ele>
        <time>2024-12-30T14:12:35.660Z</time>
      </trkpt>
      <trkpt lat="48.26451" lon="5.13141">
        <ele>236.66</ele>
        <time>2024-12-30T14:12:42.061Z</time>
      </trkpt>
      <trkpt lat="48.26436" lon="5.13122">
        <ele>237.01</ele>
        <time>2024-12-30T14:12:48.466Z</time>
      </trkpt>
      <trkpt lat="48.26423" lon="5.13094">
        <ele>237.28</ele>
        <time>2024-12-30T14:12:54.874Z</time>
      </trkpt>
      <trkpt lat="48.2641" lon="5.13067">
        <ele>237.52</ele>
        <time>2024-12-30T14:13:01.286Z</time>
      </trkpt>
      <trkpt lat="48.26397" lon="5.1304">
        <ele>237.72</ele>
        <time>2024-12-30T14:13:07.701Z</time>
      </trkpt>
      <trkpt lat="48.26385" lon="5.13012">
        <ele>237.92</ele>
        <time>2024-12-30T14:13:14.120Z</time>
      </trkpt>
      <trkpt lat="48.26373" lon="5.12984">
        <ele>238.09</ele>
        <time>2024-12-30T14:13:20.542Z</time>
      </trkpt>
      <trkpt lat="48.2636" lon="5.12956">
        <ele>238.28</ele>
        <time>2024-12-30T14:13:26.968Z</time>
      </trkpt>
      <trkpt lat="48.26346" lon="5.12919">
        <ele>238.37</ele>
        <time>2024-12-30T14:13:33.399Z</time>
      </trkpt>
      <trkpt lat="48.26332" lon="5.12882">
        <ele>238.43</ele>
        <time>2024-12-30T14:13:39.834Z</time>
      </trkpt>
      <trkpt lat="48.26318" lon="5.12845">
        <ele>238.5</ele>
        <time>2024-12-30T14:13:46.274Z</time>
      </trkpt>
      <trkpt lat="48.26308" lon="5.12807">
        <ele>238.55</ele>
        <time>2024-12-30T14:13:52.718Z</time>
      </trkpt>
      <trkpt lat="48.26298" lon="5.12769">
        <ele>238.59</ele>
        <time>2024-12-30T14:13:59.166Z</time>
      </trkpt>
      <trkpt lat="48.26289" lon="5.1273">
        <ele>238.75</ele>
        <time>2024-12-30T14:14:05.619Z</time>
      </trkpt>
      <trkpt lat="48.26279" lon="5.12692">
        <ele>238.91</ele>
        <time>2024-12-30T14:14:12.076Z</time>
      </trkpt>
      <trkpt lat="48.2627" lon="5.12654">
        <ele>239.05</ele>
        <time>2024-12-30T14:14:18.538Z</time>
      </trkpt>
      <trkpt lat="48.2626" lon="5.12616">
        <ele>239.09</ele>
        <time>2024-12-30T14:14:25.004Z</time>
      </trkpt>
      <trkpt lat="48.26251" lon="5.12579">
        <ele>239.03</ele>
        <time>2024-12-30T14:14:31.474Z</time>
      </trkpt>
      <trkpt lat="48.26251" lon="5.12562">
        <ele>238.99</ele>
        <time>2024-12-30T14:14:37.946Z</time>
      </trkpt>
      <trkpt lat="48.26251" lon="5.12562">
        <ele>238.97</ele>
        <time>2024-12-30T14:14:44.418Z</time>
      </trkpt>
      <trkpt lat="48.26255" lon="5.12534">
        <ele>238.9</ele>
        <time>2024-12-30T14:14:50.893Z</time>
      </trkpt>
      <trkpt lat="48.26255" lon="5.12516">
        <ele>238.84</ele>
        <time>2024-12-30T14:14:57.370Z</time>
      </trkpt>
      <trkpt lat="48.26249" lon="5.12491">
        <ele>238.84</ele>
        <time>2024-12-30T14:15:03.850Z</time>
      </trkpt>
      <trkpt lat="48.26236" lon="5.12452">
        <ele>238.86</ele>
        <time>2024-12-30T14:15:10.334Z</time>
      </trkpt>
      <trkpt lat="48.26234" lon="5.1242">
        <ele>238.9</ele>
        <time>2024-12-30T14:15:16.822Z</time>
      </trkpt>
      <trkpt lat="48.26234" lon="5.1242">
        <ele>238.69</ele>
        <time>2024-12-30T14:15:23.310Z</time>
      </trkpt>
      <trkpt lat="48.26206" lon="5.12401">
        <ele>238.38</ele>
        <time>2024-12-30T14:15:29.803Z</time>
      </trkpt>
      <trkpt lat="48.26188" lon="5.12377">
        <ele>238.02</ele>
        <time>2024-12-30T14:15:36.300Z</time>
      </trkpt>
      <trkpt lat="48.26169" lon="5.12353">
        <ele>237.6</ele>
        <time>2024-12-30T14:15:42.801Z</time>
      </trkpt>
      <trkpt lat="48.26159" lon="5.12331">
        <ele>237.23</ele>
        <time>2024-12-30T14:15:49.305Z</time>
      </trkpt>
      <trkpt lat="48.26148" lon="5.12308">
        <ele>236.74</ele>
        <time>2024-12-30T14:15:55.811Z</time>
      </trkpt>
      <trkpt lat="48.26134" lon="5.12271">
        <ele>236.21</ele>
        <time>2024-12-30T14:16:02.322Z</time>
      </trkpt>
      <trkpt lat="48.26119" lon="5.12234">
        <ele>235.64</ele>
        <time>2024-12-30T14:16:08.838Z</time>
      </trkpt>
      <trkpt lat="48.26104" lon="5.12197">
        <ele>234.96</ele>
        <time>2024-12-30T14:16:15.358Z</time>
      </trkpt>
      <trkpt lat="48.2609" lon="5.1216">
        <ele>234.29</ele>
        <time>2024-12-30T14:16:21.883Z</time>
      </trkpt>
      <trkpt lat="48.26075" lon="5.12131">
        <ele>233.66</ele>
        <time>2024-12-30T14:16:28.412Z</time>
      </trkpt>
      <trkpt lat="48.2606" lon="5.12102">
        <ele>233</ele>
        <time>2024-12-30T14:16:34.945Z</time>
      </trkpt>
      <trkpt lat="48.26041" lon="5.12077">
        <ele>232.24</ele>
        <time>2024-12-30T14:16:41.482Z</time>
      </trkpt>
      <trkpt lat="48.26023" lon="5.12051">
        <ele>231.51</ele>
        <time>2024-12-30T14:16:48.023Z</time>
      </trkpt>
      <trkpt lat="48.26004" lon="5.12025">
        <ele>230.85</ele>
        <time>2024-12-30T14:16:54.568Z</time>
      </trkpt>
      <trkpt lat="48.25985" lon="5.12005">
        <ele>230.22</ele>
        <time>2024-12-30T14:17:01.117Z</time>
      </trkpt>
      <trkpt lat="48.25966" lon="5.11985">
        <ele>229.62</ele>
        <time>2024-12-30T14:17:07.669Z</time>
      </trkpt>
      <trkpt lat="48.25946" lon="5.11965">
        <ele>228.94</ele>
        <time>2024-12-30T14:17:14.225Z</time>
      </trkpt>
      <trkpt lat="48.25925" lon="5.11948">
        <ele>228.3</ele>
        <time>2024-12-30T14:17:20.785Z</time>
      </trkpt>
      <trkpt lat="48.25904" lon="5.11932">
        <ele>227.71</ele>
        <time>2024-12-30T14:17:27.349Z</time>
      </trkpt>
      <trkpt lat="48.25884" lon="5.11915">
        <ele>227.19</ele>
        <time>2024-12-30T14:17:33.916Z</time>
      </trkpt>
      <trkpt lat="48.25863" lon="5.11899">
        <ele>226.67</ele>
        <time>2024-12-30T14:17:40.487Z</time>
      </trkpt>
      <trkpt lat="48.25841" lon="5.11885">
        <ele>226.2</ele>
        <time>2024-12-30T14:17:47.062Z</time>
      </trkpt>
      <trkpt lat="48.2582" lon="5.11871">
        <ele>225.79</ele>
        <time>2024-12-30T14:17:53.641Z</time>
      </trkpt>
      <trkpt lat="48.25798" lon="5.11858">
        <ele>225.45</ele>
        <time>2024-12-30T14:18:00.223Z</time>
      </trkpt>
      <trkpt lat="48.25769" lon="5.1185">
        <ele>225.15</ele>
        <time>2024-12-30T14:18:06.810Z</time>
      </trkpt>
      <trkpt lat="48.25741" lon="5.11843">
        <ele>224.85</ele>
        <time>2024-12-30T14:18:13.402Z</time>
      </trkpt>
      <trkpt lat="48.25712" lon="5.11836">
        <ele>224.65</ele>
        <time>2024-12-30T14:18:19.999Z</time>
      </trkpt>
      <trkpt lat="48.25683" lon="5.11828">
        <ele>224.56</ele>
        <time>2024-12-30T14:18:26.600Z</time>
      </trkpt>
      <trkpt lat="48.25654" lon="5.11821">
        <ele>224.5</ele>
        <time>2024-12-30T14:18:33.206Z</time>
      </trkpt>
      <trkpt lat="48.25625" lon="5.11813">
        <ele>224.49</ele>
        <time>2024-12-30T14:18:39.817Z</time>
      </trkpt>
      <trkpt lat="48.25596" lon="5.11806">
        <ele>224.51</ele>
        <time>2024-12-30T14:18:46.432Z</time>
      </trkpt>
      <trkpt lat="48.25568" lon="5.11799">
        <ele>224.57</ele>
        <time>2024-12-30T14:18:53.052Z</time>
      </trkpt>
      <trkpt lat="48.25539" lon="5.11791">
        <ele>224.63</ele>
        <time>2024-12-30T14:18:59.677Z</time>
      </trkpt>
      <trkpt lat="48.25539" lon="5.11791">
        <ele>224.76</ele>
        <time>2024-12-30T14:19:06.302Z</time>
      </trkpt>
      <trkpt lat="48.25511" lon="5.11783">
        <ele>224.93</ele>
        <time>2024-12-30T14:19:12.931Z</time>
      </trkpt>
      <trkpt lat="48.25502" lon="5.11781">
        <ele>225.13</ele>
        <time>2024-12-30T14:19:19.562Z</time>
      </trkpt>
      <trkpt lat="48.25502" lon="5.11781">
        <ele>225.36</ele>
        <time>2024-12-30T14:19:26.193Z</time>
      </trkpt>
      <trkpt lat="48.25477" lon="5.11774">
        <ele>225.66</ele>
        <time>2024-12-30T14:19:32.828Z</time>
      </trkpt>
      <trkpt lat="48.25452" lon="5.11768">
        <ele>225.97</ele>
        <time>2024-12-30T14:19:39.467Z</time>
      </trkpt>
      <trkpt lat="48.25427" lon="5.11761">
        <ele>226.3</ele>
        <time>2024-12-30T14:19:46.110Z</time>
      </trkpt>
      <trkpt lat="48.25403" lon="5.11755">
        <ele>226.69</ele>
        <time>2024-12-30T14:19:52.757Z</time>
      </trkpt>
      <trkpt lat="48.25378" lon="5.11748">
        <ele>227.12</ele>
        <time>2024-12-30T14:19:59.408Z</time>
      </trkpt>
      <trkpt lat="48.25378" lon="5.11748">
        <ele>227.48</ele>
        <time>2024-12-30T14:20:06.059Z</time>
      </trkpt>
      <trkpt lat="48.25349" lon="5.1174">
        <ele>227.89</ele>
        <time>2024-12-30T14:20:12.714Z</time>
      </trkpt>
      <trkpt lat="48.25321" lon="5.11732">
        <ele>228.25</ele>
        <time>2024-12-30T14:20:19.374Z</time>
      </trkpt>
      <trkpt lat="48.25292" lon="5.11724">
        <ele>228.59</ele>
        <time>2024-12-30T14:20:26.039Z</time>
      </trkpt>
      <trkpt lat="48.25264" lon="5.11716">
        <ele>228.92</ele>
        <time>2024-12-30T14:20:32.708Z</time>
      </trkpt>
      <trkpt lat="48.25262" lon="5.11682">
        <ele>229.27</ele>
        <time>2024-12-30T14:20:39.381Z</time>
      </trkpt>
      <trkpt lat="48.2526" lon="5.11649">
        <ele>229.68</ele>
        <time>2024-12-30T14:20:46.058Z</time>
      </trkpt>
      <trkpt lat="48.25258" lon="5.11615">
        <ele>230.12</ele>
        <time>2024-12-30T14:20:52.738Z</time>
      </trkpt>
      <trkpt lat="48.25262" lon="5.11605">
        <ele>230.5</ele>
        <time>2024-12-30T14:20:59.420Z</time>
      </trkpt>
      <trkpt lat="48.2527" lon="5.11596">
        <ele>230.87</ele>
        <time>2024-12-30T14:21:06.103Z</time>
      </trkpt>
      <trkpt lat="48.25298" lon="5.11592">
        <ele>231.16</ele>
        <time>2024-12-30T14:21:12.791Z</time>
      </trkpt>
      <trkpt lat="48.25305" lon="5.11585">
        <ele>231.5</ele>
        <time>2024-12-30T14:21:19.480Z</time>
      </trkpt>
      <trkpt lat="48.25307" lon="5.11577">
        <ele>231.83</ele>
        <time>2024-12-30T14:21:26.170Z</time>
      </trkpt>
      <trkpt lat="48.25305" lon="5.11549">
        <ele>232.19</ele>
        <time>2024-12-30T14:21:32.863Z</time>
      </trkpt>
      <trkpt lat="48.25303" lon="5.11521">
        <ele>232.49</ele>
        <time>2024-12-30T14:21:39.559Z</time>
      </trkpt>
      <trkpt lat="48.25296" lon="5.11491">
        <ele>232.83</ele>
        <time>2024-12-30T14:21:46.258Z</time>
      </trkpt>
      <trkpt lat="48.25281" lon="5.1145">
        <ele>233.06</ele>
        <time>2024-12-30T14:21:52.962Z</time>
      </trkpt>
      <trkpt lat="48.25274" lon="5.11419">
        <ele>233.34</ele>
        <time>2024-12-30T14:21:59.670Z</time>
      </trkpt>
      <trkpt lat="48.25267" lon="5.11387">
        <ele>233.62</ele>
        <time>2024-12-30T14:22:06.381Z</time>
      </trkpt>
      <trkpt lat="48.2526" lon="5.11356">
        <ele>233.89</ele>
        <time>2024-12-30T14:22:13.096Z</time>
      </trkpt>
      <trkpt lat="48.25253" lon="5.11314">
        <ele>234.12</ele>
        <time>2024-12-30T14:22:19.815Z</time>
      </trkpt>
      <trkpt lat="48.25245" lon="5.11272">
        <ele>234.28</ele>
        <time>2024-12-30T14:22:26.539Z</time>
      </trkpt>
      <trkpt lat="48.25238" lon="5.11231">
        <ele>234.5</ele>
        <time>2024-12-30T14:22:33.268Z</time>
      </trkpt>
      <trkpt lat="48.25234" lon="5.11205">
        <ele>234.73</ele>
        <time>2024-12-30T14:22:39.999Z</time>
      </trkpt>
      <trkpt lat="48.2523" lon="5.1118">
        <ele>234.9</ele>
        <time>2024-12-30T14:22:46.733Z</time>
      </trkpt>
      <trkpt lat="48.25229" lon="5.11146">
        <ele>235.04</ele>
        <time>2024-12-30T14:22:53.471Z</time>
      </trkpt>
      <trkpt lat="48.25228" lon="5.11113">
        <ele>235.25</ele>
        <time>2024-12-30T14:23:00.212Z</time>
      </trkpt>
      <trkpt lat="48.25227" lon="5.11072">
        <ele>235.42</ele>
        <time>2024-12-30T14:23:06.958Z</time>
      </trkpt>
      <trkpt lat="48.25226" lon="5.11031">
        <ele>235.67</ele>
        <time>2024-12-30T14:23:13.708Z</time>
      </trkpt>
      <trkpt lat="48.25225" lon="5.10991">
        <ele>235.92</ele>
        <time>2024-12-30T14:23:20.463Z</time>
      </trkpt>
      <trkpt lat="48.25229" lon="5.10965">
        <ele>236.09</ele>
        <time>2024-12-30T14:23:27.220Z</time>
      </trkpt>
      <trkpt lat="48.25232" lon="5.10939">
        <ele>236.23</ele>
        <time>2024-12-30T14:23:33.980Z</time>
      </trkpt>
      <trkpt lat="48.25236" lon="5.10906">
        <ele>236.41</ele>
        <time>2024-12-30T14:23:40.744Z</time>
      </trkpt>
      <trkpt lat="48.2524" lon="5.10873">
        <ele>236.59</ele>
        <time>2024-12-30T14:23:47.511Z</time>
      </trkpt>
      <trkpt lat="48.25245" lon="5.10841">
        <ele>236.78</ele>
        <time>2024-12-30T14:23:54.282Z</time>
      </trkpt>
      <trkpt lat="48.25245" lon="5.10806">
        <ele>237.01</ele>
        <time>2024-12-30T14:24:01.057Z</time>
      </trkpt>
      <trkpt lat="48.25238" lon="5.10765">
        <ele>237.22</ele>
        <time>2024-12-30T14:24:07.836Z</time>
      </trkpt>
      <trkpt lat="48.25232" lon="5.10725">
        <ele>237.45</ele>
        <time>2024-12-30T14:24:14.620Z</time>
      </trkpt>
      <trkpt lat="48.25225" lon="5.10684">
        <ele>237.71</ele>
        <time>2024-12-30T14:24:21.408Z</time>
      </trkpt>
      <trkpt lat="48.25224" lon="5.1065">
        <ele>238</ele>
        <time>2024-12-30T14:24:28.200Z</time>
      </trkpt>
      <trkpt lat="48.25223" lon="5.10615">
        <ele>238.28</ele>
        <time>2024-12-30T14:24:34.995Z</time>
      </trkpt>
      <trkpt lat="48.25223" lon="5.10605">
        <ele>238.57</ele>
        <time>2024-12-30T14:24:41.791Z</time>
      </trkpt>
      <trkpt lat="48.25219" lon="5.10579">
        <ele>238.86</ele>
        <time>2024-12-30T14:24:48.590Z</time>
      </trkpt>
      <trkpt lat="48.25215" lon="5.10553">
        <ele>239.16</ele>
        <time>2024-12-30T14:24:55.392Z</time>
      </trkpt>
      <trkpt lat="48.25208" lon="5.1052">
        <ele>239.46</ele>
        <time>2024-12-30T14:25:02.198Z</time>
      </trkpt>
      <trkpt lat="48.25202" lon="5.10487">
        <ele>239.79</ele>
        <time>2024-12-30T14:25:09.008Z</time>
      </trkpt>
      <trkpt lat="48.25195" lon="5.10454">
        <ele>240.15</ele>
        <time>2024-12-30T14:25:15.821Z</time>
      </trkpt>
      <trkpt lat="48.25194" lon="5.10414">
        <ele>240.57</ele>
        <time>2024-12-30T14:25:22.639Z</time>
      </trkpt>
      <trkpt lat="48.25192" lon="5.10373">
        <ele>241.09</ele>
        <time>2024-12-30T14:25:29.461Z</time>
      </trkpt>
      <trkpt lat="48.25191" lon="5.10332">
        <ele>241.61</ele>
        <time>2024-12-30T14:25:36.287Z</time>
      </trkpt>
      <trkpt lat="48.25192" lon="5.10303">
        <ele>242.15</ele>
        <time>2024-12-30T14:25:43.116Z</time>
      </trkpt>
      <trkpt lat="48.25193" lon="5.10274">
        <ele>242.72</ele>
        <time>2024-12-30T14:25:49.948Z</time>
      </trkpt>
      <trkpt lat="48.25197" lon="5.10233">
        <ele>243.33</ele>
        <time>2024-12-30T14:25:56.785Z</time>
      </trkpt>
      <trkpt lat="48.25201" lon="5.10192">
        <ele>243.97</ele>
        <time>2024-12-30T14:26:03.626Z</time>
      </trkpt>
      <trkpt lat="48.25205" lon="5.1015">
        <ele>244.67</ele>
        <time>2024-12-30T14:26:10.472Z</time>
      </trkpt>
      <trkpt lat="48.25209" lon="5.10109">
        <ele>245.33</ele>
        <time>2024-12-30T14:26:17.322Z</time>
      </trkpt>
      <trkpt lat="48.25212" lon="5.10068">
        <ele>246.01</ele>
        <time>2024-12-30T14:26:24.177Z</time>
      </trkpt>
      <trkpt lat="48.25214" lon="5.10038">
        <ele>246.66</ele>
        <time>2024-12-30T14:26:31.035Z</time>
      </trkpt>
      <trkpt lat="48.25215" lon="5.10008">
        <ele>247.28</ele>
        <time>2024-12-30T14:26:37.896Z</time>
      </trkpt>
      <trkpt lat="48.25211" lon="5.09982">
        <ele>247.91</ele>
        <time>2024-12-30T14:26:44.760Z</time>
      </trkpt>
      <trkpt lat="48.25208" lon="5.09957">
        <ele>248.51</ele>
        <time>2024-12-30T14:26:51.627Z</time>
      </trkpt>
      <trkpt lat="48.252" lon="5.0992">
        <ele>249.18</ele>
        <time>2024-12-30T14:26:58.498Z</time>
      </trkpt>
      <trkpt lat="48.25192" lon="5.09883">
        <ele>249.84</ele>
        <time>2024-12-30T14:27:05.373Z</time>
      </trkpt>
      <trkpt lat="48.25185" lon="5.09847">
        <ele>250.45</ele>
        <time>2024-12-30T14:27:12.252Z</time>
      </trkpt>
      <trkpt lat="48.25181" lon="5.09821">
        <ele>251.13</ele>
        <time>2024-12-30T14:27:19.134Z</time>
      </trkpt>
      <trkpt lat="48.25178" lon="5.09796">
        <ele>251.74</ele>
        <time>2024-12-30T14:27:26.019Z</time>
      </trkpt>
      <trkpt lat="48.25176" lon="5.09753">
        <ele>252.38</ele>
        <time>2024-12-30T14:27:32.908Z</time>
      </trkpt>
      <trkpt lat="48.25174" lon="5.0971">
        <ele>252.99</ele>
        <time>2024-12-30T14:27:39.802Z</time>
      </trkpt>
      <trkpt lat="48.25172" lon="5.09667">
        <ele>253.56</ele>
        <time>2024-12-30T14:27:46.700Z</time>
      </trkpt>
      <trkpt lat="48.25164" lon="5.09627">
        <ele>254.13</ele>
        <time>2024-12-30T14:27:53.603Z</time>
      </trkpt>
      <trkpt lat="48.25157" lon="5.09588">
        <ele>254.63</ele>
        <time>2024-12-30T14:28:00.510Z</time>
      </trkpt>
      <trkpt lat="48.25153" lon="5.09552">
        <ele>255.14</ele>
        <time>2024-12-30T14:28:07.421Z</time>
      </trkpt>
      <trkpt lat="48.2515" lon="5.09517">
        <ele>255.7</ele>
        <time>2024-12-30T14:28:14.336Z</time>
      </trkpt>
      <trkpt lat="48.25141" lon="5.09479">
        <ele>256.31</ele>
        <time>2024-12-30T14:28:21.255Z</time>
      </trkpt>
      <trkpt lat="48.25132" lon="5.09441">
        <ele>256.87</ele>
        <time>2024-12-30T14:28:28.179Z</time>
      </trkpt>
      <trkpt lat="48.25122" lon="5.09403">
        <ele>257.42</ele>
        <time>2024-12-30T14:28:35.107Z</time>
      </trkpt>
      <trkpt lat="48.25109" lon="5.09362">
        <ele>257.89</ele>
        <time>2024-12-30T14:28:42.040Z</time>
      </trkpt>
      <trkpt lat="48.25095" lon="5.09328">
        <ele>258.32</ele>
        <time>2024-12-30T14:28:48.977Z</time>
      </trkpt>
      <trkpt lat="48.2508" lon="5.09294">
        <ele>258.75</ele>
        <time>2024-12-30T14:28:55.918Z</time>
      </trkpt>
      <trkpt lat="48.25066" lon="5.0926">
        <ele>259.22</ele>
        <time>2024-12-30T14:29:02.864Z</time>
      </trkpt>
      <trkpt lat="48.25051" lon="5.09226">
        <ele>259.69</ele>
        <time>2024-12-30T14:29:09.814Z</time>
      </trkpt>
      <trkpt lat="48.25037" lon="5.09193">
        <ele>260.11</ele>
        <time>2024-12-30T14:29:16.768Z</time>
      </trkpt>
      <trkpt lat="48.25022" lon="5.09154">
        <ele>260.5</ele>
        <time>2024-12-30T14:29:23.727Z</time>
      </trkpt>
      <trkpt lat="48.25017" lon="5.09112">
        <ele>260.95</ele>
        <time>2024-12-30T14:29:30.691Z</time>
      </trkpt>
      <trkpt lat="48.25013" lon="5.0907">
        <ele>261.34</ele>
        <time>2024-12-30T14:29:37.659Z</time>
      </trkpt>
      <trkpt lat="48.25005" lon="5.09033">
        <ele>261.7</ele>
        <time>2024-12-30T14:29:44.631Z</time>
      </trkpt>
      <trkpt lat="48.24997" lon="5.08996">
        <ele>262.09</ele>
        <time>2024-12-30T14:29:51.607Z</time>
      </trkpt>
      <trkpt lat="48.24989" lon="5.08959">
        <ele>262.47</ele>
        <time>2024-12-30T14:29:58.588Z</time>
      </trkpt>
      <trkpt lat="48.2498" lon="5.0892">
        <ele>262.91</ele>
        <time>2024-12-30T14:30:05.573Z</time>
      </trkpt>
      <trkpt lat="48.24971" lon="5.08881">
        <ele>263.37</ele>
        <time>2024-12-30T14:30:12.562Z</time>
      </trkpt>
      <trkpt lat="48.24961" lon="5.08843">
        <ele>263.78</ele>
        <time>2024-12-30T14:30:19.556Z</time>
      </trkpt>
      <trkpt lat="48.24955" lon="5.088">
        <ele>264.2</ele>
        <time>2024-12-30T14:30:26.555Z</time>
      </trkpt>
      <trkpt lat="48.24949" lon="5.08757">
        <ele>264.63</ele>
        <time>2024-12-30T14:30:33.558Z</time>
      </trkpt>
      <trkpt lat="48.24938" lon="5.08713">
        <ele>265.2</ele>
        <time>2024-12-30T14:30:40.566Z</time>
      </trkpt>
      <trkpt lat="48.24927" lon="5.08669">
        <ele>265.74</ele>
        <time>2024-12-30T14:30:47.579Z</time>
      </trkpt>
      <trkpt lat="48.24916" lon="5.08625">
        <ele>266.28</ele>
        <time>2024-12-30T14:30:54.597Z</time>
      </trkpt>
      <trkpt lat="48.24906" lon="5.08581">
        <ele>266.77</ele>
        <time>2024-12-30T14:31:01.620Z</time>
      </trkpt>
      <trkpt lat="48.24892" lon="5.08542">
        <ele>267.29</ele>
        <time>2024-12-30T14:31:08.648Z</time>
      </trkpt>
      <trkpt lat="48.24878" lon="5.08504">
        <ele>267.86</ele>
        <time>2024-12-30T14:31:15.681Z</time>
      </trkpt>
      <trkpt lat="48.24865" lon="5.08465">
        <ele>268.45</ele>
        <time>2024-12-30T14:31:22.718Z</time>
      </trkpt>
      <trkpt lat="48.24852" lon="5.08433">
        <ele>269.03</ele>
        <time>2024-12-30T14:31:29.759Z</time>
      </trkpt>
      <trkpt lat="48.24839" lon="5.084">
        <ele>269.62</ele>
        <time>2024-12-30T14:31:36.804Z</time>
      </trkpt>
      <trkpt lat="48.24826" lon="5.08367">
        <ele>270.23</ele>
        <time>2024-12-30T14:31:43.853Z</time>
      </trkpt>
      <trkpt lat="48.24813" lon="5.08335">
        <ele>270.9</ele>
        <time>2024-12-30T14:31:50.906Z</time>
      </trkpt>
      <trkpt lat="48.248" lon="5.08302">
        <ele>271.55</ele>
        <time>2024-12-30T14:31:57.963Z</time>
      </trkpt>
      <trkpt lat="48.24789" lon="5.0827">
        <ele>272.15</ele>
        <time>2024-12-30T14:32:05.024Z</time>
      </trkpt>
      <trkpt lat="48.24777" lon="5.08238">
        <ele>272.81</ele>
        <time>2024-12-30T14:32:12.089Z</time>
      </trkpt>
      <trkpt lat="48.2477" lon="5.08209">
        <ele>273.48</ele>
        <time>2024-12-30T14:32:19.158Z</time>
      </trkpt>
      <trkpt lat="48.24764" lon="5.0818">
        <ele>274.22</ele>
        <time>2024-12-30T14:32:26.230Z</time>
      </trkpt>
      <trkpt lat="48.24758" lon="5.0814">
        <ele>275</ele>
        <time>2024-12-30T14:32:33.306Z</time>
      </trkpt>
      <trkpt lat="48.24752" lon="5.08101">
        <ele>275.73</ele>
        <time>2024-12-30T14:32:40.387Z</time>
      </trkpt>
      <trkpt lat="48.24746" lon="5.08062">
        <ele>276.33</ele>
        <time>2024-12-30T14:32:47.472Z</time>
      </trkpt>
      <trkpt lat="48.2474" lon="5.08022">
        <ele>277</ele>
        <time>2024-12-30T14:32:54.561Z</time>
      </trkpt>
      <trkpt lat="48.24734" lon="5.07983">
        <ele>277.71</ele>
        <time>2024-12-30T14:33:01.655Z</time>
      </trkpt>
      <trkpt lat="48.24728" lon="5.07944">
        <ele>278.41</ele>
        <time>2024-12-30T14:33:08.753Z</time>
      </trkpt>
      <trkpt lat="48.2472" lon="5.07907">
        <ele>279.08</ele>
        <time>2024-12-30T14:33:15.855Z</time>
      </trkpt>
      <trkpt lat="48.24712" lon="5.0787">
        <ele>279.63</ele>
        <time>2024-12-30T14:33:22.961Z</time>
      </trkpt>
      <trkpt lat="48.24704" lon="5.07833">
        <ele>280.03</ele>
        <time>2024-12-30T14:33:30.071Z</time>
      </trkpt>
      <trkpt lat="48.24697" lon="5.07796">
        <ele>280.37</ele>
        <time>2024-12-30T14:33:37.185Z</time>
      </trkpt>
      <trkpt lat="48.24689" lon="5.07759">
        <ele>280.64</ele>
        <time>2024-12-30T14:33:44.303Z</time>
      </trkpt>
      <trkpt lat="48.24689" lon="5.07742">
        <ele>280.82</ele>
        <time>2024-12-30T14:33:51.423Z</time>
      </trkpt>
      <trkpt lat="48.24697" lon="5.07731">
        <ele>280.93</ele>
        <time>2024-12-30T14:33:58.545Z</time>
      </trkpt>
      <trkpt lat="48.24717" lon="5.07725">
        <ele>280.98</ele>
        <time>2024-12-30T14:34:05.670Z</time>
      </trkpt>
      <trkpt lat="48.24717" lon="5.07725">
        <ele>280.98</ele>
        <time>2024-12-30T14:34:12.795Z</time>
      </trkpt>
      <trkpt lat="48.24697" lon="5.07731">
        <ele>280.93</ele>
        <time>2024-12-30T14:34:19.923Z</time>
      </trkpt>
      <trkpt lat="48.24689" lon="5.07742">
        <ele>280.82</ele>
        <time>2024-12-30T14:34:27.053Z</time>
      </trkpt>
      <trkpt lat="48.24689" lon="5.07759">
        <ele>280.64</ele>
        <time>2024-12-30T14:34:34.185Z</time>
      </trkpt>
      <trkpt lat="48.24697" lon="5.07796">
        <ele>280.37</ele>
        <time>2024-12-30T14:34:41.321Z</time>
      </trkpt>
      <trkpt lat="48.24704" lon="5.07833">
        <ele>280.02</ele>
        <time>2024-12-30T14:34:48.461Z</time>
      </trkpt>
      <trkpt lat="48.24712" lon="5.0787">
        <ele>279.62</ele>
        <time>2024-12-30T14:34:55.606Z</time>
      </trkpt>
      <trkpt lat="48.2472" lon="5.07907">
        <ele>279.07</ele>
        <time>2024-12-30T14:35:02.755Z</time>
      </trkpt>
      <trkpt lat="48.24728" lon="5.07944">
        <ele>278.41</ele>
        <time>2024-12-30T14:35:09.908Z</time>
      </trkpt>
      <trkpt lat="48.24734" lon="5.07983">
        <ele>277.69</ele>
        <time>2024-12-30T14:35:17.065Z</time>
      </trkpt>
      <trkpt lat="48.2474" lon="5.08023">
        <ele>276.98</ele>
        <time>2024-12-30T14:35:24.226Z</time>
      </trkpt>
      <trkpt lat="48.24746" lon="5.08062">
        <ele>276.32</ele>
        <time>2024-12-30T14:35:31.392Z</time>
      </trkpt>
      <trkpt lat="48.24752" lon="5.08102">
        <ele>275.72</ele>
        <time>2024-12-30T14:35:38.562Z</time>
      </trkpt>
      <trkpt lat="48.24758" lon="5.08141">
        <ele>274.98</ele>
        <time>2024-12-30T14:35:45.736Z</time>
      </trkpt>
      <trkpt lat="48.24764" lon="5.0818">
        <ele>274.22</ele>
        <time>2024-12-30T14:35:52.915Z</time>
      </trkpt>
      <trkpt lat="48.2477" lon="5.08209">
        <ele>273.47</ele>
        <time>2024-12-30T14:36:00.097Z</time>
      </trkpt>
      <trkpt lat="48.24777" lon="5.08238">
        <ele>272.81</ele>
        <time>2024-12-30T14:36:07.282Z</time>
      </trkpt>
      <trkpt lat="48.24789" lon="5.0827">
        <ele>272.14</ele>
        <time>2024-12-30T14:36:14.471Z</time>
      </trkpt>
      <trkpt lat="48.248" lon="5.08302">
        <ele>271.55</ele>
        <time>2024-12-30T14:36:21.664Z</time>
      </trkpt>
      <trkpt lat="48.24813" lon="5.08335">
        <ele>270.89</ele>
        <time>2024-12-30T14:36:28.861Z</time>
      </trkpt>
      <trkpt lat="48.24826" lon="5.08368">
        <ele>270.22</ele>
        <time>2024-12-30T14:36:36.062Z</time>
      </trkpt>
      <trkpt lat="48.24839" lon="5.084">
        <ele>269.6</ele>
        <time>2024-12-30T14:36:43.267Z</time>
      </trkpt>
      <trkpt lat="48.24852" lon="5.08433">
        <ele>269.02</ele>
        <time>2024-12-30T14:36:50.476Z</time>
      </trkpt>
      <trkpt lat="48.24865" lon="5.08465">
        <ele>268.45</ele>
        <time>2024-12-30T14:36:57.689Z</time>
      </trkpt>
      <trkpt lat="48.24878" lon="5.08504">
        <ele>267.84</ele>
        <time>2024-12-30T14:37:04.907Z</time>
      </trkpt>
      <trkpt lat="48.24892" lon="5.08543">
        <ele>267.27</ele>
        <time>2024-12-30T14:37:12.130Z</time>
      </trkpt>
      <trkpt lat="48.24906" lon="5.08581">
        <ele>266.77</ele>
        <time>2024-12-30T14:37:19.357Z</time>
      </trkpt>
      <trkpt lat="48.24916" lon="5.08625">
        <ele>266.26</ele>
        <time>2024-12-30T14:37:26.589Z</time>
      </trkpt>
      <trkpt lat="48.24927" lon="5.08669">
        <ele>265.71</ele>
        <time>2024-12-30T14:37:33.826Z</time>
      </trkpt>
      <trkpt lat="48.24938" lon="5.08713">
        <ele>265.17</ele>
        <time>2024-12-30T14:37:41.068Z</time>
      </trkpt>
      <trkpt lat="48.24949" lon="5.08757">
        <ele>264.63</ele>
        <time>2024-12-30T14:37:48.315Z</time>
      </trkpt>
      <trkpt lat="48.24955" lon="5.088">
        <ele>264.17</ele>
        <time>2024-12-30T14:37:55.567Z</time>
      </trkpt>
      <trkpt lat="48.24961" lon="5.08843">
        <ele>263.78</ele>
        <time>2024-12-30T14:38:02.824Z</time>
      </trkpt>
      <trkpt lat="48.24971" lon="5.08882">
        <ele>263.34</ele>
        <time>2024-12-30T14:38:10.085Z</time>
      </trkpt>
      <trkpt lat="48.2498" lon="5.0892">
        <ele>262.88</ele>
        <time>2024-12-30T14:38:17.351Z</time>
      </trkpt>
      <trkpt lat="48.24989" lon="5.08959">
        <ele>262.47</ele>
        <time>2024-12-30T14:38:24.621Z</time>
      </trkpt>
      <trkpt lat="48.24997" lon="5.08996">
        <ele>262.06</ele>
        <time>2024-12-30T14:38:31.895Z</time>
      </trkpt>
      <trkpt lat="48.25005" lon="5.09033">
        <ele>261.68</ele>
        <time>2024-12-30T14:38:39.173Z</time>
      </trkpt>
      <trkpt lat="48.25013" lon="5.0907">
        <ele>261.34</ele>
        <time>2024-12-30T14:38:46.455Z</time>
      </trkpt>
      <trkpt lat="48.25017" lon="5.09112">
        <ele>260.93</ele>
        <time>2024-12-30T14:38:53.742Z</time>
      </trkpt>
      <trkpt lat="48.25022" lon="5.09154">
        <ele>260.5</ele>
        <time>2024-12-30T14:39:01.033Z</time>
      </trkpt>
      <trkpt lat="48.25037" lon="5.09193">
        <ele>260.11</ele>
        <time>2024-12-30T14:39:08.329Z</time>
      </trkpt>
      <trkpt lat="48.25051" lon="5.09227">
        <ele>259.68</ele>
        <time>2024-12-30T14:39:15.630Z</time>
      </trkpt>
      <trkpt lat="48.25066" lon="5.09261">
        <ele>259.22</ele>
        <time>2024-12-30T14:39:22.935Z</time>
      </trkpt>
      <trkpt lat="48.2508" lon="5.09295">
        <ele>258.75</ele>
        <time>2024-12-30T14:39:30.244Z</time>
      </trkpt>
      <trkpt lat="48.25095" lon="5.09329">
        <ele>258.33</ele>
        <time>2024-12-30T14:39:37.558Z</time>
      </trkpt>
      <trkpt lat="48.25109" lon="5.09362">
        <ele>257.89</ele>
        <time>2024-12-30T14:39:44.876Z</time>
      </trkpt>
      <trkpt lat="48.25122" lon="5.09403">
        <ele>257.42</ele>
        <time>2024-12-30T14:39:52.199Z</time>
      </trkpt>
      <trkpt lat="48.25132" lon="5.09441">
        <ele>256.91</ele>
        <time>2024-12-30T14:39:59.526Z</time>
      </trkpt>
      <trkpt lat="48.25141" lon="5.09479">
        <ele>256.36</ele>
        <time>2024-12-30T14:40:06.857Z</time>
      </trkpt>
      <trkpt lat="48.2515" lon="5.09517">
        <ele>255.7</ele>
        <time>2024-12-30T14:40:14.193Z</time>
      </trkpt>
      <trkpt lat="48.25153" lon="5.09552">
        <ele>255.21</ele>
        <time>2024-12-30T14:40:21.532Z</time>
      </trkpt>
      <trkpt lat="48.25157" lon="5.09588">
        <ele>254.63</ele>
        <time>2024-12-30T14:40:28.875Z</time>
      </trkpt>
      <trkpt lat="48.25164" lon="5.09627">
        <ele>254.23</ele>
        <time>2024-12-30T14:40:36.223Z</time>
      </trkpt>
      <trkpt lat="48.25172" lon="5.09667">
        <ele>253.56</ele>
        <time>2024-12-30T14:40:43.575Z</time>
      </trkpt>
      <trkpt lat="48.25174" lon="5.0971">
        <ele>253.11</ele>
        <time>2024-12-30T14:40:50.932Z</time>
      </trkpt>
      <trkpt lat="48.25176" lon="5.09753">
        <ele>252.51</ele>
        <time>2024-12-30T14:40:58.293Z</time>
      </trkpt>
      <trkpt lat="48.25178" lon="5.09796">
        <ele>251.74</ele>
        <time>2024-12-30T14:41:05.659Z</time>
      </trkpt>
      <trkpt lat="48.25181" lon="5.09821">
        <ele>251.28</ele>
        <time>2024-12-30T14:41:13.028Z</time>
      </trkpt>
      <trkpt lat="48.25185" lon="5.09847">
        <ele>250.45</ele>
        <time>2024-12-30T14:41:20.399Z</time>
      </trkpt>
      <trkpt lat="48.25192" lon="5.09884">
        <ele>250.01</ele>
        <time>2024-12-30T14:41:27.775Z</time>
      </trkpt>
      <trkpt lat="48.252" lon="5.0992">
        <ele>249.36</ele>
        <time>2024-12-30T14:41:35.155Z</time>
      </trkpt>
      <trkpt lat="48.25208" lon="5.09957">
        <ele>248.51</ele>
        <time>2024-12-30T14:41:42.539Z</time>
      </trkpt>
      <trkpt lat="48.25211" lon="5.09982">
        <ele>248.11</ele>
        <time>2024-12-30T14:41:49.926Z</time>
      </trkpt>
      <trkpt lat="48.25215" lon="5.10008">
        <ele>247.28</ele>
        <time>2024-12-30T14:41:57.315Z</time>
      </trkpt>
      <trkpt lat="48.25214" lon="5.10038">
        <ele>246.86</ele>
        <time>2024-12-30T14:42:04.708Z</time>
      </trkpt>
      <trkpt lat="48.25212" lon="5.10068">
        <ele>246.01</ele>
        <time>2024-12-30T14:42:12.104Z</time>
      </trkpt>
      <trkpt lat="48.25209" lon="5.10109">
        <ele>245.53</ele>
        <time>2024-12-30T14:42:19.504Z</time>
      </trkpt>
      <trkpt lat="48.25205" lon="5.10151">
        <ele>244.86</ele>
        <time>2024-12-30T14:42:26.909Z</time>
      </trkpt>
      <trkpt lat="48.25201" lon="5.10192">
        <ele>244.15</ele>
        <time>2024-12-30T14:42:34.318Z</time>
      </trkpt>
      <trkpt lat="48.25197" lon="5.10233">
        <ele>243.51</ele>
        <time>2024-12-30T14:42:41.732Z</time>
      </trkpt>
      <trkpt lat="48.25193" lon="5.10274">
        <ele>242.72</ele>
        <time>2024-12-30T14:42:49.150Z</time>
      </trkpt>
      <trkpt lat="48.25192" lon="5.10303">
        <ele>242.32</ele>
        <time>2024-12-30T14:42:56.571Z</time>
      </trkpt>
      <trkpt lat="48.25191" lon="5.10332">
        <ele>241.61</ele>
        <time>2024-12-30T14:43:03.995Z</time>
      </trkpt>
      <trkpt lat="48.25192" lon="5.10373">
        <ele>241.23</ele>
        <time>2024-12-30T14:43:11.424Z</time>
      </trkpt>
      <trkpt lat="48.25194" lon="5.10414">
        <ele>240.69</ele>
        <time>2024-12-30T14:43:18.857Z</time>
      </trkpt>
      <trkpt lat="48.25195" lon="5.10454">
        <ele>240.15</ele>
        <time>2024-12-30T14:43:26.294Z</time>
      </trkpt>
      <trkpt lat="48.25202" lon="5.10487">
        <ele>239.87</ele>
        <time>2024-12-30T14:43:33.735Z</time>
      </trkpt>
      <trkpt lat="48.25208" lon="5.1052">
        <ele>239.5</ele>
        <time>2024-12-30T14:43:41.180Z</time>
      </trkpt>
      <trkpt lat="48.25215" lon="5.10553">
        <ele>239.16</ele>
        <time>2024-12-30T14:43:48.628Z</time>
      </trkpt>
      <trkpt lat="48.25219" lon="5.10579">
        <ele>238.82</ele>
        <time>2024-12-30T14:43:56.079Z</time>
      </trkpt>
      <trkpt lat="48.25223" lon="5.10605">
        <ele>238.57</ele>
        <time>2024-12-30T14:44:03.533Z</time>
      </trkpt>
      <trkpt lat="48.25223" lon="5.10615">
        <ele>238.28</ele>
        <time>2024-12-30T14:44:10.988Z</time>
      </trkpt>
      <trkpt lat="48.25224" lon="5.1065">
        <ele>237.79</ele>
        <time>2024-12-30T14:44:18.447Z</time>
      </trkpt>
      <trkpt lat="48.25225" lon="5.10684">
        <ele>237.71</ele>
        <time>2024-12-30T14:44:25.910Z</time>
      </trkpt>
      <trkpt lat="48.25232" lon="5.10725">
        <ele>237.1</ele>
        <time>2024-12-30T14:44:33.377Z</time>
      </trkpt>
      <trkpt lat="48.25238" lon="5.10766">
        <ele>236.79</ele>
        <time>2024-12-30T14:44:40.849Z</time>
      </trkpt>
      <trkpt lat="48.25245" lon="5.10806">
        <ele>237.01</ele>
        <time>2024-12-30T14:44:48.325Z</time>
      </trkpt>
      <trkpt lat="48.25245" lon="5.10841">
        <ele>236.78</ele>
        <time>2024-12-30T14:44:55.805Z</time>
      </trkpt>
      <trkpt lat="48.2524" lon="5.10874">
        <ele>235.91</ele>
        <time>2024-12-30T14:45:03.288Z</time>
      </trkpt>
      <trkpt lat="48.25236" lon="5.10907">
        <ele>235.64</ele>
        <time>2024-12-30T14:45:10.775Z</time>
      </trkpt>
      <trkpt lat="48.25232" lon="5.10939">
        <ele>236.23</ele>
        <time>2024-12-30T14:45:18.265Z</time>
      </trkpt>
      <trkpt lat="48.25229" lon="5.10965">
        <ele>235.14</ele>
        <time>2024-12-30T14:45:25.758Z</time>
      </trkpt>
      <trkpt lat="48.25225" lon="5.10991">
        <ele>235.92</ele>
        <time>2024-12-30T14:45:33.254Z</time>
      </trkpt>
      <trkpt lat="48.25226" lon="5.11032">
        <ele>234.54</ele>
        <time>2024-12-30T14:45:40.754Z</time>
      </trkpt>
      <trkpt lat="48.25227" lon="5.11073">
        <ele>234.21</ele>
        <time>2024-12-30T14:45:48.259Z</time>
      </trkpt>
      <trkpt lat="48.25228" lon="5.11113">
        <ele>235.25</ele>
        <time>2024-12-30T14:45:55.768Z</time>
      </trkpt>
      <trkpt lat="48.25229" lon="5.11147">
        <ele>233.68</ele>
        <time>2024-12-30T14:46:03.281Z</time>
      </trkpt>
      <trkpt lat="48.2523" lon="5.1118">
        <ele>234.9</ele>
        <time>2024-12-30T14:46:10.797Z</time>
      </trkpt>
      <trkpt lat="48.25234" lon="5.11205">
        <ele>233.26</ele>
        <time>2024-12-30T14:46:18.316Z</time>
      </trkpt>
      <trkpt lat="48.25238" lon="5.11231">
        <ele>234.5</ele>
        <time>2024-12-30T14:46:25.838Z</time>
      </trkpt>
      <trkpt lat="48.25245" lon="5.11273">
        <ele>232.74</ele>
        <time>2024-12-30T14:46:33.364Z</time>
      </trkpt>
      <trkpt lat="48.25253" lon="5.11314">
        <ele>232.58</ele>
        <time>2024-12-30T14:46:40.895Z</time>
      </trkpt>
      <trkpt lat="48.2526" lon="5.11356">
        <ele>233.89</ele>
        <time>2024-12-30T14:46:48.431Z</time>
      </trkpt>
      <trkpt lat="48.25267" lon="5.11387">
        <ele>232.12</ele>
        <time>2024-12-30T14:46:55.970Z</time>
      </trkpt>
      <trkpt lat="48.25274" lon="5.11419">
        <ele>231.9</ele>
        <time>2024-12-30T14:47:03.513Z</time>
      </trkpt>
      <trkpt lat="48.25281" lon="5.1145">
        <ele>233.06</ele>
        <time>2024-12-30T14:47:11.059Z</time>
      </trkpt>
      <trkpt lat="48.25264" lon="5.11463">
        <ele>231.57</ele>
        <time>2024-12-30T14:47:18.608Z</time>
      </trkpt>
      <trkpt lat="48.25245" lon="5.11477">
        <ele>231.45</ele>
        <time>2024-12-30T14:47:26.161Z</time>
      </trkpt>
      <trkpt lat="48.25225" lon="5.11491">
        <ele>231.32</ele>
        <time>2024-12-30T14:47:33.717Z</time>
      </trkpt>
      <trkpt lat="48.2523" lon="5.11506">
        <ele>231.23</ele>
        <time>2024-12-30T14:47:41.275Z</time>
      </trkpt>
      <trkpt lat="48.25234" lon="5.11544">
        <ele>231.18</ele>
        <time>2024-12-30T14:47:48.837Z</time>
      </trkpt>
      <trkpt lat="48.25232" lon="5.11568">
        <ele>231.14</ele>
        <time>2024-12-30T14:47:56.402Z</time>
      </trkpt>
      <trkpt lat="48.25227" lon="5.11585">
        <ele>231.1</ele>
        <time>2024-12-30T14:48:03.969Z</time>
      </trkpt>
      <trkpt lat="48.25216" lon="5.11611">
        <ele>231.1</ele>
        <time>2024-12-30T14:48:11.539Z</time>
      </trkpt>
      <trkpt lat="48.25204" lon="5.11637">
        <ele>231.17</ele>
        <time>2024-12-30T14:48:19.112Z</time>
      </trkpt>
      <trkpt lat="48.25183" lon="5.11662">
        <ele>231.31</ele>
        <time>2024-12-30T14:48:26.690Z</time>
      </trkpt>
      <trkpt lat="48.25163" lon="5.11688">
        <ele>231.48</ele>
        <time>2024-12-30T14:48:34.272Z</time>
      </trkpt>
      <trkpt lat="48.25161" lon="5.11695">
        <ele>231.7</ele>
        <time>2024-12-30T14:48:41.855Z</time>
      </trkpt>
      <trkpt lat="48.25135" lon="5.11702">
        <ele>232</ele>
        <time>2024-12-30T14:48:49.442Z</time>
      </trkpt>
      <trkpt lat="48.25109" lon="5.1171">
        <ele>232.34</ele>
        <time>2024-12-30T14:48:57.033Z</time>
      </trkpt>
      <trkpt lat="48.25079" lon="5.11711">
        <ele>232.64</ele>
        <time>2024-12-30T14:49:04.629Z</time>
      </trkpt>
      <trkpt lat="48.25048" lon="5.11712">
        <ele>233</ele>
        <time>2024-12-30T14:49:12.230Z</time>
      </trkpt>
      <trkpt lat="48.25018" lon="5.11713">
        <ele>233.41</ele>
        <time>2024-12-30T14:49:19.836Z</time>
      </trkpt>
      <trkpt lat="48.24987" lon="5.11714">
        <ele>233.87</ele>
        <time>2024-12-30T14:49:27.447Z</time>
      </trkpt>
      <trkpt lat="48.24957" lon="5.11714">
        <ele>234.38</ele>
        <time>2024-12-30T14:49:35.063Z</time>
      </trkpt>
      <trkpt lat="48.24926" lon="5.11714">
        <ele>234.93</ele>
        <time>2024-12-30T14:49:42.683Z</time>
      </trkpt>
      <trkpt lat="48.24895" lon="5.11714">
        <ele>235.56</ele>
        <time>2024-12-30T14:49:50.308Z</time>
      </trkpt>
      <trkpt lat="48.24865" lon="5.11714">
        <ele>236.16</ele>
        <time>2024-12-30T14:49:57.938Z</time>
      </trkpt>
      <trkpt lat="48.24834" lon="5.11714">
        <ele>236.71</ele>
        <time>2024-12-30T14:50:05.573Z</time>
      </trkpt>
      <trkpt lat="48.24803" lon="5.11714">
        <ele>237.19</ele>
        <time>2024-12-30T14:50:13.213Z</time>
      </trkpt>
      <trkpt lat="48.24773" lon="5.11714">
        <ele>237.67</ele>
        <time>2024-12-30T14:50:20.858Z</time>
      </trkpt>
      <trkpt lat="48.24741" lon="5.11714">
        <ele>238.21</ele>
        <time>2024-12-30T14:50:28.508Z</time>
      </trkpt>
      <trkpt lat="48.2471" lon="5.11714">
        <ele>238.8</ele>
        <time>2024-12-30T14:50:36.163Z</time>
      </trkpt>
      <trkpt lat="48.24678" lon="5.11714">
        <ele>239.34</ele>
        <time>2024-12-30T14:50:43.823Z</time>
      </trkpt>
      <trkpt lat="48.24647" lon="5.11714">
        <ele>239.85</ele>
        <time>2024-12-30T14:50:51.488Z</time>
      </trkpt>
      <trkpt lat="48.24615" lon="5.11714">
        <ele>240.36</ele>
        <time>2024-12-30T14:50:59.158Z</time>
      </trkpt>
      <trkpt lat="48.24584" lon="5.11714">
        <ele>240.8</ele>
        <time>2024-12-30T14:51:06.833Z</time>
      </trkpt>
      <trkpt lat="48.24552" lon="5.11714">
        <ele>241.26</ele>
        <time>2024-12-30T14:51:14.513Z</time>
      </trkpt>
      <trkpt lat="48.24521" lon="5.11714">
        <ele>241.69</ele>
        <time>2024-12-30T14:51:22.198Z</time>
      </trkpt>
      <trkpt lat="48.24489" lon="5.11714">
        <ele>241.98</ele>
        <time>2024-12-30T14:51:29.888Z</time>
      </trkpt>
      <trkpt lat="48.24463" lon="5.1171">
        <ele>242.15</ele>
        <time>2024-12-30T14:51:37.583Z</time>
      </trkpt>
      <trkpt lat="48.24437" lon="5.11705">
        <ele>242.26</ele>
        <time>2024-12-30T14:51:45.282Z</time>
      </trkpt>
      <trkpt lat="48.24411" lon="5.11701">
        <ele>242.25</ele>
        <time>2024-12-30T14:51:52.985Z</time>
      </trkpt>
      <trkpt lat="48.24384" lon="5.11697">
        <ele>242.18</ele>
        <time>2024-12-30T14:52:00.692Z</time>
      </trkpt>
      <trkpt lat="48.24354" lon="5.11691">
        <ele>242.07</ele>
        <time>2024-12-30T14:52:08.404Z</time>
      </trkpt>
      <trkpt lat="48.24324" lon="5.11686">
        <ele>242.03</ele>
        <time>2024-12-30T14:52:16.121Z</time>
      </trkpt>
      <trkpt lat="48.24293" lon="5.1168">
        <ele>241.9</ele>
        <time>2024-12-30T14:52:23.843Z</time>
      </trkpt>
      <trkpt lat="48.24263" lon="5.11675">
        <ele>241.58</ele>
        <time>2024-12-30T14:52:31.570Z</time>
      </trkpt>
      <trkpt lat="48.24233" lon="5.11669">
        <ele>241.27</ele>
        <time>2024-12-30T14:52:39.302Z</time>
      </trkpt>
      <trkpt lat="48.24203" lon="5.11664">
        <ele>240.93</ele>
        <time>2024-12-30T14:52:47.039Z</time>
      </trkpt>
      <trkpt lat="48.24172" lon="5.11658">
        <ele>240.6</ele>
        <time>2024-12-30T14:52:54.780Z</time>
      </trkpt>
      <trkpt lat="48.24142" lon="5.11653">
        <ele>240.29</ele>
        <time>2024-12-30T14:53:02.526Z</time>
      </trkpt>
      <trkpt lat="48.24112" lon="5.11647">
        <ele>239.95</ele>
        <time>2024-12-30T14:53:10.277Z</time>
      </trkpt>
      <trkpt lat="48.24116" lon="5.11688">
        <ele>239.48</ele>
        <time>2024-12-30T14:53:18.033Z</time>
      </trkpt>
      <trkpt lat="48.24125" lon="5.11728">
        <ele>238.96</ele>
        <time>2024-12-30T14:53:25.793Z</time>
      </trkpt>
      <trkpt lat="48.24134" lon="5.11768">
        <ele>238.38</ele>
        <time>2024-12-30T14:53:33.558Z</time>
      </trkpt>
      <trkpt lat="48.24143" lon="5.11808">
        <ele>237.84</ele>
        <time>2024-12-30T14:53:41.327Z</time>
      </trkpt>
      <trkpt lat="48.24152" lon="5.11847">
        <ele>237.36</ele>
        <time>2024-12-30T14:53:49.101Z</time>
      </trkpt>
      <trkpt lat="48.24156" lon="5.11888">
        <ele>236.91</ele>
        <time>2024-12-30T14:53:56.879Z</time>
      </trkpt>
      <trkpt lat="48.2416" lon="5.1193">
        <ele>236.44</ele>
        <time>2024-12-30T14:54:04.662Z</time>
      </trkpt>
      <trkpt lat="48.24164" lon="5.11971">
        <ele>235.98</ele>
        <time>2024-12-30T14:54:12.449Z</time>
      </trkpt>
      <trkpt lat="48.24167" lon="5.12012">
        <ele>235.46</ele>
        <time>2024-12-30T14:54:20.240Z</time>
      </trkpt>
      <trkpt lat="48.24167" lon="5.12036">
        <ele>235.07</ele>
        <time>2024-12-30T14:54:28.034Z</time>
      </trkpt>
      <trkpt lat="48.24161" lon="5.12059">
        <ele>234.72</ele>
        <time>2024-12-30T14:54:35.831Z</time>
      </trkpt>
      <trkpt lat="48.24147" lon="5.12087">
        <ele>234.49</ele>
        <time>2024-12-30T14:54:43.631Z</time>
      </trkpt>
      <trkpt lat="48.24133" lon="5.12115">
        <ele>234.35</ele>
        <time>2024-12-30T14:54:51.435Z</time>
      </trkpt>
      <trkpt lat="48.24125" lon="5.12143">
        <ele>234.22</ele>
        <time>2024-12-30T14:54:59.242Z</time>
      </trkpt>
      <trkpt lat="48.24121" lon="5.12174">
        <ele>234.09</ele>
        <time>2024-12-30T14:55:07.053Z</time>
      </trkpt>
      <trkpt lat="48.24118" lon="5.12205">
        <ele>234.03</ele>
        <time>2024-12-30T14:55:14.867Z</time>
      </trkpt>
      <trkpt lat="48.24118" lon="5.12205">
        <ele>234</ele>
        <time>2024-12-30T14:55:22.681Z</time>
      </trkpt>
      <trkpt lat="48.24118" lon="5.1221">
        <ele>234.01</ele>
        <time>2024-12-30T14:55:30.496Z</time>
      </trkpt>
      <trkpt lat="48.24122" lon="5.12234">
        <ele>234.06</ele>
        <time>2024-12-30T14:55:38.313Z</time>
      </trkpt>
      <trkpt lat="48.24127" lon="5.12259">
        <ele>234.17</ele>
        <time>2024-12-30T14:55:46.133Z</time>
      </trkpt>
      <trkpt lat="48.24131" lon="5.12272">
        <ele>234.27</ele>
        <time>2024-12-30T14:55:53.955Z</time>
      </trkpt>
      <trkpt lat="48.24135" lon="5.12296">
        <ele>234.42</ele>
        <time>2024-12-30T14:56:01.779Z</time>
      </trkpt>
      <trkpt lat="48.2414" lon="5.12319">
        <ele>234.51</ele>
        <time>2024-12-30T14:56:09.606Z</time>
      </trkpt>
      <trkpt lat="48.24137" lon="5.12353">
        <ele>234.55</ele>
        <time>2024-12-30T14:56:17.437Z</time>
      </trkpt>
      <trkpt lat="48.24135" lon="5.1236">
        <ele>234.57</ele>
        <time>2024-12-30T14:56:25.268Z</time>
      </trkpt>
      <trkpt lat="48.24133" lon="5.12383">
        <ele>234.56</ele>
        <time>2024-12-30T14:56:33.102Z</time>
      </trkpt>
      <trkpt lat="48.24134" lon="5.12415">
        <ele>234.51</ele>
        <time>2024-12-30T14:56:40.939Z</time>
      </trkpt>
      <trkpt lat="48.24135" lon="5.12447">
        <ele>234.43</ele>
        <time>2024-12-30T14:56:48.780Z</time>
      </trkpt>
      <trkpt lat="48.24135" lon="5.12478">
        <ele>234.32</ele>
        <time>2024-12-30T14:56:56.624Z</time>
      </trkpt>
      <trkpt lat="48.24133" lon="5.12499">
        <ele>234.15</ele>
        <time>2024-12-30T14:57:04.470Z</time>
      </trkpt>
      <trkpt lat="48.24129" lon="5.12508">
        <ele>233.9</ele>
        <time>2024-12-30T14:57:12.317Z</time>
      </trkpt>
      <trkpt lat="48.24112" lon="5.12519">
        <ele>233.58</ele>
        <time>2024-12-30T14:57:20.167Z</time>
      </trkpt>
      <trkpt lat="48.24101" lon="5.12546">
        <ele>233.21</ele>
        <time>2024-12-30T14:57:28.021Z</time>
      </trkpt>
      <trkpt lat="48.2409" lon="5.12572">
        <ele>232.73</ele>
        <time>2024-12-30T14:57:35.878Z</time>
      </trkpt>
      <trkpt lat="48.24077" lon="5.12587">
        <ele>232.22</ele>
        <time>2024-12-30T14:57:43.738Z</time>
      </trkpt>
      <trkpt lat="48.24053" lon="5.12599">
        <ele>231.67</ele>
        <time>2024-12-30T14:57:51.602Z</time>
      </trkpt>
      <trkpt lat="48.24028" lon="5.12611">
        <ele>231.13</ele>
        <time>2024-12-30T14:57:59.470Z</time>
      </trkpt>
      <trkpt lat="48.24004" lon="5.12623">
        <ele>230.62</ele>
        <time>2024-12-30T14:58:07.342Z</time>
      </trkpt>
      <trkpt lat="48.2398" lon="5.12635">
        <ele>230.18</ele>
        <time>2024-12-30T14:58:15.218Z</time>
      </trkpt>
      <trkpt lat="48.23955" lon="5.12647">
        <ele>229.78</ele>
        <time>2024-12-30T14:58:23.098Z</time>
      </trkpt>
      <trkpt lat="48.23953" lon="5.12665">
        <ele>229.37</ele>
        <time>2024-12-30T14:58:30.980Z</time>
      </trkpt>
      <trkpt lat="48.23951" lon="5.12688">
        <ele>229</ele>
        <time>2024-12-30T14:58:38.865Z</time>
      </trkpt>
      <trkpt lat="48.23949" lon="5.12712">
        <ele>228.72</ele>
        <time>2024-12-30T14:58:46.752Z</time>
      </trkpt>
      <trkpt lat="48.23942" lon="5.12757">
        <ele>228.61</ele>
        <time>2024-12-30T14:58:54.644Z</time>
      </trkpt>
      <trkpt lat="48.23936" lon="5.12802">
        <ele>228.64</ele>
        <time>2024-12-30T14:59:02.541Z</time>
      </trkpt>
      <trkpt lat="48.23929" lon="5.12847">
        <ele>228.67</ele>
        <time>2024-12-30T14:59:10.443Z</time>
      </trkpt>
      <trkpt lat="48.23923" lon="5.12892">
        <ele>228.51</ele>
        <time>2024-12-30T14:59:18.350Z</time>
      </trkpt>
      <trkpt lat="48.23916" lon="5.12938">
        <ele>228.46</ele>
        <time>2024-12-30T14:59:26.262Z</time>
      </trkpt>
      <trkpt lat="48.2391" lon="5.12982">
        <ele>228.63</ele>
        <time>2024-12-30T14:59:34.179Z</time>
      </trkpt>
      <trkpt lat="48.2391" lon="5.12986">
        <ele>228.74</ele>
        <time>2024-12-30T14:59:42.096Z</time>
      </trkpt>
      <trkpt lat="48.23908" lon="5.13006">
        <ele>228.93</ele>
        <time>2024-12-30T14:59:50.015Z</time>
      </trkpt>
      <trkpt lat="48.23906" lon="5.13014">
        <ele>229.19</ele>
        <time>2024-12-30T14:59:57.935Z</time>
      </trkpt>
      <trkpt lat="48.23901" lon="5.13049">
        <ele>229.57</ele>
        <time>2024-12-30T15:00:05.859Z</time>
      </trkpt>
      <trkpt lat="48.23901" lon="5.13053">
        <ele>229.92</ele>
        <time>2024-12-30T15:00:13.784Z</time>
      </trkpt>
      <trkpt lat="48.23901" lon="5.13053">
        <ele>230.31</ele>
        <time>2024-12-30T15:00:21.709Z</time>
      </trkpt>
      <trkpt lat="48.23897" lon="5.13094">
        <ele>230.8</ele>
        <time>2024-12-30T15:00:29.638Z</time>
      </trkpt>
      <trkpt lat="48.23893" lon="5.13134">
        <ele>231.35</ele>
        <time>2024-12-30T15:00:37.571Z</time>
      </trkpt>
      <trkpt lat="48.23891" lon="5.13175">
        <ele>231.9</ele>
        <time>2024-12-30T15:00:45.509Z</time>
      </trkpt>
      <trkpt lat="48.2389" lon="5.13215">
        <ele>232.45</ele>
        <time>2024-12-30T15:00:53.451Z</time>
      </trkpt>
      <trkpt lat="48.23888" lon="5.13255">
        <ele>232.92</ele>
        <time>2024-12-30T15:01:01.397Z</time>
      </trkpt>
      <trkpt lat="48.23886" lon="5.13295">
        <ele>233.14</ele>
        <time>2024-12-30T15:01:09.348Z</time>
      </trkpt>
      <trkpt lat="48.23889" lon="5.13319">
        <ele>233.59</ele>
        <time>2024-12-30T15:01:17.301Z</time>
      </trkpt>
      <trkpt lat="48.23899" lon="5.13359">
        <ele>234.06</ele>
        <time>2024-12-30T15:01:25.259Z</time>
      </trkpt>
      <trkpt lat="48.2391" lon="5.13398">
        <ele>234.44</ele>
        <time>2024-12-30T15:01:33.221Z</time>
      </trkpt>
      <trkpt lat="48.2391" lon="5.13398">
        <ele>234.67</ele>
        <time>2024-12-30T15:01:41.183Z</time>
      </trkpt>
      <trkpt lat="48.23918" lon="5.13434">
        <ele>234.79</ele>
        <time>2024-12-30T15:01:49.149Z</time>
      </trkpt>
      <trkpt lat="48.23926" lon="5.13469">
        <ele>234.88</ele>
        <time>2024-12-30T15:01:57.119Z</time>
      </trkpt>
      <trkpt lat="48.23934" lon="5.13504">
        <ele>235.03</ele>
        <time>2024-12-30T15:02:05.093Z</time>
      </trkpt>
      <trkpt lat="48.23936" lon="5.13521">
        <ele>235.03</ele>
        <time>2024-12-30T15:02:13.069Z</time>
      </trkpt>
      <trkpt lat="48.23959" lon="5.13523">
        <ele>235.31</ele>
        <time>2024-12-30T15:02:21.049Z</time>
      </trkpt>
      <trkpt lat="48.23973" lon="5.13527">
        <ele>235.3</ele>
        <time>2024-12-30T15:02:29.031Z</time>
      </trkpt>
    </trkseg>
  </trk>
</gpx>